GFSSGP_925_temp_000.txt.gz
Temp
24 24 26 26 24 25 26 28 32 31 32 31 31 30 30 27 29 25 24 23 23 22 20 19 19 18 18 18 18 17 17 17 18 18 18 17 17 17 17 17 17 16 16 16 16 16 17 17 17
24 25 27 24 24 25 27 30 31 31 30 31 31 31 31 27 27 23 23 22 23 22 20 19 19 18 18 18 17 17 17 18 18 18 17 17 17 17 17 16 16 16 16 16 15 15 16 16 16
24 26 24 24 25 25 28 29 32 29 30 31 31 31 31 28 27 24 24 22 23 22 22 20 20 19 18 18 18 17 17 17 18 18 18 17 17 17 16 16 16 16 16 15 15 15 16 16 16
25 26 24 24 26 28 29 26 30 31 30 31 32 29 27 27 28 25 23 23 23 23 22 21 20 19 18 18 17 17 17 17 18 18 17 17 17 17 16 16 16 16 15 15 15 15 15 15 15
26 24 24 25 26 29 30 24 32 31 31 29 31 30 26 25 24 23 23 23 23 23 21 20 20 19 18 18 17 17 17 17 18 17 16 16 17 17 16 16 16 15 15 15 14 14 14 14 14
23 25 24 24 27 29 31 33 31 31 32 30 31 30 26 25 24 23 23 23 23 23 21 20 18 18 18 17 17 17 17 17 18 16 16 16 17 16 16 16 16 15 15 15 14 14 14 14 14
23 22 23 25 27 29 31 32 31 31 31 30 32 31 25 24 25 23 23 23 23 23 22 20 19 18 18 17 17 17 17 17 17 16 16 16 16 16 16 16 16 15 15 15 15 14 14 14 14
24 23 23 24 26 27 31 32 32 30 31 31 31 29 26 25 24 23 23 23 23 23 22 21 20 18 18 17 17 17 17 17 17 17 16 16 16 16 16 16 16 15 15 15 15 15 14 14 14
25 22 23 25 27 28 30 30 31 30 30 31 30 28 25 24 23 23 23 23 23 22 22 22 21 20 19 18 17 17 17 17 17 17 16 16 16 16 16 16 15 15 15 15 15 15 14 14 15
23 21 24 27 28 27 28 28 28 29 29 30 29 26 25 23 23 23 22 23 23 23 22 22 22 21 20 20 19 18 17 17 17 16 16 16 16 17 16 16 16 15 15 15 15 15 15 15 16
24 22 24 26 28 26 26 27 29 29 27 30 28 25 24 23 23 23 23 24 23 23 22 22 22 21 21 20 20 18 18 17 17 17 17 17 17 18 17 16 16 15 15 15 15 15 16 16 16
23 25 26 26 27 27 26 27 27 28 27 30 28 26 24 23 22 23 24 25 24 23 22 22 22 21 21 20 20 19 19 18 18 18 18 18 18 18 17 16 16 16 16 15 15 16 16 16 16
24 25 26 26 26 26 26 26 26 27 29 30 29 28 25 24 24 25 25 25 26 24 23 23 22 22 21 21 20 20 20 19 19 19 19 19 18 18 17 17 17 17 16 16 16 16 16 17 16
25 25 25 26 27 27 26 26 28 28 29 29 27 27 27 25 25 26 26 26 27 26 25 24 22 22 21 21 21 20 20 20 19 19 19 19 18 18 18 18 17 17 17 16 17 17 17 17 17
25 24 24 25 26 26 27 25 25 27 29 29 29 27 27 26 28 27 27 27 27 26 26 25 23 22 22 21 21 20 20 20 20 19 19 18 18 18 18 18 17 17 17 17 17 17 17 17 17
24 23 22 25 26 26 25 23 27 28 29 28 28 28 27 27 27 29 29 28 27 26 26 26 25 23 22 21 21 21 20 20 20 19 19 19 18 18 17 17 17 17 17 17 17 17 17 17 17
23 21 23 25 27 27 25 24 28 29 27 27 27 28 28 28 28 29 29 29 28 28 27 26 26 25 23 22 21 21 21 20 20 19 19 19 18 18 17 17 17 17 17 17 17 17 17 17 17
23 22 24 24 25 26 24 24 26 27 27 26 27 28 27 25 25 27 27 27 27 28 28 27 26 25 24 23 22 21 21 21 20 20 19 19 18 18 18 17 17 17 17 17 17 17 17 17 17
24 24 24 27 25 26 24 24 28 27 25 27 25 23 23 23 23 26 25 24 24 25 26 27 27 26 25 24 22 21 20 20 20 19 19 19 18 18 18 17 17 17 17 17 17 17 17 17 17
25 24 24 26 26 25 24 25 27 27 26 26 23 22 22 22 22 23 23 22 22 22 22 24 25 26 25 24 23 22 21 20 20 20 20 19 19 18 18 18 17 17 17 17 17 17 16 16 16
24 23 24 24 25 24 24 24 24 26 25 23 23 23 22 22 21 21 21 21 20 20 20 21 22 23 25 25 23 22 22 21 21 21 20 19 19 18 18 18 18 17 17 17 17 17 17 16 17
23 25 24 24 23 23 24 22 24 24 24 23 21 21 21 21 21 20 20 20 20 20 20 21 21 22 23 23 23 22 22 20 20 20 20 20 20 19 18 18 18 18 17 17 17 17 17 17 17
23 24 24 23 22 22 24 22 23 23 23 23 22 22 21 21 20 20 19 20 20 19 20 21 21 21 21 22 22 22 22 21 21 21 21 21 21 21 19 18 18 17 17 17 17 17 17 17 17
23 23 22 23 21 21 24 24 22 23 23 22 22 22 22 21 20 20 21 20 19 19 20 20 20 20 20 20 20 20 20 20 20 20 20 20 21 21 21 20 18 17 17 17 17 17 17 17 17
22 21 21 20 20 22 24 22 22 25 23 23 22 21 22 20 20 19 18 18 19 19 19 19 19 19 19 19 19 19 19 19 19 19 19 20 20 20 21 20 20 18 17 17 17 17 17 17 16
21 23 21 22 22 22 23 22 25 24 23 22 22 21 21 20 19 18 18 18 19 19 19 19 19 19 18 18 18 18 19 18 18 18 18 19 19 19 19 19 19 19 18 18 17 17 17 17 16
23 21 23 22 24 21 23 26 25 23 22 21 22 21 20 20 19 19 18 18 18 18 18 19 19 19 18 18 18 18 18 18 18 18 18 18 18 18 18 18 18 19 19 19 18 18 18 17 17
22 21 21 21 22 22 23 25 23 22 22 22 21 21 20 20 19 18 17 18 18 18 19 19 19 18 18 18 18 18 18 18 18 18 18 17 17 17 17 17 17 17 18 18 18 18 18 18 17
20 21 22 21 22 21 21 22 23 23 23 22 21 21 19 18 18 18 18 19 19 19 19 19 18 18 17 17 17 16 16 16 16 16 16 15 16 16 16 16 17 17 17 17 17 17 17 17 17
21 22 22 20 21 20 18 18 22 21 21 21 21 20 18 18 18 18 18 19 19 19 18 17 16 16 16 15 15 15 15 15 15 14 14 14 14 14 14 14 15 15 16 16 16 16 16 16 16

GFSSGP_925_temp_003.txt.gz
Temp
24 25 25 24 22 20 22 24 28 26 28 29 29 28 27 27 27 25 22 23 22 21 20 20 19 18 18 18 17 17 17 17 18 18 18 17 17 17 17 17 17 16 16 16 16 16 17 17 17
24 25 25 19 20 21 22 25 27 27 27 28 29 28 28 26 23 21 22 23 22 21 20 20 19 18 18 18 17 17 17 17 18 18 18 18 17 17 16 16 16 16 16 15 15 16 16 16 17
24 24 20 20 20 21 23 26 26 28 27 30 29 28 27 26 23 22 23 23 21 21 21 20 19 18 18 18 17 17 17 17 18 18 18 18 17 17 16 16 16 15 15 15 15 15 16 16 16
24 22 19 21 22 23 25 26 26 27 29 29 29 27 25 24 25 24 23 23 22 21 21 20 20 18 18 18 17 17 17 17 18 18 18 18 18 17 16 16 16 15 15 15 15 15 15 15 15
24 18 20 21 22 24 26 28 29 27 29 29 30 27 24 23 23 23 22 22 22 21 21 20 20 19 18 18 18 17 17 17 17 17 17 17 18 17 16 16 16 15 15 15 15 14 14 14 14
19 18 19 20 22 24 25 28 29 27 29 28 29 24 23 23 23 22 22 23 22 22 21 20 19 18 18 18 17 17 17 18 18 17 16 17 17 17 16 16 16 16 15 15 14 14 14 14 14
21 18 19 20 21 23 26 27 26 27 29 28 29 25 23 22 23 22 22 23 23 22 21 20 20 18 18 18 17 17 17 18 17 17 16 16 16 17 16 16 16 15 15 15 15 14 14 14 14
19 19 21 21 22 23 26 27 29 28 28 30 29 25 23 22 23 23 23 23 23 21 21 21 20 19 18 18 17 17 17 17 17 17 16 16 16 16 16 16 16 15 15 15 15 15 14 14 14
22 19 19 21 23 24 25 25 26 28 29 29 25 26 24 24 23 22 22 23 23 22 22 21 20 20 19 18 18 17 17 17 17 17 16 16 16 16 16 16 15 15 15 15 15 15 14 14 14
20 17 20 22 23 23 24 25 25 27 26 28 24 22 23 23 22 21 21 21 22 22 22 21 20 20 20 19 18 18 17 17 17 17 16 16 16 16 16 16 16 15 15 15 15 15 14 15 15
21 19 21 23 23 24 24 25 25 25 27 26 26 22 20 21 21 20 21 22 22 22 22 22 21 21 20 19 18 18 18 17 17 16 16 16 16 16 16 16 15 15 15 15 15 15 15 15 16
21 22 22 23 24 25 24 24 24 25 26 27 27 23 20 19 19 20 20 22 22 22 22 22 21 21 20 20 20 19 18 17 17 17 17 16 17 17 16 16 16 16 15 15 15 15 15 16 16
21 21 23 23 23 23 24 24 24 24 25 25 25 22 21 20 19 22 23 23 23 23 22 22 21 21 21 20 20 19 19 18 18 18 17 17 17 17 17 17 16 16 16 16 15 15 15 16 16
22 22 22 23 23 23 25 24 24 25 25 26 25 23 21 21 21 22 22 23 24 24 23 23 22 21 21 20 20 20 19 19 18 18 18 18 18 18 17 17 17 16 16 16 16 16 16 16 16
22 21 21 22 23 23 26 24 23 24 25 27 26 23 23 22 23 23 25 24 25 25 25 24 23 22 21 20 20 20 20 19 19 19 19 18 18 18 18 17 17 17 17 17 16 16 16 16 16
22 22 20 21 23 23 24 22 23 23 23 25 25 24 23 23 23 24 25 25 26 26 25 25 24 23 22 21 20 20 20 20 20 19 19 19 18 18 18 17 17 17 17 17 17 16 16 16 16
20 18 19 21 22 23 23 22 23 23 25 25 23 23 22 21 21 23 24 24 25 25 26 25 24 24 23 22 21 20 20 20 20 20 19 19 19 18 18 17 17 17 17 17 17 16 16 16 16
18 19 20 20 25 23 23 22 22 23 24 23 21 20 20 20 20 21 22 22 23 23 24 24 25 24 24 23 22 21 20 20 20 20 19 19 19 18 18 17 17 17 17 17 17 16 16 16 16
20 20 20 23 24 24 23 21 22 24 22 20 19 19 19 20 20 21 21 20 21 22 23 23 24 23 23 22 21 21 20 20 20 20 19 19 18 18 18 18 17 16 16 17 16 16 16 16 16
20 21 21 24 24 23 22 22 25 24 22 20 20 19 19 19 19 19 19 20 20 20 21 22 22 23 23 22 22 22 21 21 21 20 20 19 19 18 18 18 17 17 16 16 16 16 15 15 15
22 22 22 22 22 23 23 21 24 22 21 20 20 20 19 19 19 18 17 18 20 20 21 21 21 22 22 22 22 22 21 20 20 20 19 19 19 19 18 18 17 17 16 16 15 15 15 15 15
22 23 23 23 20 20 21 19 22 21 21 20 19 18 18 18 18 17 17 18 19 19 20 21 20 21 21 21 21 20 20 19 20 20 20 20 20 19 19 19 18 17 17 16 16 16 16 15 16
22 23 23 22 20 20 21 20 20 20 20 19 19 18 18 18 17 17 16 18 18 19 19 19 20 20 20 20 20 19 19 19 19 19 19 19 19 19 19 19 18 18 17 17 17 16 16 15 15
22 22 21 20 18 18 19 20 20 20 20 19 19 18 18 18 17 16 17 18 18 19 19 19 19 19 19 19 19 19 19 19 18 18 18 18 19 19 19 18 18 19 19 18 17 17 17 16 16
21 18 18 19 18 18 21 20 20 21 21 21 18 18 17 17 16 16 15 16 17 18 18 19 19 18 18 18 18 18 18 18 18 18 18 18 18 18 18 18 18 17 17 17 17 16 17 17 17
19 19 18 20 19 20 22 20 22 22 21 19 19 17 17 16 15 16 16 16 17 18 18 18 18 18 18 18 18 18 18 18 18 17 17 17 17 17 17 17 17 17 17 17 17 17 17 17 17
21 20 20 20 20 19 19 22 23 19 18 18 18 17 17 16 16 16 16 17 17 18 18 18 18 18 17 17 17 17 16 16 16 16 16 16 16 16 16 16 16 16 16 17 17 17 16 16 17
21 20 20 18 20 21 19 23 20 20 18 18 18 16 16 16 15 15 15 17 18 18 18 17 16 16 15 15 15 15 15 15 15 15 14 14 14 14 14 14 14 15 15 15 15 16 16 16 16
19 19 20 18 17 18 18 19 20 21 19 18 17 17 16 15 15 15 15 17 17 16 15 15 15 14 14 14 14 14 14 13 13 13 13 13 13 13 13 13 13 13 13 14 14 14 14 14 15
20 20 19 18 20 17 16 18 21 18 18 18 18 17 16 15 15 15 16 16 15 14 14 13 13 13 12 12 12 12 12 12 12 12 12 11 11 11 11 12 12 12 12 12 13 13 13 13 14

GFSSGP_925_temp_006.txt.gz
Temp
24 25 25 23 21 19 21 23 25 26 28 27 28 28 27 26 28 26 21 22 22 21 19 19 19 19 19 18 17 17 17 17 18 18 18 17 17 17 17 17 17 17 17 16 16 17 17 17 17
24 24 24 18 20 20 21 24 26 25 27 26 27 26 27 27 23 20 20 22 22 21 20 19 19 18 18 18 17 17 17 17 17 18 17 17 17 17 16 17 16 16 16 15 15 16 17 16 17
24 24 19 19 18 20 21 25 25 27 26 27 28 26 25 26 22 21 22 22 21 21 20 20 19 18 18 18 17 17 17 17 17 18 18 18 17 17 16 16 16 15 15 15 15 16 16 16 16
24 21 17 20 21 22 24 23 25 26 27 27 27 27 24 23 23 24 23 21 21 21 21 20 19 18 18 17 17 17 17 17 18 17 18 17 18 18 16 16 16 15 15 15 15 15 15 15 16
22 16 18 20 21 22 23 25 26 27 28 28 28 26 25 22 23 23 22 22 21 21 21 20 19 19 18 17 17 17 17 17 17 18 18 18 17 17 16 16 16 15 15 15 14 14 15 15 14
19 16 18 19 20 21 22 23 25 27 26 27 27 23 23 22 22 22 22 22 21 21 20 20 20 19 18 18 17 17 17 17 17 17 17 17 17 17 17 16 15 15 15 14 14 14 14 14 14
19 17 18 20 19 22 24 24 24 26 27 26 25 25 22 20 22 22 22 22 22 21 20 19 19 18 18 18 17 18 17 17 17 18 16 16 16 16 16 16 16 15 15 15 15 14 14 14 14
18 18 20 19 20 22 24 23 24 27 27 28 25 25 25 20 22 22 22 22 21 21 21 20 19 19 18 18 17 18 17 17 17 17 16 16 16 16 16 16 16 16 15 15 15 15 14 14 14
19 18 18 20 22 23 22 22 25 25 26 26 23 24 23 23 22 22 22 22 21 20 20 20 20 19 18 18 18 17 17 17 17 17 17 16 16 16 16 16 16 16 15 15 15 15 15 15 14
19 17 19 20 22 21 22 22 23 24 23 26 24 22 21 22 21 20 20 20 20 20 20 20 20 20 19 19 18 17 17 17 17 17 17 16 16 16 16 16 15 16 16 16 15 15 15 15 15
19 19 20 21 21 21 22 22 24 24 25 25 26 22 20 19 19 20 20 21 21 21 20 20 20 20 19 19 19 18 18 17 17 17 17 16 16 16 16 16 16 15 15 15 15 15 15 15 15
20 20 21 22 22 22 23 24 23 23 24 25 24 23 19 19 18 19 19 21 21 21 22 21 20 20 20 19 19 19 18 17 17 17 17 16 16 16 16 16 16 15 15 15 15 15 15 15 15
20 20 21 21 21 21 22 22 22 23 23 22 23 21 19 19 18 20 21 21 22 21 22 22 21 21 20 20 19 19 19 18 18 18 17 17 17 17 17 17 16 16 16 16 16 15 15 15 15
21 21 21 21 21 22 22 22 23 23 23 22 24 21 19 19 19 20 21 21 22 22 23 22 22 21 21 20 20 20 19 19 18 18 18 18 17 17 17 17 17 17 17 17 16 16 16 16 15
21 20 20 21 22 22 23 22 23 23 22 22 23 21 21 19 20 20 21 21 22 23 23 23 22 22 21 21 20 20 20 19 19 19 19 18 18 18 17 17 17 17 17 17 16 16 15 15 15
21 20 20 21 21 21 22 20 22 22 20 21 22 20 21 20 21 21 22 23 23 23 23 24 24 22 22 21 20 20 20 19 20 19 19 19 18 18 18 17 17 17 17 17 16 16 16 16 16
18 18 18 19 21 22 22 21 22 22 23 22 21 21 19 19 18 19 20 21 22 23 23 23 24 23 23 22 21 21 20 20 20 20 20 19 19 18 18 18 18 17 17 17 16 16 16 15 15
18 18 18 19 22 20 20 21 21 21 23 22 18 17 18 18 18 18 19 20 20 21 21 22 22 22 22 22 21 20 20 20 20 20 20 20 19 19 18 18 18 17 17 17 16 16 15 15 15
19 19 19 19 21 21 20 21 21 21 18 18 17 17 18 18 19 18 18 19 20 20 21 22 22 21 21 20 20 19 20 20 20 20 20 20 19 19 18 18 18 18 17 17 16 16 15 15 14
19 18 18 19 22 23 23 21 21 21 20 18 17 17 18 18 17 16 17 18 18 19 19 20 21 21 22 20 20 19 19 19 20 20 20 19 19 19 18 18 18 17 17 16 15 15 14 14 14
18 18 19 20 21 21 22 20 23 21 20 19 19 18 18 17 17 15 15 16 18 18 18 19 19 20 20 20 20 19 19 19 19 19 19 19 19 19 18 18 18 17 16 16 15 15 14 14 15
18 19 21 22 20 20 20 18 20 19 20 19 17 17 17 17 16 15 14 15 17 18 19 19 19 19 19 19 19 19 18 17 18 18 18 18 18 18 18 17 17 17 16 16 16 16 15 14 14
20 21 22 21 19 19 20 19 18 18 19 18 17 16 17 16 15 14 14 16 17 18 18 18 18 18 18 18 18 18 18 17 18 18 18 18 18 18 17 17 17 16 16 15 15 15 15 15 14
20 21 17 16 17 17 18 19 19 18 20 18 17 16 16 15 15 14 16 17 17 18 18 18 18 18 18 18 17 17 17 17 17 17 16 16 16 16 16 16 16 16 16 15 15 15 15 15 15
19 17 17 18 17 17 19 18 20 20 18 20 17 15 15 15 14 14 14 15 16 17 18 18 17 16 17 17 16 16 16 16 15 15 15 15 15 15 15 15 15 15 15 15 15 15 15 15 15
18 18 16 19 17 19 20 19 21 19 19 18 17 16 15 15 14 14 14 15 16 17 17 16 16 15 15 16 15 15 15 14 14 14 14 13 13 14 14 14 14 14 14 14 14 14 14 14 14
19 18 19 19 18 18 18 20 22 17 16 16 15 15 15 15 14 14 14 16 17 15 15 15 15 14 14 14 14 13 13 13 13 13 13 12 12 12 12 13 13 13 13 13 13 12 13 13 13
19 19 19 16 19 19 18 20 20 19 17 16 16 15 15 15 14 14 14 15 14 14 14 14 13 13 12 13 12 12 12 12 12 12 11 11 11 11 11 11 11 11 11 11 11 11 11 12 12
18 18 18 17 16 18 18 18 18 18 17 17 16 15 15 14 13 13 14 14 13 13 12 12 12 12 12 11 11 11 11 11 10 10 9 9 9 9 9 9 9 10 10 10 10 10 11 11 11
19 18 18 17 19 15 15 18 18 18 17 16 16 16 15 14 13 13 12 12 11 11 11 11 10 10 10 10 10 10 9 9 9 9 8 8 8 8 8 8 8 9 9 9 9 10 10 10 10

GFSSGP_925_temp_009.txt.gz
Temp
24 24 24 22 21 19 21 23 24 24 26 26 26 26 27 26 27 26 21 21 22 21 20 19 19 18 18 18 17 17 17 17 17 18 18 18 18 17 17 17 17 17 17 16 16 17 17 17 17
24 24 23 17 19 19 20 22 25 24 25 24 26 26 27 27 22 21 20 21 21 21 20 19 19 19 18 19 17 17 17 17 17 18 18 17 18 17 17 17 16 17 16 16 15 16 17 17 17
24 23 19 18 17 19 21 23 23 25 24 26 27 25 25 27 22 21 22 22 21 21 20 19 19 19 18 18 17 17 17 17 17 17 18 17 17 17 16 16 16 16 16 15 15 16 16 16 16
23 20 16 19 21 21 22 23 23 23 26 25 26 26 24 23 22 23 23 22 21 21 20 20 19 18 18 17 17 17 17 17 17 18 18 17 17 17 17 16 16 15 15 15 15 15 15 15 16
21 16 17 19 20 21 22 22 23 24 25 26 26 27 25 23 23 23 23 21 21 20 20 20 19 18 18 17 17 17 17 17 17 18 18 18 17 18 17 16 15 15 15 15 15 15 15 15 15
18 16 17 18 19 20 20 22 22 24 25 26 27 24 25 22 22 22 22 21 21 21 20 20 19 19 18 17 17 17 17 17 17 17 17 18 18 17 16 16 15 15 15 15 14 14 14 14 14
19 17 18 18 19 21 23 21 22 22 25 27 23 25 23 20 22 22 22 21 21 20 20 19 19 18 18 18 17 17 17 17 17 17 17 17 17 16 16 16 15 15 15 15 15 14 14 14 14
16 17 19 18 19 21 23 21 23 23 25 25 24 25 26 21 22 22 21 21 20 20 20 20 19 19 18 18 17 17 17 17 17 17 17 17 16 16 16 16 16 15 15 15 15 14 14 15 14
17 17 17 19 20 21 21 21 22 23 24 24 24 23 21 22 22 21 21 20 20 19 20 20 19 19 18 18 17 17 17 17 17 17 17 17 16 16 16 16 16 16 16 15 15 14 14 14 15
18 16 19 19 21 21 21 21 22 23 22 24 25 22 20 20 20 19 19 19 19 19 19 19 19 19 18 18 18 17 17 17 17 17 17 17 16 16 16 16 16 16 15 15 15 14 14 14 14
18 18 19 20 21 20 21 20 22 23 23 24 24 23 20 19 18 18 19 20 20 20 20 19 19 19 19 18 18 18 17 17 17 17 17 16 16 16 16 16 16 16 16 15 15 15 15 14 14
19 19 20 21 22 21 20 22 21 21 22 23 22 21 20 18 17 18 19 20 20 20 21 20 20 19 19 19 18 19 18 18 17 17 17 16 16 16 16 16 16 16 16 15 15 15 15 14 14
19 20 20 20 19 19 20 19 20 21 21 21 21 22 19 18 17 19 20 21 21 21 21 21 20 20 20 19 19 19 18 18 18 18 18 17 17 16 16 16 16 16 15 16 15 15 15 15 15
20 19 20 20 20 20 21 20 21 22 21 21 22 22 19 18 18 19 19 19 20 21 22 22 21 21 20 20 19 19 19 19 19 19 19 18 17 17 17 16 16 16 16 16 16 15 15 15 15
21 20 19 20 20 20 21 20 20 21 21 20 19 20 19 19 20 20 20 21 21 22 23 22 22 21 21 21 20 20 19 19 19 19 19 18 18 17 17 17 17 17 17 16 16 16 16 15 15
20 19 19 20 21 20 21 19 20 21 22 20 19 20 17 17 17 18 19 20 20 21 21 22 22 22 21 21 21 20 20 20 20 20 19 19 19 18 18 18 18 18 17 17 16 16 16 16 16
19 18 18 19 20 21 21 20 21 22 21 20 19 17 17 17 16 17 18 18 19 20 21 22 21 21 21 21 20 20 20 20 20 20 20 19 19 19 18 18 18 18 17 17 16 16 16 15 14
18 18 17 17 20 20 20 19 21 21 22 19 17 16 17 16 15 16 17 18 18 19 20 20 21 21 21 20 20 19 19 19 19 19 19 19 19 19 18 18 18 18 17 17 16 16 15 15 14
18 18 19 18 18 19 18 19 20 20 20 17 16 16 16 16 16 16 17 17 18 19 19 19 20 20 20 19 19 18 19 19 19 19 19 19 19 18 18 18 18 17 17 17 16 15 14 14 14
19 18 17 18 20 19 20 19 19 20 19 17 16 16 17 16 15 14 15 17 17 17 18 19 19 19 19 18 18 18 18 18 18 18 18 18 18 18 17 17 17 16 15 15 15 14 13 13 14
18 18 17 18 19 20 20 18 20 20 19 18 18 17 16 15 15 13 13 15 16 16 17 18 18 18 18 18 18 18 18 18 17 17 17 17 17 17 16 16 15 15 14 14 14 14 13 13 14
18 18 19 18 19 18 19 17 18 19 18 18 16 15 15 14 14 14 13 14 15 16 17 17 17 17 17 18 17 17 16 16 15 16 16 16 16 16 16 16 15 15 15 14 14 14 13 13 13
18 19 18 19 18 18 18 17 18 18 18 17 15 15 14 14 14 13 13 15 16 17 17 17 17 17 17 17 17 17 16 15 15 15 16 16 16 15 15 15 15 15 14 14 14 14 13 14 14
20 19 17 15 15 16 17 18 18 17 19 17 16 15 14 13 13 13 14 15 16 16 16 16 16 16 16 16 15 15 15 14 14 14 14 14 14 14 14 14 14 14 13 13 13 13 13 13 13
18 17 16 17 16 16 17 17 21 20 18 19 16 14 14 13 13 13 13 14 15 15 15 15 15 14 14 15 14 14 13 13 13 12 12 12 12 12 12 12 12 12 12 12 12 12 12 12 12
16 18 16 18 16 17 16 17 20 18 16 18 17 14 13 13 12 13 13 14 14 14 14 14 14 13 13 13 13 13 12 12 12 12 11 11 10 10 10 10 10 10 10 10 10 10 10 11 11
18 17 17 18 16 16 17 18 19 16 15 15 15 14 13 13 12 12 13 13 13 13 13 13 13 12 12 12 12 11 11 11 10 10 10 9 9 9 9 9 9 9 9 9 9 9 9 10 10
18 17 18 15 18 18 17 17 19 19 17 15 14 14 14 13 13 12 12 12 12 12 12 12 12 11 11 11 11 10 9 9 9 9 9 8 8 8 8 7 7 7 8 8 8 8 8 9 9
17 17 16 16 15 17 17 17 17 19 16 15 15 15 14 13 12 12 10 11 11 11 11 11 11 11 10 10 9 9 9 8 8 7 7 7 7 6 6 6 6 6 6 6 7 7 8 8 8
18 17 16 16 17 14 14 17 16 16 15 15 15 15 14 13 12 11 10 10 10 9 10 10 9 9 9 9 9 8 7 7 7 6 6 6 5 5 5 5 5 5 5 5 6 6 7 6 6

GFSSGP_925_temp_012.txt.gz
Temp
24 24 24 22 20 18 20 22 23 24 25 25 23 25 26 25 27 25 22 22 22 21 20 19 19 19 19 19 18 17 17 17 17 18 18 18 18 18 17 17 17 17 17 17 17 17 18 18 18
23 24 23 16 19 19 20 21 24 25 25 22 24 25 26 27 22 21 21 22 21 21 20 19 19 19 18 19 18 17 17 17 17 17 18 18 18 18 17 17 17 17 16 16 15 16 17 17 17
23 23 19 17 16 19 20 22 22 22 22 23 26 25 25 26 23 21 23 22 21 21 20 19 19 19 19 19 18 17 17 17 17 17 17 17 17 18 18 17 16 16 16 15 15 15 16 16 16
23 20 16 18 20 21 21 22 23 21 23 23 26 26 24 24 23 23 23 22 21 21 20 20 19 19 18 18 18 17 17 17 17 17 17 18 17 17 17 16 16 15 15 15 15 15 15 15 15
21 16 17 18 19 20 20 21 21 21 22 24 25 26 25 23 22 23 23 22 22 21 20 19 19 19 18 18 17 17 17 17 17 18 18 18 18 18 17 16 16 15 15 15 15 15 15 15 15
18 16 18 18 19 19 19 20 21 21 22 23 25 25 25 22 22 22 22 22 21 21 20 19 19 19 18 17 17 17 17 17 17 17 18 18 18 18 17 16 16 15 15 15 15 15 15 15 15
19 17 18 18 18 19 22 20 22 22 20 25 24 26 25 22 23 22 22 21 21 20 20 20 19 19 18 18 17 17 17 17 17 17 17 17 17 17 16 16 16 15 15 15 15 15 15 14 15
16 17 18 18 18 20 22 20 22 22 22 22 23 25 26 22 22 21 21 20 20 20 20 19 19 18 18 18 18 17 17 17 17 17 17 17 17 17 16 16 16 15 15 16 16 15 15 15 14
16 17 17 19 19 20 21 20 21 22 21 22 23 23 22 21 21 20 19 19 19 19 19 19 19 18 18 18 17 17 17 17 17 17 17 17 17 16 16 16 16 16 15 15 15 15 15 15 14
17 16 18 19 19 21 20 20 21 21 20 22 24 23 22 21 19 18 18 18 19 19 19 19 19 18 18 18 17 17 17 17 17 17 17 17 17 16 16 16 16 15 15 15 15 15 15 15 14
17 17 18 20 20 20 20 19 21 22 21 22 23 23 21 20 18 18 19 19 20 20 20 20 20 19 18 18 18 17 17 17 17 17 17 16 16 16 16 16 16 15 15 15 15 15 15 14 14
19 18 19 20 21 21 20 20 20 20 21 21 21 20 20 19 17 17 18 18 19 20 20 20 20 19 19 18 18 18 18 18 17 17 17 17 17 17 16 16 16 16 16 16 15 15 15 15 15
18 19 20 19 19 18 19 18 19 20 20 20 19 19 19 18 17 18 19 20 20 20 21 21 21 20 19 19 19 18 19 18 19 18 18 18 17 17 17 17 16 16 16 16 16 16 16 16 16
18 19 19 19 19 19 20 19 20 20 21 20 20 19 19 18 18 19 20 20 20 21 21 21 21 20 20 20 19 19 19 19 19 19 18 18 18 18 18 17 17 17 17 17 16 16 16 16 16
20 20 19 19 20 19 18 20 19 20 20 20 18 16 18 18 18 17 18 18 19 20 20 20 21 21 20 20 20 20 19 19 19 19 19 19 18 18 18 17 17 17 17 17 17 16 16 16 15
19 19 18 20 20 20 20 21 20 19 20 20 18 16 16 15 14 16 17 18 19 19 20 22 21 21 21 21 21 20 20 20 19 19 19 19 18 18 18 18 18 18 17 17 16 16 16 15 15
18 17 17 18 19 19 19 18 20 20 20 20 18 17 16 15 14 15 16 17 18 19 19 21 20 20 20 20 20 20 20 20 20 19 19 18 18 18 18 17 18 17 17 16 16 15 14 14 14
16 18 18 17 20 19 18 17 20 19 21 20 18 17 15 14 13 14 16 16 17 18 19 19 20 20 19 19 19 18 18 18 18 18 18 18 17 17 17 17 17 16 16 15 15 15 14 13 14
17 18 18 18 18 19 17 16 18 19 19 19 16 16 15 14 14 14 15 17 17 18 18 19 19 19 19 17 17 17 17 18 17 17 16 16 16 16 16 15 15 15 15 15 14 14 13 13 13
19 18 17 17 18 18 17 17 18 17 19 18 15 15 16 14 13 13 14 16 16 16 17 18 18 19 18 17 17 17 17 16 16 16 16 16 16 15 15 15 15 15 14 14 14 13 13 13 13
18 17 18 17 17 18 17 17 18 19 19 16 15 15 15 14 13 12 12 14 15 15 16 17 17 17 18 18 17 17 17 16 16 15 15 15 15 15 15 15 15 14 14 14 13 13 12 13 13
16 17 18 18 17 17 18 16 16 18 18 16 14 14 14 13 14 13 13 13 14 15 16 16 16 16 16 17 17 16 14 13 13 14 14 14 14 14 14 14 13 13 13 13 12 12 12 12 13
18 18 18 18 17 16 17 16 16 17 17 16 14 13 13 12 12 12 12 13 14 15 15 15 15 15 15 15 15 15 14 13 13 13 14 13 13 13 13 13 13 12 12 12 11 11 11 11 11
18 18 17 14 15 15 16 17 16 17 17 17 15 13 13 12 12 12 13 13 14 14 14 15 15 14 14 14 14 13 13 12 12 12 12 11 11 11 11 11 11 10 10 10 10 10 10 10 10
18 18 17 16 16 16 16 15 17 18 17 17 16 13 12 12 11 11 11 12 13 13 13 14 14 12 13 13 12 12 11 11 10 10 9 9 9 9 9 9 9 9 9 9 9 9 9 9 9
17 16 15 17 15 16 15 16 18 18 14 15 16 14 12 11 11 11 11 11 12 12 12 13 13 12 12 11 11 11 11 10 9 9 9 8 8 8 8 8 8 8 8 7 7 7 7 8 8
16 17 17 16 15 15 16 16 18 17 15 14 14 13 12 11 11 11 10 11 11 11 11 11 11 11 10 10 10 10 10 9 9 8 8 8 8 7 7 7 6 6 6 6 6 6 6 7 7
16 16 17 15 18 17 16 16 18 19 18 15 13 13 12 11 11 10 10 10 10 10 10 10 10 10 10 10 9 9 8 8 8 8 7 6 6 6 5 5 5 5 5 5 5 5 5 6 6
17 16 15 15 14 16 16 17 16 17 16 15 13 13 12 12 11 10 9 9 9 10 10 9 9 9 9 8 8 8 8 7 6 6 6 5 5 5 4 4 4 4 4 4 4 4 4 4 4
16 16 16 16 16 13 13 16 17 14 13 14 13 13 12 12 11 9 8 8 8 8 8 8 8 8 7 7 7 6 6 6 6 5 4 4 4 4 4 4 3 3 3 3 3 3 3 3 3

GFSSGP_925_temp_015.txt.gz
Temp
23 24 24 22 23 21 22 24 23 25 26 26 24 25 27 27 28 29 22 22 22 21 21 20 19 19 19 19 19 18 17 17 17 17 18 18 18 18 17 17 17 17 17 17 16 17 18 18 18
23 24 23 18 22 22 23 22 24 25 26 24 24 25 26 28 24 24 22 22 22 21 21 20 19 19 19 20 20 19 17 17 17 17 18 18 17 18 18 17 17 17 17 16 16 16 17 17 17
23 23 20 19 18 22 23 23 24 24 23 23 26 25 26 27 24 23 23 22 21 21 20 20 19 19 19 19 20 19 17 17 17 17 17 17 18 17 17 17 17 16 16 16 15 15 16 16 16
23 21 19 21 21 22 22 23 23 23 25 23 25 27 25 24 24 23 23 22 21 21 20 20 19 19 19 19 19 18 17 17 17 17 17 17 18 18 18 17 17 16 15 15 15 15 15 15 15
21 18 20 20 20 21 21 22 22 22 23 24 25 27 26 23 22 23 22 21 21 21 20 20 20 19 19 19 18 18 17 17 17 17 18 17 18 19 18 17 16 15 15 15 15 15 15 15 15
20 18 20 20 20 20 21 21 21 22 22 24 25 25 26 22 22 22 22 21 21 21 20 20 20 19 19 19 18 18 17 17 17 17 18 18 17 17 17 17 16 15 15 15 15 15 15 15 15
20 19 20 19 20 20 21 21 22 22 22 24 24 25 26 23 21 21 21 20 20 20 20 20 20 19 19 18 18 17 17 17 17 17 17 17 17 17 17 16 16 15 15 16 16 16 16 15 15
18 19 18 18 20 21 22 21 22 22 24 23 23 26 26 23 21 21 20 19 19 19 20 20 19 19 18 18 18 18 17 17 17 17 17 17 17 17 17 16 16 15 15 15 16 16 16 16 16
17 19 19 20 19 22 21 21 21 22 22 22 23 23 24 22 21 20 19 19 18 18 19 19 19 19 18 18 18 18 17 17 17 17 17 17 16 17 16 16 16 16 15 15 15 15 15 16 15
18 18 19 20 19 21 21 20 21 22 22 23 24 23 23 22 20 19 19 19 18 18 19 19 19 19 19 18 18 17 17 17 16 16 17 16 16 16 16 16 16 16 16 15 15 15 15 15 15
17 19 18 20 20 20 20 20 21 21 22 22 24 24 22 21 20 19 19 18 19 20 19 20 20 19 19 18 18 18 17 17 17 17 17 17 17 16 16 16 16 16 16 16 16 16 16 15 15
18 18 19 20 21 20 20 20 20 21 23 23 22 21 20 22 22 20 19 19 20 20 21 21 20 20 19 19 18 18 18 17 17 17 17 17 17 17 16 16 16 16 16 16 16 16 16 16 16
18 19 19 19 19 19 19 19 20 21 21 22 20 20 20 21 21 19 18 19 20 20 21 20 20 20 19 19 19 19 18 18 18 18 18 17 17 17 17 17 17 17 17 17 16 16 16 16 15
18 19 20 19 20 19 20 21 19 23 21 21 20 20 19 19 20 19 18 18 19 19 20 20 20 20 20 19 19 19 19 19 19 19 18 18 17 17 17 17 17 17 17 17 16 16 15 14 14
18 19 19 19 20 20 19 20 19 22 20 21 21 19 18 17 16 16 16 17 18 19 20 21 21 20 20 20 20 19 19 19 19 19 18 18 17 17 17 17 17 17 17 16 16 16 15 15 14
19 19 18 19 20 20 21 21 22 19 19 20 20 18 17 16 15 14 16 17 18 18 19 21 21 20 19 20 20 19 19 18 18 18 17 17 17 17 17 17 17 17 16 16 16 15 14 14 14
18 17 17 19 19 20 19 20 20 20 20 21 20 18 17 16 16 14 15 16 17 18 19 20 20 19 18 18 18 18 17 17 17 17 17 17 17 17 16 16 16 16 15 15 14 14 13 13 13
18 17 17 18 19 18 19 19 20 19 19 20 20 17 16 16 15 13 15 16 16 17 18 18 19 19 18 18 18 17 17 16 16 16 16 16 16 15 15 15 15 14 14 13 13 12 13 13 13
17 17 19 18 18 18 18 18 20 20 19 19 17 17 16 16 14 13 14 16 17 18 18 18 18 17 17 17 17 16 14 14 15 15 15 15 15 15 15 14 14 14 13 13 12 12 13 13 13
17 18 17 18 18 18 18 19 20 19 19 19 17 16 16 15 15 13 13 14 15 16 16 17 17 17 17 17 16 15 14 14 14 14 14 14 15 14 14 14 14 14 13 12 12 12 12 12 13
17 17 17 18 17 17 17 19 19 19 18 16 16 16 15 16 15 14 13 12 14 14 15 16 16 17 17 16 16 16 15 15 14 13 13 13 13 13 13 13 13 13 12 11 11 10 11 11 12
17 17 18 18 18 18 18 19 18 20 18 16 15 15 15 15 14 14 13 13 13 13 15 15 16 16 16 16 16 15 12 11 10 11 12 12 12 12 12 12 11 11 10 9 9 10 9 9 10
17 17 18 18 17 16 17 18 19 16 18 17 15 14 14 14 14 13 13 12 12 13 14 14 14 14 14 14 14 13 12 11 12 12 12 12 11 11 11 10 10 10 9 8 8 8 8 8 8
17 17 17 16 17 17 17 19 19 19 19 16 15 14 14 14 13 13 12 12 12 12 13 13 13 12 13 13 13 12 12 11 11 10 9 8 8 8 8 9 8 7 7 7 7 7 7 7 7
17 18 15 16 17 17 15 16 19 18 18 18 17 15 14 13 13 13 12 11 11 12 12 12 12 11 12 11 11 11 10 10 9 8 8 8 7 7 7 7 7 6 6 6 6 6 6 6 6
16 17 17 18 17 17 14 17 20 18 16 15 16 15 13 13 13 13 12 11 10 11 11 11 11 10 10 10 10 10 9 9 8 8 7 6 6 6 6 6 6 6 6 5 5 5 5 5 5
15 15 17 16 14 16 17 17 19 17 16 14 14 14 14 13 12 12 11 10 10 10 10 10 10 9 9 9 9 9 8 8 7 7 7 6 6 5 6 6 6 6 5 4 4 4 5 4 5
17 17 17 16 18 17 17 16 19 19 18 14 13 14 13 12 12 11 10 9 9 9 9 9 9 8 8 8 8 8 8 8 7 7 6 6 6 5 5 5 4 4 3 3 3 3 4 4 4
15 15 15 16 15 18 17 19 16 17 16 16 14 14 13 13 12 11 10 8 8 8 8 8 8 8 8 8 7 7 6 6 6 6 5 5 5 4 3 3 3 2 2 2 2 3 3 3 3
16 16 16 17 16 13 15 18 16 14 13 13 14 14 13 13 12 10 9 8 7 7 7 7 7 7 7 7 7 6 6 6 6 5 4 4 3 3 3 3 2 2 2 2 2 2 2 2 2

GFSSGP_925_temp_018.txt.gz
Temp
23 24 23 25 27 27 28 28 28 28 29 29 30 29 31 31 32 31 24 24 22 23 21 20 20 20 20 19 19 19 18 18 17 17 18 18 18 17 17 17 17 17 17 17 16 16 17 18 18
22 24 24 26 27 27 29 28 28 28 29 29 29 29 29 32 31 30 28 23 22 22 22 21 20 20 20 20 20 20 19 17 17 17 18 18 17 18 18 17 17 17 17 16 16 16 16 17 17
23 23 27 26 25 26 28 27 28 28 29 28 30 30 31 32 30 29 24 23 22 22 22 21 20 19 20 20 20 19 18 17 17 17 17 17 17 18 17 17 17 17 16 16 16 16 16 16 16
24 26 26 26 26 27 26 27 27 27 29 28 30 30 31 28 29 26 23 22 23 22 22 20 19 20 20 20 19 19 18 17 17 17 17 17 17 18 17 17 17 16 16 15 15 15 15 15 15
24 26 26 26 26 26 27 27 27 27 28 28 28 31 31 27 24 24 23 22 23 22 22 20 20 19 19 19 19 19 18 17 17 17 18 18 17 18 17 17 17 16 15 15 15 15 15 15 15
26 26 26 25 26 26 27 27 26 27 28 28 29 29 30 26 25 23 22 22 22 22 21 21 19 19 19 19 19 18 18 17 17 17 18 18 17 17 17 17 16 16 15 16 16 16 16 15 15
24 25 25 25 25 25 26 26 27 27 28 28 28 29 30 29 23 22 22 22 21 21 21 21 20 19 19 19 19 19 18 17 17 17 17 17 17 17 17 16 16 16 16 16 16 16 16 16 16
25 25 24 25 26 25 26 26 26 26 28 28 28 29 30 27 23 22 21 22 22 21 21 21 21 20 20 20 19 18 18 17 17 17 17 17 17 17 17 17 17 16 16 16 16 16 16 16 16
23 24 24 25 25 26 26 25 26 26 26 27 28 28 28 25 23 23 22 22 22 21 21 21 21 21 21 21 20 18 18 18 17 17 17 17 18 18 17 17 17 16 16 16 16 16 16 16 16
23 24 24 25 26 26 25 25 25 25 27 27 28 29 28 26 26 26 25 25 23 23 22 21 20 21 20 20 20 19 20 19 19 19 19 19 19 18 17 16 16 16 16 16 16 16 16 16 17
23 23 25 24 25 25 24 25 25 25 26 27 27 28 29 27 27 27 26 25 25 24 23 21 21 21 21 20 20 20 20 19 19 19 18 18 18 18 17 17 17 17 17 16 17 17 17 17 17
22 24 24 24 24 24 24 25 25 25 26 28 28 28 26 27 28 27 27 26 25 23 23 22 21 21 20 20 20 20 20 19 19 19 18 18 18 18 18 18 17 17 17 17 17 17 17 17 17
22 24 24 24 23 23 24 24 25 25 27 28 27 26 26 27 27 26 25 24 24 23 23 22 21 21 21 20 20 20 20 19 19 19 18 18 18 18 18 18 18 18 17 17 17 17 17 17 18
23 23 23 24 24 24 23 25 23 26 28 28 27 26 26 25 24 24 23 24 23 22 22 21 21 21 21 21 20 20 20 20 19 19 18 18 18 18 18 17 18 17 17 17 17 17 17 17 18
23 22 23 23 23 24 23 24 25 26 26 25 26 26 24 22 22 22 20 21 20 21 20 21 20 21 20 21 20 20 19 18 19 18 18 17 17 17 17 17 17 18 17 17 17 17 17 17 17
21 21 21 24 24 24 23 23 26 26 26 26 25 25 23 21 21 20 19 19 19 19 20 19 18 19 20 20 20 19 19 18 18 18 17 17 17 17 17 17 17 17 17 17 17 17 17 17 17
20 20 21 23 24 24 23 24 26 25 25 26 27 25 23 22 21 19 18 18 19 19 19 19 18 19 18 18 18 18 17 18 17 17 17 17 16 16 16 16 16 16 16 16 16 16 16 16 16
20 20 23 22 24 22 23 23 25 26 25 26 26 25 23 22 21 19 18 18 18 18 18 18 18 18 18 18 18 18 17 17 16 16 16 16 16 15 16 16 16 16 16 16 16 16 16 16 16
22 22 22 23 24 22 23 24 25 26 26 26 25 24 23 22 19 18 18 18 18 18 18 18 18 18 19 19 19 18 17 16 15 15 15 15 14 14 15 15 15 15 15 15 15 15 15 16 16
22 22 22 23 22 22 23 24 25 26 26 26 26 24 23 21 20 19 18 18 18 18 18 17 17 17 17 17 17 17 16 15 14 14 13 14 13 13 13 13 13 13 14 14 13 13 13 14 14
21 21 22 22 21 22 22 24 26 24 23 22 23 24 23 21 20 20 19 17 17 17 16 16 16 16 16 16 16 16 15 15 15 14 13 12 12 12 12 12 12 12 12 12 12 12 12 12 12
20 22 22 21 21 22 22 23 25 26 25 22 22 22 22 21 20 20 19 17 16 15 15 15 15 15 15 16 16 16 15 14 13 13 13 12 11 11 11 11 11 11 11 11 11 11 11 11 12
21 21 21 21 20 19 22 22 26 23 25 23 22 21 21 20 20 19 18 16 15 14 14 14 14 14 14 14 14 14 14 13 13 12 12 12 11 10 9 9 9 9 10 9 9 9 10 10 10
20 20 20 20 20 21 23 23 26 26 25 23 22 21 20 20 19 18 16 15 14 13 14 13 13 13 13 13 13 12 12 12 12 11 12 11 11 10 9 9 9 9 8 8 8 8 8 8 8
21 21 17 17 18 22 20 21 26 25 23 23 22 21 20 19 18 17 17 16 15 14 13 13 13 12 12 12 11 11 11 11 11 11 10 10 10 9 8 8 8 8 7 7 7 7 7 7 7
19 21 21 21 21 22 18 22 25 23 22 21 23 22 20 19 19 18 17 16 14 13 13 13 12 11 11 11 10 10 10 10 10 9 9 9 8 8 7 7 7 7 7 7 7 6 6 7 7
16 19 21 21 19 22 23 24 24 22 21 20 21 21 19 19 18 18 16 15 14 13 12 12 11 10 10 10 10 9 9 9 8 8 8 7 7 6 6 6 6 6 6 6 6 6 6 6 6
18 20 18 20 21 21 23 23 25 24 23 20 20 20 20 19 18 17 16 14 13 12 11 11 11 10 9 9 9 8 8 8 7 7 7 6 6 6 6 6 5 6 5 5 5 5 5 5 5
17 15 16 20 21 23 23 24 24 23 22 21 21 21 20 18 18 17 16 14 12 11 11 10 10 9 9 8 8 8 7 7 7 6 6 5 5 5 5 5 5 5 5 5 5 5 5 4 5
20 19 20 20 20 20 22 24 22 21 20 19 21 20 20 19 18 16 15 13 12 11 10 10 9 9 8 8 7 7 6 6 6 6 5 5 5 4 4 4 4 4 4 4 4 4 4 4 4

GFSSGP_925_temp_021.txt.gz
Temp
24 25 25 26 27 29 29 31 31 30 30 31 31 31 32 32 33 31 27 27 26 25 24 20 20 20 19 19 19 19 19 18 18 18 18 18 18 18 18 18 17 17 17 17 16 16 17 17 17
23 25 27 27 26 28 30 32 30 31 31 31 31 31 31 33 33 31 30 26 25 25 24 22 20 20 20 20 20 19 19 18 18 17 18 18 18 17 17 17 17 17 16 16 16 16 16 16 16
24 26 28 28 28 27 29 30 31 30 31 30 31 32 33 32 32 31 27 25 25 25 24 23 21 20 20 20 20 19 19 18 17 17 17 17 17 17 18 18 17 17 16 16 16 16 16 16 16
25 28 29 27 28 29 29 29 29 29 31 31 31 31 33 30 31 28 26 26 26 25 25 21 21 20 20 20 19 19 19 17 17 17 17 17 17 17 17 17 17 17 16 15 15 15 15 16 15
26 28 27 27 28 29 30 30 29 28 29 30 30 31 32 29 27 27 26 26 26 25 25 21 20 20 20 20 19 19 18 18 17 17 18 18 17 17 17 17 17 17 16 15 15 15 15 15 15
26 27 26 27 29 29 29 30 29 29 30 30 30 30 30 28 28 26 26 26 26 25 24 22 20 20 19 19 19 19 18 18 17 17 18 18 18 17 17 17 17 16 16 16 16 16 16 16 16
25 26 26 27 28 28 29 29 29 29 29 31 30 30 31 29 26 25 26 26 25 25 24 23 21 20 20 19 19 19 19 18 17 17 18 17 17 17 17 17 17 16 16 17 16 16 16 16 16
26 26 25 27 27 27 29 28 29 28 29 30 30 30 31 29 26 25 25 25 25 24 24 24 23 21 21 20 19 19 19 18 18 17 17 17 17 18 18 17 17 17 17 16 16 16 16 16 16
25 25 25 26 27 28 29 27 29 29 28 29 30 30 30 28 27 26 26 25 25 25 24 24 24 23 23 23 21 19 19 18 18 17 18 17 18 19 19 18 18 17 17 17 16 16 16 16 17
24 24 25 28 28 28 28 27 27 27 28 29 30 31 30 30 29 29 29 28 26 26 24 24 24 23 23 23 22 20 21 19 19 19 20 19 20 20 19 18 17 17 17 17 17 17 17 16 16
24 23 26 27 28 27 27 27 28 27 26 28 29 30 30 30 29 30 30 29 29 27 26 24 24 24 23 23 22 22 22 22 21 21 21 21 20 20 20 19 19 18 18 17 18 18 18 18 19
23 25 26 27 27 25 25 27 26 27 27 29 29 29 29 29 30 30 30 29 29 28 26 25 24 24 24 23 22 23 22 22 22 21 21 20 20 20 20 20 20 19 19 19 19 19 19 19 19
23 25 26 26 26 25 26 25 25 26 28 29 29 29 29 29 29 29 29 28 28 27 26 25 24 24 24 23 23 23 23 22 22 21 21 20 20 20 20 20 20 19 19 19 19 19 19 19 19
23 25 25 26 26 26 25 25 26 27 28 29 29 29 29 29 28 27 27 27 27 26 25 25 24 24 24 24 23 23 22 22 21 21 20 20 19 19 19 19 19 19 19 19 19 19 19 19 19
22 22 24 25 25 25 26 24 25 27 28 28 28 29 29 27 25 26 24 24 24 24 24 23 23 23 23 24 23 22 22 21 21 21 20 19 19 19 19 19 19 19 19 19 19 18 18 18 18
22 21 20 24 25 26 25 23 27 29 28 28 28 28 27 25 25 24 23 23 22 22 23 22 21 21 22 23 23 22 22 21 20 20 20 19 19 19 18 18 19 18 18 18 17 17 18 18 18
20 20 20 22 26 26 25 24 27 28 27 27 28 29 27 25 24 23 22 22 22 22 22 21 21 21 21 21 21 21 20 20 19 19 19 18 18 17 18 17 17 17 17 18 17 17 17 17 18
19 21 21 22 25 25 24 24 26 27 28 28 28 29 27 26 24 22 21 21 21 21 21 21 20 20 20 20 20 20 19 18 18 17 17 17 17 16 17 17 17 17 17 17 16 16 16 16 17
22 22 22 25 26 26 25 25 26 27 27 28 28 29 27 26 23 22 21 21 21 21 21 21 21 21 21 21 20 19 18 17 16 16 16 16 15 15 15 15 15 15 15 15 15 15 14 15 15
20 22 23 25 26 24 24 25 26 27 27 28 29 28 27 24 23 22 21 21 21 20 20 20 20 20 20 19 19 18 17 16 15 15 15 15 14 14 14 14 14 14 14 14 13 13 13 13 13
19 21 23 24 25 24 24 24 25 26 27 28 28 29 27 24 23 22 21 20 20 19 19 18 18 18 18 17 17 17 16 16 16 15 14 14 13 13 12 12 12 12 12 12 12 12 12 12 12
19 23 23 24 22 22 24 24 27 28 26 25 26 27 26 24 23 22 21 19 18 18 18 18 18 18 18 18 18 18 17 16 15 15 14 14 12 12 11 11 11 11 11 11 10 11 11 11 11
21 23 23 23 23 22 22 22 26 28 27 26 26 26 25 23 23 21 20 19 17 17 16 16 16 16 16 17 16 16 15 15 14 14 14 13 13 12 10 10 10 10 10 9 9 9 9 10 10
21 22 22 22 22 19 23 24 26 27 27 27 26 25 24 23 22 20 18 17 16 16 16 16 15 15 15 15 15 15 14 14 14 13 13 13 12 11 10 9 9 9 9 8 8 8 8 8 8
20 19 17 18 19 22 25 25 27 26 25 26 25 24 23 22 21 19 18 18 16 16 15 15 15 14 14 14 14 13 13 13 12 12 12 12 11 10 9 9 9 9 8 8 8 7 7 7 7
18 19 21 20 21 23 23 22 26 26 25 25 25 24 23 21 21 19 19 18 16 16 15 15 14 14 13 13 12 12 12 11 11 11 10 10 9 9 8 8 8 8 8 8 7 7 7 7 7
18 21 22 23 24 25 24 25 25 25 23 23 25 23 22 21 20 20 19 18 16 16 15 14 13 13 12 12 12 11 11 10 10 10 9 9 8 8 8 7 7 7 7 7 7 7 7 7 7
20 23 21 22 22 23 25 26 25 25 25 23 23 23 22 21 21 20 19 17 16 15 14 14 13 12 12 11 11 10 10 9 9 9 8 8 8 7 7 7 7 7 7 6 6 6 6 6 6
18 20 21 23 24 25 25 26 27 25 24 24 23 23 22 21 20 19 19 17 15 14 13 13 12 11 11 11 10 10 9 9 9 8 8 7 7 7 6 6 6 6 6 6 5 5 5 5 5
19 20 22 22 22 24 24 24 25 24 23 23 24 23 22 21 20 19 18 16 15 14 13 13 12 11 10 10 9 9 8 8 8 7 7 6 6 6 6 5 5 5 5 5 4 4 4 4 4

GFSSGP_925_temp_024.txt.gz
Temp
24 24 26 26 23 24 25 27 30 30 30 30 29 29 28 29 30 26 27 26 26 24 21 20 20 20 20 20 20 20 19 18 18 17 18 18 18 18 18 18 18 18 17 16 16 16 16 16 16
24 25 26 24 23 24 25 28 29 30 29 29 29 29 30 31 29 26 26 26 26 25 22 20 20 20 20 20 20 20 19 18 18 17 18 18 18 18 17 17 17 17 16 16 16 16 16 16 16
24 26 23 24 24 24 25 28 27 28 29 30 30 32 31 28 28 27 26 25 26 25 23 21 21 20 20 20 20 20 18 18 17 17 17 17 17 18 18 17 17 17 17 16 15 15 16 16 16
25 25 24 23 24 26 29 28 28 28 28 31 30 28 28 28 28 27 26 26 26 25 24 22 21 20 20 20 20 20 18 18 17 17 18 17 17 18 18 17 17 17 16 16 15 15 16 16 17
25 23 23 23 25 27 29 30 28 28 28 29 29 28 27 28 27 27 26 26 26 25 23 22 21 20 20 19 20 19 19 18 17 18 18 17 17 17 17 17 17 17 16 16 15 16 16 16 16
23 24 22 23 25 28 29 29 29 28 28 29 29 27 26 27 26 26 26 26 26 25 23 22 21 20 20 19 19 19 19 18 18 18 17 17 18 17 17 17 17 17 16 16 16 16 16 16 15
22 22 23 23 25 26 29 28 28 27 27 28 29 28 26 25 26 26 26 26 26 25 24 22 21 20 20 19 19 19 19 18 18 18 18 17 17 17 17 17 17 17 17 16 16 16 16 16 16
23 23 23 23 24 25 28 28 29 28 27 28 30 27 26 26 26 26 26 26 25 25 24 23 21 21 20 19 19 19 19 19 18 18 18 18 17 18 18 18 17 17 17 17 17 17 16 16 16
24 21 22 23 24 25 27 27 28 28 27 27 28 28 27 28 27 26 26 26 26 25 24 24 23 22 21 21 21 20 19 19 18 18 18 18 18 19 19 18 18 18 17 17 17 17 17 17 17
22 20 22 25 26 26 27 27 27 27 26 26 27 28 30 29 29 28 27 25 26 25 25 24 24 23 23 23 21 20 19 19 19 19 19 19 20 20 19 18 18 18 18 18 18 18 18 17 18
22 21 23 25 26 27 27 25 27 25 25 26 26 26 27 28 28 28 28 29 27 26 25 24 24 24 23 23 22 21 21 20 20 20 20 20 20 20 20 19 19 19 18 18 18 18 18 18 18
21 23 24 24 25 26 25 25 24 25 25 26 26 27 26 26 27 27 28 29 29 27 26 25 25 24 24 23 22 22 22 22 22 21 21 21 20 20 20 20 20 19 19 19 19 19 19 19 19
21 23 24 25 25 25 25 24 24 24 25 26 26 26 26 26 26 28 29 28 28 28 27 26 25 25 24 24 23 22 23 22 22 21 21 20 20 20 20 20 19 19 19 19 19 19 19 19 19
22 22 23 24 25 25 24 24 24 24 25 25 26 25 26 26 27 26 26 27 27 27 26 25 25 24 24 24 23 23 23 22 21 21 20 20 19 19 19 19 19 19 19 19 19 19 18 18 18
21 20 22 22 24 24 24 23 23 24 25 25 25 25 25 26 25 25 24 24 24 24 24 24 24 24 24 24 23 23 22 22 21 20 20 19 19 19 18 18 18 18 18 18 18 18 18 18 18
19 19 18 22 22 24 23 21 24 25 25 25 25 26 25 24 25 24 23 23 23 23 23 22 22 22 23 23 23 22 22 21 21 20 19 19 19 18 18 18 17 17 17 17 17 17 17 17 17
17 17 18 20 23 23 23 22 24 25 25 24 25 25 24 22 23 23 22 22 23 23 22 21 21 21 22 22 22 21 20 20 19 19 18 18 17 17 17 17 17 17 17 16 16 16 15 15 15
16 17 19 19 22 22 22 23 23 25 25 24 24 25 23 22 22 22 22 22 22 22 21 20 20 21 21 20 20 19 18 17 17 17 16 16 16 16 16 16 15 15 15 15 14 14 14 13 13
18 18 19 21 23 22 22 23 24 24 24 23 24 24 23 21 20 22 21 21 21 21 21 20 20 20 20 20 19 17 16 16 16 15 15 15 15 14 15 14 14 13 13 13 13 12 12 12 12
16 17 18 21 23 23 22 24 24 24 24 24 24 24 23 20 19 20 21 21 20 20 20 20 20 20 20 19 18 17 16 15 15 14 14 14 14 13 13 13 12 12 12 12 11 11 11 11 11
16 16 17 16 22 24 22 21 22 24 24 24 24 24 22 20 19 19 18 19 19 19 19 18 18 18 18 17 17 16 16 15 15 14 13 13 13 12 12 12 11 11 11 10 10 10 10 10 10
15 17 18 17 21 19 21 18 21 23 24 24 23 23 21 20 19 18 17 18 18 18 18 18 18 18 17 17 17 16 15 15 14 14 14 13 12 12 11 10 10 10 10 9 9 9 9 9 9
16 17 16 17 18 19 20 20 21 23 24 24 22 22 21 20 19 17 16 17 17 17 17 17 17 17 17 17 16 15 15 14 14 14 13 13 12 11 10 10 9 9 9 8 8 8 8 8 7
15 16 15 16 18 18 20 20 21 23 24 23 22 21 21 20 18 16 17 17 16 16 16 15 15 15 15 15 15 15 14 14 13 13 12 12 11 10 9 9 9 8 8 8 8 8 7 7 7
14 14 14 16 17 18 21 20 22 24 24 24 22 20 20 19 17 16 14 14 15 15 15 15 14 14 14 13 13 13 12 12 12 11 11 10 10 9 8 8 8 8 8 7 7 7 7 7 7
14 12 16 17 17 19 22 20 22 23 23 23 22 20 19 18 17 15 14 15 15 15 15 14 14 13 13 12 12 12 11 11 10 10 10 9 9 8 8 7 7 7 7 7 7 7 6 6 6
13 12 15 21 22 20 20 23 23 21 21 22 20 20 19 18 16 16 15 15 15 15 15 14 13 12 12 12 11 11 10 10 10 9 9 8 8 8 7 7 7 7 6 6 6 6 6 6 5
15 16 18 18 20 20 20 21 21 20 20 21 20 19 19 18 17 16 15 15 15 15 14 13 12 12 12 11 11 10 9 9 9 8 8 7 7 7 7 6 6 6 6 5 5 5 5 4 5
14 17 19 20 21 20 19 21 21 21 21 20 20 20 19 18 17 16 15 15 15 14 14 13 12 11 11 10 10 9 9 9 8 8 7 7 7 6 6 6 5 5 5 5 4 4 4 4 4
18 19 19 20 19 20 20 20 22 20 21 20 20 20 19 18 17 16 15 14 14 13 13 12 11 11 10 10 9 8 8 8 8 7 6 6 6 5 5 5 5 4 4 4 4 3 3 3 2

GFSSGP_925_temp_027.txt.gz
Temp
24 25 25 24 21 20 22 24 27 27 28 27 28 28 27 27 27 25 25 25 24 22 21 20 20 20 20 20 20 20 19 18 17 18 18 18 18 17 17 17 17 17 17 16 16 16 16 16 16
24 24 25 20 20 20 21 25 25 25 27 28 28 28 27 27 26 23 25 24 24 23 21 20 20 21 20 20 19 20 19 18 17 17 18 18 18 18 17 17 17 17 16 16 16 16 16 16 16
24 24 20 20 20 21 22 26 25 27 27 28 28 28 27 26 25 25 26 25 24 23 22 20 20 21 20 20 20 20 19 18 17 17 17 18 18 18 18 17 17 17 17 16 16 16 16 16 16
23 21 19 21 21 23 24 25 26 27 27 27 28 27 25 26 26 26 25 25 24 23 22 21 21 20 20 20 19 20 19 18 17 17 18 17 18 18 18 17 17 17 17 16 16 16 16 17 17
23 18 19 20 21 22 24 27 27 27 27 28 28 27 25 25 26 26 26 25 25 23 22 21 21 20 20 19 19 19 18 18 18 17 17 17 18 17 17 18 17 17 16 16 16 15 16 16 16
19 18 18 19 20 23 24 27 27 27 26 26 27 26 24 25 26 26 26 25 25 23 22 21 20 20 20 19 19 19 18 18 18 17 17 18 18 18 17 17 17 17 16 16 15 16 15 15 16
19 18 18 20 20 22 25 26 26 26 25 26 25 26 24 24 25 26 26 25 24 24 23 22 20 20 20 19 19 19 18 18 18 18 17 17 17 17 17 17 17 17 16 16 16 15 15 15 15
18 18 19 19 20 21 25 27 27 26 26 26 27 25 24 24 25 26 25 25 24 24 23 22 21 20 20 20 19 19 19 18 18 18 18 18 18 18 18 18 18 17 17 17 17 17 16 16 17
20 17 18 19 20 22 24 26 27 26 26 26 26 26 26 26 25 25 25 25 25 24 23 23 22 21 21 20 20 19 19 19 18 18 18 18 18 19 18 18 17 17 18 18 18 18 18 17 18
17 16 19 21 21 22 24 24 26 26 25 25 24 25 26 25 24 23 23 24 24 24 24 23 23 22 22 21 20 20 19 19 19 19 19 19 19 19 18 18 18 18 18 18 18 18 18 18 18
19 18 20 22 23 23 23 24 25 24 24 24 24 24 25 26 25 26 26 24 25 25 24 24 23 23 22 20 20 20 20 20 20 20 20 19 19 19 19 19 19 19 19 19 18 18 18 18 18
17 19 20 21 22 22 23 24 24 23 23 24 23 23 24 24 24 25 26 27 26 25 25 24 24 23 23 22 22 22 21 20 20 20 20 19 20 20 20 19 19 19 19 19 19 18 18 18 19
17 19 21 22 22 22 22 22 22 23 23 23 23 23 23 22 23 26 27 27 27 25 25 25 24 24 23 23 22 22 21 21 21 21 20 20 20 19 19 19 19 19 19 19 19 18 18 18 18
18 19 20 20 21 22 22 22 22 22 23 22 22 22 22 22 23 24 25 25 25 26 25 25 24 24 24 23 23 22 22 22 21 21 20 20 19 19 19 19 19 18 18 18 18 17 17 17 17
17 18 19 19 20 21 21 21 21 21 22 22 23 21 23 23 23 23 23 23 24 24 24 24 24 24 24 23 23 22 22 22 21 21 20 19 19 18 18 18 18 17 17 17 17 17 17 17 17
16 16 16 19 19 21 21 20 21 22 21 21 21 20 20 21 21 22 23 23 23 23 23 23 23 23 23 23 23 22 22 21 20 19 19 18 18 18 17 17 17 16 16 17 17 16 16 15 15
13 14 15 17 20 20 20 20 22 21 22 22 20 20 20 20 19 21 22 22 22 22 22 22 22 22 22 22 21 21 20 19 19 18 18 18 17 16 17 16 16 16 16 15 15 14 14 13 13
14 14 15 15 19 19 19 19 20 21 21 22 20 20 19 19 18 20 21 21 22 21 21 21 21 21 20 20 19 19 18 18 18 17 17 16 16 16 16 15 15 15 14 14 13 13 13 12 11
14 14 14 17 19 19 20 20 21 21 21 19 20 19 18 18 17 20 20 21 20 20 20 20 20 20 20 19 18 17 16 16 16 16 15 15 15 15 15 14 14 13 13 12 12 11 11 11 10
14 13 14 16 18 19 19 20 21 22 21 22 20 20 17 16 16 17 19 19 19 19 19 19 19 19 19 18 17 16 15 15 15 14 14 14 14 14 14 13 12 12 12 11 10 10 9 10 9
14 13 14 15 17 17 18 19 20 21 22 21 21 21 19 18 17 15 15 17 18 17 18 18 18 18 18 17 16 15 15 14 14 13 13 13 13 13 12 12 11 11 10 10 9 9 8 8 8
14 15 16 16 16 16 19 17 18 20 21 20 19 18 19 17 17 16 14 15 17 17 17 17 18 17 17 17 16 15 14 14 13 13 12 12 12 11 11 10 10 9 9 9 8 8 8 7 7
13 16 15 15 15 16 17 17 18 20 20 22 22 17 18 17 17 15 14 15 16 17 16 16 17 17 16 16 15 15 14 14 13 13 12 11 11 11 10 9 9 8 8 8 8 7 7 7 7
15 14 14 15 15 15 16 16 17 19 21 21 21 17 17 17 15 14 14 15 15 15 16 16 16 15 15 15 15 14 14 13 13 12 12 11 10 9 9 8 8 8 8 7 7 7 7 6 6
13 12 12 12 13 15 16 17 18 21 20 22 19 18 17 16 15 14 13 13 13 14 14 14 14 14 14 14 14 13 13 12 12 11 10 10 9 8 8 8 7 7 7 7 7 6 6 6 6
11 12 12 13 16 16 17 15 19 22 20 20 19 18 17 15 14 13 13 12 13 14 14 14 13 13 13 13 12 12 12 11 10 10 9 9 8 8 7 7 7 7 6 6 6 6 5 5 5
12 11 14 13 13 16 17 18 20 19 18 18 18 17 16 14 14 13 12 12 13 13 13 13 12 12 12 12 11 11 10 10 9 9 9 8 8 7 7 7 6 6 6 5 5 5 4 4 4
14 15 12 12 14 16 17 18 18 18 18 18 18 17 15 14 14 13 13 12 13 13 13 13 12 12 11 11 10 10 9 9 9 8 8 7 7 7 6 6 6 5 5 4 4 4 4 3 3
12 13 13 14 15 15 16 18 18 18 19 18 18 17 15 15 14 13 13 13 13 13 12 12 12 11 10 10 10 9 9 8 8 8 7 7 6 6 6 5 5 5 4 4 3 3 3 3 2
15 15 14 13 14 15 16 18 19 18 18 18 17 17 15 15 14 13 12 12 11 11 12 11 11 10 10 9 9 8 8 8 8 7 6 6 6 5 5 5 4 4 4 3 3 3 3 2 2

GFSSGP_925_temp_030.txt.gz
Temp
23 24 24 23 21 19 20 23 24 25 26 26 27 27 27 26 26 25 24 24 23 22 20 20 20 20 20 19 20 19 19 18 17 17 17 17 17 17 17 17 17 17 17 16 16 16 16 16 17
23 23 23 17 20 20 21 23 25 26 26 24 26 26 26 25 24 23 22 23 24 22 20 20 20 20 20 19 19 19 19 17 17 17 18 18 18 18 17 17 17 17 17 16 16 16 16 17 17
23 22 19 18 17 19 21 24 24 26 26 26 27 25 25 25 23 23 24 23 23 22 20 20 20 20 20 20 18 19 19 18 17 17 17 18 18 18 17 17 17 17 17 16 15 15 16 16 16
22 20 17 19 20 20 23 23 24 26 27 26 27 25 24 25 25 26 24 23 23 22 21 21 21 20 20 19 19 18 19 18 17 17 17 18 17 17 18 17 17 17 16 16 15 15 15 16 16
21 16 18 19 19 20 22 23 23 25 26 26 25 25 24 25 25 25 24 23 23 22 21 21 21 20 19 19 19 18 18 18 17 17 17 17 17 18 17 18 18 17 16 16 16 15 15 15 16
18 16 17 17 19 21 21 23 24 26 25 25 26 24 23 24 25 25 25 24 23 23 21 21 20 20 19 19 19 18 18 18 17 17 17 17 17 18 17 17 17 17 17 16 15 15 15 15 16
17 16 17 18 19 20 22 24 24 25 24 26 25 24 23 23 25 25 25 24 23 22 21 20 20 19 19 19 19 19 18 18 18 17 17 17 18 18 17 17 17 17 17 16 16 16 16 15 16
17 16 17 17 19 20 22 24 26 25 25 26 26 23 23 22 25 25 25 24 23 22 22 21 20 19 19 19 19 19 19 18 18 18 18 18 18 18 17 17 17 17 17 17 17 17 17 17 17
18 16 16 18 19 20 22 24 24 25 25 25 25 24 24 26 24 24 23 22 22 22 22 22 21 20 20 20 19 19 19 18 18 18 18 18 18 18 18 18 18 18 18 17 18 17 17 17 18
16 15 17 19 20 20 22 23 22 24 24 24 25 24 24 24 23 23 22 22 21 21 22 23 22 21 20 20 19 19 19 19 18 18 19 18 18 18 18 18 18 18 18 18 18 18 18 18 18
16 17 18 20 21 20 20 22 23 23 23 23 24 24 24 23 22 22 22 23 24 23 22 22 22 22 21 20 20 19 19 19 19 19 19 19 18 18 19 19 18 18 18 18 18 18 18 18 18
15 18 19 19 20 20 20 22 21 22 22 24 23 22 23 22 21 22 22 23 24 24 24 23 22 22 21 21 21 20 20 20 20 19 19 19 19 19 18 18 18 18 18 18 18 18 18 18 18
15 16 18 19 19 20 20 19 20 21 22 21 21 22 22 21 21 24 24 25 26 24 24 23 23 22 22 21 21 20 20 20 20 20 19 19 19 19 19 18 18 18 18 18 17 17 17 17 17
16 16 17 18 18 19 19 20 20 21 21 20 22 21 21 21 21 22 24 25 25 26 25 24 23 23 22 22 22 22 21 21 20 20 20 19 19 19 18 18 17 17 17 17 17 17 17 16 16
16 15 16 17 18 18 19 19 19 20 20 20 21 21 20 21 22 22 24 23 24 24 24 24 24 23 23 22 22 22 21 21 20 19 19 19 18 18 18 18 17 17 17 17 17 16 16 16 16
15 14 14 18 18 18 19 18 20 20 19 20 19 19 18 19 21 22 22 23 23 23 23 23 23 23 23 22 22 21 20 19 19 19 18 18 18 18 17 17 16 16 16 16 16 16 15 14 14
13 12 14 16 18 18 18 19 20 20 19 19 18 18 18 18 19 20 21 22 22 23 22 22 22 22 22 21 20 20 19 19 18 18 18 17 18 17 17 16 15 15 16 15 14 14 13 12 12
14 13 13 14 16 17 17 18 19 19 19 19 21 21 17 17 17 19 21 21 21 21 21 21 21 21 20 20 19 18 18 17 17 17 17 17 16 16 16 15 15 15 15 14 13 12 12 11 10
13 12 12 14 16 16 17 18 19 19 18 17 18 17 17 17 17 18 20 20 20 20 20 20 20 18 19 18 17 17 16 16 16 16 16 16 15 15 15 14 14 13 13 11 11 11 10 10 9
12 12 12 14 15 17 16 16 18 19 20 19 20 18 17 16 15 15 17 18 19 18 19 18 17 17 17 18 17 16 16 15 15 15 15 14 14 14 14 13 12 12 11 10 10 9 9 8 8
12 12 12 12 14 15 16 16 17 19 20 20 21 21 17 17 16 14 14 16 17 17 18 18 17 17 18 17 16 15 15 14 14 13 13 13 13 13 12 12 11 10 10 9 8 8 7 7 7
12 13 14 14 14 12 16 16 17 18 19 19 21 18 17 17 16 14 13 13 15 16 18 17 17 17 17 17 16 15 13 12 13 12 12 12 11 11 11 10 10 9 9 8 8 7 7 7 6
12 14 14 15 15 14 14 14 16 18 19 19 20 19 18 16 16 14 13 14 15 16 16 16 17 16 16 16 16 15 14 13 12 11 11 11 10 10 10 9 9 8 8 7 7 7 6 6 5
14 13 13 13 14 13 14 14 16 17 18 19 20 17 16 16 15 13 13 13 13 15 15 16 16 15 15 15 15 14 13 12 11 11 11 10 10 9 9 8 8 7 7 7 6 6 6 5 5
13 11 11 12 12 12 15 14 16 17 18 20 21 17 16 15 13 12 12 11 11 12 14 14 15 14 14 14 14 13 13 12 12 11 10 10 9 8 8 7 7 7 6 6 6 5 5 4 4
11 12 12 11 9 13 15 15 16 18 20 20 18 17 16 14 14 13 12 11 11 11 13 13 13 13 13 13 13 13 12 12 11 11 10 9 8 7 7 7 6 6 6 5 5 5 4 4 4
11 11 13 11 12 12 14 15 17 18 17 16 16 15 15 14 13 12 11 11 11 11 11 12 12 12 12 12 12 11 11 11 10 9 9 8 7 7 7 6 6 6 5 5 4 4 4 3 3
13 13 11 11 9 12 15 15 18 17 16 15 15 15 14 13 12 12 12 11 10 11 12 12 12 11 11 11 11 10 10 10 9 9 8 7 7 7 6 6 5 5 4 4 3 3 3 3 2
10 10 12 12 12 13 15 16 19 20 17 15 15 14 13 13 12 12 11 11 10 11 11 11 11 11 10 10 10 9 9 9 8 8 7 7 6 6 6 5 5 4 4 3 3 3 3 2 2
11 12 12 12 12 14 12 14 17 17 17 17 16 14 14 13 12 11 11 10 9 9 10 10 10 10 10 9 9 9 8 8 7 7 6 6 6 5 5 4 4 4 3 3 3 2 2 2 1

GFSSGP_925_temp_033.txt.gz
Temp
22 23 23 22 20 18 20 22 23 24 26 26 24 25 26 25 26 25 22 23 23 22 20 20 20 20 20 20 19 19 18 17 17 17 17 17 17 17 17 17 17 17 16 16 16 16 16 16 16
22 23 22 16 19 19 20 22 24 24 25 24 24 25 25 25 23 22 22 22 22 22 20 20 20 20 20 19 18 18 18 17 17 17 17 18 18 17 17 17 17 16 16 16 16 16 16 16 16
22 22 19 17 16 18 20 23 22 23 24 26 26 24 24 24 23 22 24 23 21 21 20 20 20 20 20 19 18 18 18 17 17 17 17 18 18 17 17 17 16 16 16 16 15 15 16 15 16
21 19 16 18 19 19 21 22 23 22 25 26 25 25 24 24 24 25 24 23 22 21 21 20 20 20 20 19 19 18 17 17 17 17 17 17 18 17 17 17 17 16 16 16 15 15 16 16 16
20 15 17 18 18 19 20 22 23 23 24 25 25 25 24 24 24 24 23 22 22 21 21 20 20 20 20 19 18 18 17 17 17 17 17 17 17 18 18 17 17 16 16 16 16 15 15 15 15
17 15 16 17 18 20 20 21 23 23 24 25 25 23 23 24 24 23 23 23 23 22 21 20 20 20 19 19 19 18 18 17 17 17 17 17 18 18 17 17 17 16 16 16 15 15 15 15 16
17 15 16 17 18 19 20 22 23 23 23 25 23 23 23 22 25 23 23 23 23 22 21 21 20 20 19 19 19 18 18 17 17 17 17 17 18 18 17 17 17 17 16 16 16 16 16 15 15
15 15 17 16 18 19 22 24 24 22 23 25 23 23 24 23 25 23 23 23 22 22 21 21 20 20 19 19 19 19 18 18 18 17 17 17 17 17 17 17 17 17 17 16 16 17 17 17 16
16 15 15 17 17 20 21 23 23 24 24 24 24 22 23 24 24 23 21 20 21 21 21 21 20 19 19 19 19 19 18 18 18 18 18 17 17 17 17 17 17 17 17 17 17 17 17 17 17
15 15 17 18 18 19 21 21 21 23 22 24 24 23 22 22 23 22 21 20 20 20 20 20 20 20 19 19 19 19 18 18 18 18 18 18 18 18 18 18 18 17 17 17 17 17 17 17 17
15 17 18 19 19 19 19 20 21 22 21 22 23 23 22 22 21 21 21 21 22 22 20 21 21 20 20 19 19 19 18 18 18 18 18 18 18 18 18 18 18 18 17 18 17 17 17 17 17
15 16 17 18 19 19 19 20 20 20 21 21 21 22 23 22 20 20 21 23 22 22 22 22 21 21 20 19 20 19 19 18 18 18 18 18 18 18 18 18 18 18 18 17 17 17 18 18 17
14 15 17 17 17 18 18 18 18 19 19 20 20 20 20 20 20 22 23 24 24 23 23 22 22 21 21 20 20 20 20 19 19 19 18 18 18 18 18 17 17 17 17 17 17 17 17 17 16
15 15 15 16 17 17 17 18 18 19 19 19 19 19 20 19 19 22 21 23 24 25 24 23 22 22 21 21 20 20 20 20 19 19 19 19 18 17 17 17 17 17 17 16 16 16 16 16 16
14 14 14 15 16 16 19 18 18 18 18 18 19 18 19 20 21 20 23 24 25 25 24 23 23 22 21 21 21 21 20 19 18 18 18 18 17 17 17 17 17 17 16 16 16 15 15 15 15
14 13 13 16 16 16 18 17 19 19 19 18 18 17 17 18 19 21 23 23 24 23 24 24 22 22 22 21 21 19 18 18 19 18 18 17 17 17 17 17 17 16 15 15 15 15 15 14 14
12 12 12 14 17 17 16 17 19 19 18 17 17 17 17 17 17 21 22 21 22 22 22 22 21 22 21 20 19 19 18 18 18 17 17 17 17 17 17 16 15 15 15 15 14 13 13 12 12
12 13 13 13 16 15 16 16 17 17 17 17 17 16 17 17 18 20 20 21 21 21 21 21 20 21 20 19 18 18 17 17 16 17 16 16 16 16 16 15 15 14 14 14 13 12 11 10 10
11 11 11 12 14 13 13 14 15 16 16 18 16 16 17 16 17 18 19 19 19 20 20 20 20 19 19 18 16 16 15 15 15 15 15 16 15 15 15 14 14 13 13 11 11 10 10 9 8
11 11 11 12 14 14 14 14 15 16 16 17 18 18 17 16 16 15 17 17 18 19 19 19 19 18 17 17 16 16 14 14 14 14 14 15 15 14 14 13 12 12 11 10 9 9 8 8 7
11 10 12 12 13 13 13 14 16 17 17 17 18 19 19 17 15 14 13 15 17 17 17 17 17 16 16 17 16 15 14 13 12 13 13 13 13 13 12 12 11 10 9 9 8 7 7 6 7
11 12 12 12 12 11 14 13 15 16 17 17 18 18 18 16 16 15 12 13 15 16 16 16 16 16 16 16 16 15 13 11 12 12 12 12 12 11 11 10 10 9 8 8 7 7 6 6 5
12 13 12 12 11 11 12 11 13 16 17 18 16 18 16 15 15 14 13 13 15 16 15 16 15 16 16 16 16 15 13 13 12 11 11 11 11 10 10 9 8 8 7 7 7 6 6 5 5
13 12 12 11 12 11 13 12 14 15 16 16 17 17 16 16 15 14 12 13 12 14 15 15 15 15 15 16 15 15 14 12 11 11 11 10 10 9 8 8 8 7 7 6 6 5 5 4 4
12 10 11 11 12 12 13 13 14 15 16 17 17 16 16 14 13 11 11 11 11 12 13 14 14 13 14 15 14 14 13 12 12 11 10 9 9 8 8 7 7 6 6 5 5 5 4 4 3
11 11 11 11 12 12 14 13 14 16 17 18 19 16 14 14 13 13 12 11 11 11 12 12 13 12 13 14 13 13 12 12 11 11 10 9 9 8 7 7 6 6 5 5 4 4 4 3 3
10 10 12 11 11 12 12 13 14 17 17 15 15 15 13 13 13 13 11 11 10 10 11 12 12 12 12 12 12 12 11 11 10 9 9 8 7 7 6 6 5 5 4 4 4 3 3 3 2
11 11 10 10 10 11 11 13 16 16 18 19 15 14 13 13 12 11 11 10 9 10 11 11 12 11 11 11 11 11 10 10 9 9 8 7 7 6 6 5 5 4 4 3 3 3 3 2 2
10 10 11 11 10 10 10 14 15 17 18 16 13 13 12 12 11 11 10 9 9 9 10 10 11 10 10 10 10 10 9 9 8 8 7 7 6 5 5 5 4 4 3 3 3 2 2 1 1
12 11 11 11 9 11 11 13 16 13 14 14 13 13 12 11 11 10 9 9 8 8 8 9 9 10 10 9 9 9 8 8 8 7 6 6 5 5 4 4 4 3 3 2 2 1 1 1 1

GFSSGP_925_temp_036.txt.gz
Temp
22 23 23 21 19 17 19 21 22 23 24 25 24 25 25 25 25 24 22 22 23 22 21 21 21 21 20 20 19 18 18 17 17 17 17 17 17 17 17 17 17 17 16 16 16 16 16 17 16
21 23 22 15 18 18 19 20 23 24 24 22 23 24 25 25 23 22 21 22 22 22 20 20 20 20 19 19 19 18 18 17 17 17 17 17 17 17 17 17 17 16 16 16 16 16 16 16 16
21 21 19 17 15 17 19 21 22 22 22 24 25 23 23 24 23 22 23 22 21 21 20 20 20 20 20 19 19 18 17 17 17 17 17 18 18 17 17 17 16 16 16 16 16 16 16 16 16
21 18 15 18 18 18 20 22 22 21 23 24 24 25 23 24 23 24 24 22 22 20 20 20 20 20 19 20 19 17 17 17 17 17 17 18 17 17 17 17 17 16 16 16 15 16 16 16 17
19 15 17 17 17 19 19 20 22 21 22 24 24 25 24 23 23 23 23 23 22 20 20 20 20 20 19 19 18 18 17 17 17 17 17 17 17 17 17 16 16 16 16 16 15 16 15 15 15
16 14 15 16 18 19 19 20 21 22 22 22 24 22 23 23 23 23 23 23 22 21 20 20 20 20 19 19 18 18 17 17 17 17 17 17 18 18 17 17 17 16 16 16 15 15 15 15 15
16 15 16 16 16 18 20 20 21 22 22 23 23 24 23 23 23 23 23 22 22 21 21 20 20 20 19 19 19 18 18 17 17 17 17 17 18 18 18 17 17 16 16 15 15 15 15 15 15
14 15 16 15 18 18 21 22 23 22 23 23 22 22 24 23 23 23 21 21 21 21 21 20 20 20 19 19 19 18 18 18 18 17 17 17 17 18 17 17 17 16 16 16 15 16 16 16 16
15 15 15 16 16 18 20 21 22 22 22 23 23 22 23 23 22 22 21 20 20 20 20 20 20 19 19 19 19 18 18 18 18 17 17 17 17 17 17 17 17 17 16 16 16 16 16 16 17
15 15 16 17 17 19 20 20 20 21 20 22 23 23 21 21 21 20 20 19 20 20 20 20 20 19 19 18 18 18 18 18 18 17 17 17 17 17 17 17 17 17 17 17 17 17 17 17 17
15 16 17 18 18 18 18 19 20 21 20 20 22 21 21 21 20 20 20 20 21 21 20 20 20 20 19 18 18 18 18 18 18 17 17 17 17 17 17 17 17 17 17 17 17 17 17 17 17
15 15 16 17 18 18 18 18 17 19 19 21 20 20 20 21 19 19 20 21 22 21 21 21 20 20 19 19 19 19 18 18 18 18 17 17 17 17 17 17 17 17 17 17 17 17 17 17 16
14 14 16 16 16 16 17 16 16 17 18 18 18 19 18 18 19 21 22 22 22 22 23 22 21 20 20 19 19 19 19 19 19 18 18 18 18 17 17 17 17 17 17 17 16 16 17 16 16
14 14 14 15 16 15 16 16 17 17 17 17 17 18 18 17 18 20 21 23 23 24 24 23 22 21 20 20 20 20 19 19 18 18 18 18 18 18 17 17 16 16 16 16 16 16 15 15 15
14 13 13 14 15 15 16 16 16 18 17 17 17 17 18 18 19 19 22 23 24 25 24 24 23 21 21 20 20 20 19 19 18 18 18 18 17 18 17 16 16 16 15 15 15 15 14 15 14
13 13 12 14 14 15 16 16 17 18 18 17 16 16 17 18 19 20 21 22 24 23 24 23 22 21 20 20 20 20 18 18 18 18 17 17 17 17 16 16 15 15 15 15 15 14 14 13 13
13 11 11 13 15 16 14 15 18 17 16 15 15 15 16 17 17 20 22 23 23 22 22 22 21 20 19 20 19 18 18 18 18 17 17 16 16 16 16 17 15 15 15 14 14 13 12 12 12
11 10 12 12 14 13 13 13 15 16 16 16 15 14 15 15 17 19 21 22 21 21 21 21 20 19 19 18 17 17 17 17 17 17 16 16 16 16 16 15 15 14 14 13 13 12 11 9 10
11 10 10 11 13 12 12 13 14 14 14 13 15 16 15 15 17 18 20 20 20 20 20 20 19 18 18 17 16 15 15 15 15 16 15 15 15 15 15 15 14 13 13 11 11 10 10 9 9
10 11 12 13 12 12 13 13 14 14 15 15 15 16 16 16 15 15 17 17 18 19 19 19 18 17 17 16 16 15 14 13 14 14 14 14 14 14 14 13 12 12 11 10 9 9 8 7 6
10 10 11 11 12 12 11 13 15 16 16 16 16 16 17 17 16 14 13 16 17 17 18 18 17 16 16 16 15 14 13 12 12 12 12 12 13 13 13 12 11 10 10 9 8 7 7 6 6
11 11 11 11 10 10 11 12 15 15 15 15 16 15 16 16 15 14 13 13 15 16 17 17 16 15 15 15 15 15 13 11 10 11 11 11 12 12 11 11 10 9 8 8 7 6 6 6 4
11 12 11 11 10 10 11 10 12 14 14 15 13 13 15 15 16 14 13 15 15 15 15 15 15 14 14 14 14 14 11 11 11 10 10 11 10 10 10 9 9 8 8 7 6 6 5 5 4
12 11 11 11 11 11 12 11 14 15 15 15 14 14 15 15 14 14 14 13 13 14 14 14 14 13 14 14 14 14 13 11 10 10 10 9 9 9 8 8 8 7 7 6 6 5 5 4 4
10 10 10 10 11 11 12 11 13 14 15 14 14 14 13 13 12 11 11 11 10 11 12 13 13 12 13 13 13 13 13 12 11 10 10 9 8 8 7 7 7 6 6 5 5 5 4 4 3
10 11 9 9 10 11 12 11 14 14 16 16 17 15 14 13 11 11 11 11 11 10 12 12 12 12 13 13 13 13 12 12 11 10 10 9 8 7 7 6 6 6 5 5 4 4 4 3 3
10 10 11 10 11 10 13 11 13 15 15 15 13 14 13 12 10 11 11 11 10 10 10 11 11 11 12 12 12 11 11 11 10 9 9 8 7 7 6 6 5 5 4 4 4 3 3 3 2
11 12 10 10 10 10 10 10 12 14 15 16 17 16 13 11 10 10 10 9 10 9 10 11 11 11 11 11 11 11 10 10 9 9 8 7 6 6 6 5 5 4 4 3 3 3 2 2 1
10 10 10 11 11 9 9 12 13 14 14 14 13 15 11 11 11 10 9 8 8 8 9 9 9 10 10 10 10 9 9 9 8 8 7 6 6 5 5 5 4 4 3 3 2 2 2 1 1
12 10 11 10 9 9 8 13 15 12 13 13 12 11 10 10 10 9 8 8 8 7 7 8 8 9 9 9 9 8 8 8 7 7 6 6 5 5 4 4 4 3 3 2 2 1 1 1 0

GFSSGP_925_temp_039.txt.gz
Temp
21 22 23 22 23 21 22 23 22 24 25 25 24 25 26 25 27 27 21 21 22 22 21 20 21 21 20 20 19 19 18 18 17 17 17 17 17 17 17 17 17 17 16 16 16 16 16 16 16
21 22 22 19 22 22 23 21 23 24 25 23 23 24 26 27 24 23 23 21 22 21 21 20 21 21 20 20 19 19 18 18 17 17 17 17 17 17 17 17 17 16 16 16 16 16 16 17 18
21 22 21 21 19 21 22 22 24 23 22 23 25 24 25 26 23 23 23 22 22 21 20 20 20 20 20 20 19 18 18 17 17 17 17 18 18 17 17 17 16 16 16 16 16 16 16 16 17
20 19 18 21 21 20 21 22 22 22 24 24 24 25 24 23 23 23 23 22 21 21 20 20 20 20 20 19 19 18 17 17 17 17 17 17 18 18 17 17 17 16 16 16 15 16 16 16 16
19 18 19 19 20 20 20 21 22 23 23 24 24 26 25 23 23 23 22 21 22 20 20 19 20 20 19 19 19 18 17 17 17 17 17 18 17 17 17 17 17 16 16 16 15 16 15 15 16
18 17 18 20 20 19 20 21 22 22 23 23 24 24 25 22 22 22 22 22 22 22 20 19 20 19 19 19 19 18 17 17 17 17 17 17 18 18 18 17 17 16 16 16 15 15 15 15 15
18 17 18 18 18 20 21 21 22 22 22 24 23 25 24 23 23 22 21 21 21 21 20 19 19 19 19 19 19 18 18 17 17 17 17 17 18 18 18 18 17 16 16 16 15 15 15 15 15
16 18 16 17 20 20 21 21 22 22 24 23 23 25 25 23 22 22 21 20 20 20 20 19 19 19 18 18 19 18 18 18 17 17 17 17 17 17 17 17 16 16 16 16 15 15 15 16 16
15 17 17 18 17 20 20 21 22 21 22 22 23 23 22 21 21 20 19 19 20 20 20 19 19 19 19 19 18 18 18 18 17 17 17 17 17 17 17 17 17 16 16 16 16 16 16 16 17
16 16 17 17 18 19 19 20 20 22 21 22 23 23 21 20 19 20 20 20 19 19 20 20 19 19 19 19 18 18 18 17 17 17 17 17 17 17 17 17 17 17 17 17 17 16 17 17 17
15 16 17 17 18 18 18 18 20 20 20 21 22 22 21 21 20 20 20 20 20 20 20 20 18 19 19 18 18 18 18 18 17 17 17 17 17 17 17 17 17 17 17 17 17 17 17 17 17
15 15 15 17 18 18 18 18 18 18 20 20 21 20 20 21 21 21 21 21 21 21 21 21 20 19 19 19 18 18 18 18 17 17 17 17 17 17 17 17 17 17 17 17 17 16 16 17 16
14 14 15 16 15 16 16 17 18 18 19 19 20 19 20 20 20 20 21 21 21 22 22 21 20 20 19 19 18 18 18 18 18 18 18 18 17 17 17 17 17 17 17 17 16 16 16 15 15
14 14 14 15 15 16 16 17 16 18 18 19 18 19 20 19 20 20 20 21 22 23 24 23 21 20 19 18 19 19 19 18 18 18 18 18 18 18 17 17 16 16 16 16 16 16 15 15 15
14 13 14 14 15 15 16 16 15 18 18 18 19 19 19 20 20 20 21 22 23 24 24 23 23 21 20 20 20 19 19 19 18 18 18 17 17 17 17 17 17 16 16 16 15 15 15 14 14
14 14 13 14 14 15 16 16 17 18 18 18 18 19 19 20 21 21 22 22 23 23 23 23 22 22 20 19 20 20 19 18 18 18 18 17 17 17 16 16 16 16 15 15 15 14 13 13 13
12 12 12 13 15 15 15 15 17 16 16 16 17 17 18 19 20 20 21 21 22 22 22 23 22 21 20 18 19 19 18 18 18 17 17 16 16 16 16 15 15 15 15 14 14 13 12 11 12
11 10 11 12 14 13 13 14 15 16 16 17 17 17 17 17 18 19 20 21 21 21 21 21 20 19 18 17 17 17 17 17 16 17 16 16 16 16 15 15 14 14 14 13 13 12 11 10 11
11 11 11 13 13 13 13 13 15 15 15 15 16 17 17 17 18 18 19 20 21 21 20 20 19 17 17 16 16 15 15 15 15 15 15 16 15 14 15 14 14 14 14 12 11 11 10 9 9
11 11 11 12 13 12 12 13 14 15 15 16 17 17 17 18 17 18 17 19 19 20 19 18 18 16 16 16 15 14 14 12 13 14 14 14 13 14 14 14 13 13 12 11 10 10 8 7 7
10 10 11 11 12 12 12 13 16 17 16 16 16 16 17 17 18 18 17 16 19 18 18 17 17 16 15 16 15 14 12 11 11 12 12 12 13 13 13 13 12 11 10 10 9 8 8 6 5
11 11 12 11 11 11 12 13 15 16 17 17 17 16 16 16 17 18 17 16 15 18 17 17 16 15 15 15 15 14 12 11 10 10 11 11 11 12 12 12 11 10 9 8 7 7 7 6 5
11 12 11 11 11 10 12 11 15 14 15 15 16 16 16 16 17 17 17 17 16 16 16 16 15 14 14 14 15 13 11 10 9 10 10 10 9 10 10 10 10 9 8 7 7 6 6 5 4
12 11 12 11 11 11 13 11 14 16 17 17 17 17 15 15 16 17 17 16 14 15 15 15 14 13 13 13 13 13 12 9 9 9 9 9 9 9 9 9 9 8 7 7 6 5 5 4 4
11 10 10 10 10 11 12 11 14 15 15 15 16 15 15 15 15 14 13 13 12 11 12 12 13 12 12 12 12 12 11 10 10 9 9 8 8 8 8 8 7 7 6 6 5 5 4 4 3
11 11 11 9 10 11 11 12 15 14 16 16 16 16 16 14 14 13 14 13 12 11 11 11 11 10 11 11 11 11 11 10 9 10 9 9 8 8 7 7 7 6 6 5 5 4 4 3 3
10 10 12 9 11 10 13 13 15 16 16 15 15 16 15 14 14 13 12 12 12 11 11 11 10 10 10 11 11 10 10 11 10 9 9 8 8 7 7 6 6 5 5 4 4 4 3 3 2
10 11 10 9 10 11 12 12 14 14 15 15 14 15 14 14 13 12 12 12 11 11 10 9 10 9 10 10 10 10 10 10 9 9 8 8 7 7 6 5 5 5 4 4 4 3 3 2 1
10 9 10 10 10 11 12 14 14 15 14 13 13 13 12 13 13 12 11 10 9 8 9 8 9 9 8 9 9 9 9 9 8 8 7 7 7 6 5 5 4 4 3 3 3 2 2 1 1
11 12 11 10 11 10 11 13 17 13 12 13 13 12 10 10 10 10 9 8 8 8 8 8 7 7 7 8 8 8 8 8 7 7 7 6 6 5 5 4 4 3 3 3 2 2 1 0 0

GFSSGP_925_temp_042.txt.gz
Temp
21 22 22 25 27 27 27 28 28 28 28 29 29 29 30 30 31 30 24 23 23 23 22 21 21 21 20 20 18 18 18 17 17 17 17 18 17 17 17 17 17 17 16 17 16 16 16 17 16
21 22 24 26 26 27 28 28 27 28 28 28 28 29 29 31 29 27 26 23 23 23 22 22 21 21 20 19 18 18 17 17 17 17 17 17 17 17 17 17 17 16 16 16 17 16 16 16 16
21 22 26 26 26 27 27 28 29 28 28 28 29 29 30 30 28 28 25 23 23 23 23 22 20 20 20 19 19 18 18 17 17 17 17 17 17 17 17 17 16 16 16 16 16 16 17 17 17
23 25 25 25 26 27 27 28 28 27 28 28 29 29 29 27 28 26 24 22 23 23 23 21 20 20 20 19 19 18 17 17 17 17 18 18 18 17 17 17 17 16 16 15 16 16 16 17 17
22 25 25 24 26 27 27 27 27 27 28 28 28 29 29 27 25 24 23 23 23 23 22 20 20 20 19 19 19 18 17 17 17 17 17 17 18 18 17 17 17 16 16 16 16 15 15 16 16
24 25 24 25 26 27 26 27 27 27 28 28 28 29 30 26 25 24 23 23 23 22 22 21 19 20 19 19 19 18 18 17 17 17 17 18 17 18 17 17 17 16 16 16 15 15 15 15 15
23 24 24 25 26 26 26 27 26 27 28 28 29 29 30 28 25 23 23 22 22 22 21 21 20 19 19 19 18 18 18 17 17 17 17 17 17 18 17 17 17 16 16 16 15 15 15 15 15
23 24 24 24 25 25 26 25 27 26 28 27 28 29 29 27 24 23 23 22 22 21 22 22 21 20 20 19 18 18 18 18 17 17 17 17 18 18 18 17 17 16 16 16 16 16 16 16 16
21 22 23 24 24 25 24 24 26 26 26 26 27 27 26 23 23 23 23 23 23 22 22 22 21 21 21 20 18 18 18 18 17 17 17 17 18 18 17 17 17 16 16 16 16 16 16 17 17
21 22 23 24 24 23 24 24 25 25 25 26 27 26 25 23 23 25 25 25 23 22 22 21 21 21 20 20 19 19 18 18 18 18 18 19 18 18 18 17 17 17 17 17 17 17 17 17 18
20 21 23 21 22 22 22 22 23 24 24 26 27 27 25 25 24 24 26 26 25 24 23 22 21 20 20 20 20 19 19 19 19 19 19 18 18 18 18 18 18 17 17 17 17 17 17 17 17
18 20 21 21 21 20 21 22 22 23 25 26 24 24 24 25 26 25 25 25 25 24 23 22 22 20 19 19 19 20 19 19 19 18 18 18 18 18 18 18 18 17 18 17 17 17 16 16 15
18 20 19 20 19 20 20 20 21 22 24 24 24 24 24 25 26 25 25 25 25 24 24 23 22 21 19 18 18 19 19 19 19 18 18 18 18 19 18 18 18 17 17 17 16 16 16 16 16
18 17 18 18 19 19 19 20 21 22 23 23 23 24 24 25 26 25 25 25 25 25 24 24 22 21 20 18 18 18 20 20 19 19 18 18 18 18 17 17 17 17 17 16 15 15 15 15 15
17 16 18 19 19 19 19 19 19 22 22 22 23 24 24 25 25 25 25 25 25 25 25 24 23 22 20 19 18 18 20 20 19 19 18 18 17 16 17 17 16 17 16 15 15 14 14 14 14
16 17 18 19 18 19 18 19 22 22 22 22 22 23 24 24 25 25 25 24 24 24 24 23 21 22 21 20 19 20 20 20 19 18 17 17 17 17 16 16 16 15 14 14 14 14 14 13 13
16 18 17 17 18 18 18 19 21 20 21 21 22 23 23 23 24 24 24 25 24 24 24 23 22 21 21 21 21 21 20 20 19 18 17 17 16 16 16 16 15 13 13 14 13 12 12 12 12
18 16 16 17 18 17 17 18 19 20 20 21 21 22 22 22 23 23 23 23 23 23 23 23 22 21 20 20 20 20 20 20 19 17 16 16 15 16 16 15 15 13 13 12 11 11 11 11 11
15 16 15 17 17 16 17 18 19 19 19 20 20 21 22 23 23 22 22 22 22 22 22 22 21 20 20 19 20 19 18 16 14 14 15 14 15 15 15 13 13 12 12 11 11 11 11 10 10
15 15 16 16 16 16 17 17 19 19 19 20 20 21 22 22 23 23 22 22 22 22 21 21 20 20 19 19 19 19 16 12 12 13 13 13 14 15 15 12 11 11 11 10 10 10 10 9 8
14 14 15 15 16 16 16 17 21 21 21 21 20 21 21 22 22 23 24 23 22 22 22 21 20 19 18 18 18 14 11 10 10 10 11 12 13 13 14 11 11 10 10 9 9 9 9 10 8
14 15 14 14 14 14 15 17 20 21 21 21 22 21 21 21 21 22 22 23 23 22 21 20 19 18 18 16 15 14 15 13 11 10 10 11 12 11 11 10 10 10 9 9 8 8 8 8 9
13 14 14 14 13 12 14 12 19 21 19 20 21 22 22 22 22 22 21 21 22 21 20 18 18 17 16 15 16 16 15 13 10 8 9 10 10 10 9 9 9 8 8 7 7 7 7 7 7
14 13 13 14 12 12 16 14 19 22 22 22 22 21 22 22 21 21 21 20 20 20 18 17 16 16 15 16 15 16 15 11 8 8 8 9 8 8 8 8 8 7 7 7 6 6 6 6 5
12 12 13 13 12 14 17 16 17 21 20 20 20 21 22 22 21 21 20 20 20 19 17 16 16 15 15 15 15 14 12 10 9 8 8 8 8 7 7 7 7 7 6 6 5 5 4 4 5
11 13 14 13 15 17 16 15 19 21 19 20 20 21 20 21 21 21 20 20 19 18 17 16 16 15 14 14 14 13 11 9 8 8 8 8 8 8 7 7 6 6 5 5 5 4 4 3 4
13 11 14 12 14 13 16 18 20 21 20 20 20 19 19 19 20 20 21 19 19 18 17 16 15 14 14 14 13 12 9 8 8 8 8 7 7 7 6 6 6 5 5 5 4 4 4 4 3
13 14 11 11 11 14 17 18 18 19 19 19 19 18 19 19 19 19 20 19 18 17 16 15 15 14 13 12 12 10 7 8 9 9 8 7 7 6 6 6 5 5 4 4 4 4 3 3 3
11 10 11 12 12 13 14 17 20 18 19 19 17 17 18 17 17 18 19 18 17 16 15 14 14 12 11 11 9 8 8 9 8 8 8 7 6 6 6 5 5 5 4 3 4 3 3 3 3
15 13 13 11 12 11 12 15 19 18 18 17 17 17 17 15 14 15 17 16 15 14 13 13 12 11 10 8 8 7 8 8 8 7 7 6 6 5 5 5 4 4 3 3 3 3 3 2 2

GFSSGP_925_temp_045.txt.gz
Temp
21 24 25 27 27 28 29 30 31 30 30 32 32 31 32 32 32 30 27 26 27 25 23 21 21 21 20 19 18 18 18 18 18 18 18 17 17 17 18 17 17 17 17 16 16 17 17 17 17
21 24 26 28 26 27 29 31 29 31 31 31 31 31 31 32 32 29 28 26 26 25 23 22 21 21 20 19 18 18 17 17 18 17 17 17 17 17 17 17 17 16 16 16 16 16 16 16 16
21 24 27 27 27 27 29 31 31 31 30 30 31 32 32 32 31 30 28 26 26 25 24 22 21 21 20 19 18 18 17 17 17 17 17 17 18 17 17 17 16 16 16 16 16 16 16 16 17
24 26 27 26 27 29 30 31 31 30 30 30 31 31 32 30 31 29 26 26 26 26 25 22 21 21 20 19 18 17 17 17 17 17 17 18 17 17 17 16 16 16 16 16 16 17 17 17 17
24 27 26 26 27 29 31 30 30 29 30 30 31 31 31 30 28 27 26 26 26 26 24 20 20 20 20 19 18 17 17 17 17 17 18 18 17 17 17 17 17 16 16 15 15 16 16 16 16
25 26 25 26 28 29 31 30 29 29 30 30 30 31 31 29 28 27 26 26 27 26 24 21 20 20 20 19 18 18 17 17 17 17 17 17 17 17 17 17 17 17 16 16 15 15 15 16 16
24 25 25 27 28 29 30 30 29 29 30 30 31 30 32 30 28 27 26 26 26 25 24 22 20 19 20 19 19 18 17 17 17 17 17 17 18 18 17 17 17 17 16 16 16 16 16 16 16
25 25 25 26 27 28 30 29 29 29 29 31 30 29 31 30 27 26 26 26 25 25 24 24 22 20 19 18 19 18 18 17 18 17 17 18 18 18 17 17 17 17 16 16 16 16 16 16 17
24 24 24 26 27 28 29 27 28 29 28 29 30 30 28 27 26 26 26 26 25 25 24 24 23 21 21 20 18 18 18 17 18 17 17 18 19 18 18 17 17 17 17 16 16 17 17 17 17
22 23 24 27 28 28 27 27 28 27 27 28 29 29 28 27 26 27 27 27 26 25 25 24 24 23 22 20 19 19 18 18 18 18 17 19 20 20 19 17 17 17 17 17 17 17 17 18 19
22 22 25 26 25 25 25 26 26 26 26 28 28 29 28 27 27 27 28 28 27 26 25 24 24 24 23 21 20 20 19 19 19 20 19 20 20 18 18 18 18 18 18 18 18 18 18 18 18
21 23 24 25 24 23 23 24 25 26 26 28 29 28 27 27 28 28 27 28 28 27 26 24 24 24 24 22 21 21 20 20 19 20 20 20 19 19 19 20 19 19 19 19 18 18 17 17 17
20 22 23 23 22 22 22 22 23 24 26 27 27 27 26 26 28 28 28 28 28 28 26 25 24 24 22 22 22 23 21 20 21 20 20 20 20 20 20 20 19 19 19 18 17 17 17 17 17
21 21 21 22 22 22 21 21 22 23 25 25 25 26 26 26 27 27 27 27 27 27 27 26 25 24 23 21 19 21 22 20 21 20 20 20 20 20 20 19 18 18 18 17 17 17 17 17 16
19 19 20 21 21 21 21 20 21 23 24 24 25 26 26 26 26 27 27 27 27 27 27 26 25 25 24 23 19 19 22 21 20 20 20 20 20 18 18 17 17 16 17 17 16 16 16 16 15
18 19 20 22 21 22 20 20 25 25 25 24 25 25 26 26 27 27 27 27 27 27 27 27 26 25 24 23 21 18 21 22 20 20 20 19 18 18 17 16 16 16 16 16 16 15 15 15 14
19 20 21 22 22 21 20 21 24 24 23 24 25 25 25 26 26 26 27 27 27 26 26 26 25 24 24 23 22 21 22 22 20 20 20 19 18 16 16 16 16 15 15 15 15 14 14 14 14
20 20 20 21 22 20 20 20 22 23 23 23 23 24 25 25 25 26 26 26 27 27 26 26 25 23 23 23 23 22 23 22 20 20 19 19 17 16 16 16 15 15 14 14 13 13 12 12 12
18 19 19 21 21 20 19 20 21 22 23 22 23 23 24 24 25 25 25 25 25 25 26 25 25 24 23 23 23 23 23 21 20 19 18 17 17 15 15 15 14 14 14 14 13 12 12 11 11
18 18 18 20 20 18 19 19 21 22 22 23 23 23 23 24 24 25 25 24 24 24 24 24 25 24 23 23 22 23 21 18 16 15 16 15 14 13 14 14 14 13 13 12 12 12 12 11 10
17 17 18 18 19 19 18 19 22 24 23 23 23 23 24 24 24 25 25 25 24 24 24 24 24 24 23 22 22 21 16 13 12 12 12 12 12 13 14 13 13 12 12 11 11 10 11 11 10
16 18 17 17 16 17 18 17 20 23 24 23 23 24 24 23 24 24 25 25 25 24 24 24 24 23 22 21 21 19 15 13 10 11 10 10 11 12 12 12 11 11 11 10 10 9 10 10 10
15 16 16 16 14 13 16 15 19 23 23 24 24 24 24 24 24 24 24 23 23 24 24 23 23 22 21 20 20 17 16 15 10 9 9 10 10 10 11 11 10 10 10 9 9 9 9 9 9
15 15 14 14 14 13 17 17 20 23 24 24 25 24 24 24 24 24 23 23 23 22 23 22 22 21 20 19 17 16 17 13 9 8 7 8 9 9 10 10 9 9 8 8 8 7 7 7 7
14 13 14 13 12 15 20 19 19 23 23 23 23 23 23 23 23 23 23 23 22 22 21 21 20 20 19 18 18 18 17 12 9 8 7 7 8 9 9 9 9 8 7 7 7 7 6 6 6
13 13 15 15 17 19 20 17 20 23 22 22 22 22 23 22 22 22 22 22 22 21 21 20 20 19 18 18 18 18 14 12 9 8 8 8 8 8 9 9 8 7 7 7 6 6 6 5 5
13 11 14 13 15 14 17 20 22 23 23 22 22 22 21 21 21 21 21 22 22 21 20 20 19 19 18 17 17 15 13 11 9 9 9 9 9 8 8 8 7 7 7 7 6 6 6 5 5
15 16 12 11 12 15 19 20 21 22 22 22 21 21 21 21 20 20 20 21 22 21 20 19 19 18 17 17 16 13 11 9 8 8 8 8 8 8 8 7 7 7 6 6 6 6 5 5 5
13 12 13 15 14 15 16 19 23 21 21 20 20 21 20 20 19 18 20 20 21 20 19 19 18 17 16 15 13 11 9 8 8 8 8 7 7 7 8 7 7 6 6 5 6 5 5 4 4
16 14 13 12 14 13 14 16 20 20 20 19 20 20 20 20 18 17 18 19 19 19 18 18 17 15 15 13 11 9 8 8 8 8 8 8 8 8 7 7 7 6 5 5 5 5 5 4 4

GFSSGP_925_temp_048.txt.gz
Temp
22 23 25 26 22 23 24 26 31 30 30 31 31 30 28 29 29 25 27 27 24 22 20 21 20 21 20 19 19 18 18 18 18 18 18 18 17 17 17 17 17 17 16 16 17 17 17 17 17
21 22 25 23 22 22 25 28 29 30 30 29 29 30 29 30 28 26 26 27 24 22 20 20 20 21 20 19 18 18 18 18 18 17 18 17 17 17 17 17 16 16 16 16 16 17 17 16 16
21 22 23 23 22 23 24 29 29 30 29 30 29 29 30 29 28 27 27 27 25 23 21 20 20 21 20 18 18 18 17 17 17 17 17 17 17 17 17 16 16 16 16 16 16 16 16 16 16
22 24 23 22 23 25 26 28 31 29 30 30 30 29 30 30 30 27 26 26 26 24 22 21 20 20 20 19 18 17 17 17 17 17 17 17 17 17 16 17 17 16 16 16 16 16 16 16 17
23 22 22 22 24 25 27 29 30 29 29 29 30 28 28 28 28 27 26 27 26 24 23 21 21 20 20 19 18 17 17 17 17 17 17 17 17 17 16 17 16 16 16 16 16 16 17 17 16
21 22 22 22 24 26 27 29 29 29 28 29 29 28 27 28 28 27 26 27 26 23 21 21 20 20 20 19 18 18 17 17 17 17 17 17 17 17 16 16 16 16 16 16 16 16 16 16 16
21 22 22 23 24 26 28 29 27 27 27 28 30 29 27 27 27 27 27 27 26 23 21 20 20 20 20 19 19 18 17 17 17 17 17 17 17 17 16 16 16 16 16 16 16 16 16 17 17
22 22 22 23 24 25 27 29 28 27 27 29 29 28 26 26 27 27 27 26 26 25 22 20 19 19 19 19 19 18 18 18 18 17 17 17 18 18 17 17 17 17 16 16 16 17 17 17 17
23 20 21 22 24 25 27 28 28 29 27 28 29 28 26 27 27 27 26 26 25 25 24 22 20 20 19 19 18 18 18 18 18 17 18 18 18 18 17 17 17 17 17 17 17 17 17 17 18
20 19 21 24 25 25 26 27 27 26 26 26 26 28 27 27 27 26 26 26 25 25 25 24 22 21 21 20 19 18 18 17 18 18 18 19 18 18 17 17 17 17 17 17 17 18 18 17 17
20 19 22 24 25 24 23 23 27 25 24 26 25 27 26 27 26 26 27 27 26 25 25 25 23 22 21 20 20 18 18 18 18 18 18 19 19 18 18 18 18 18 18 18 18 18 17 18 18
20 22 22 22 24 23 22 23 23 24 23 25 25 26 26 25 25 26 26 28 27 26 25 25 24 23 22 22 21 20 19 19 19 19 19 19 20 19 19 19 18 18 19 18 18 18 18 18 17
20 21 22 23 23 22 22 21 21 21 23 24 25 25 25 25 25 27 27 27 28 27 26 25 25 24 23 22 21 21 20 20 20 20 20 20 19 19 19 19 19 19 19 18 18 18 17 17 17
21 21 21 21 22 21 21 20 20 21 22 22 23 23 23 24 24 26 26 27 27 28 26 25 25 24 24 22 22 21 21 21 20 21 20 20 19 19 20 19 19 19 19 18 17 17 17 17 16
19 18 19 19 20 20 21 19 19 21 22 22 22 23 23 23 25 24 26 26 27 27 27 26 25 25 23 22 22 22 21 21 21 21 20 20 20 20 20 19 19 18 18 17 17 17 16 16 16
18 18 16 20 21 21 20 18 21 22 21 21 21 22 23 23 24 25 26 26 26 27 27 27 26 25 24 23 21 21 21 21 21 21 20 20 20 20 19 18 17 17 17 16 16 16 16 15 15
17 16 17 19 21 21 19 19 21 22 23 21 21 22 22 23 23 25 26 26 27 27 27 27 26 25 25 24 22 20 20 20 22 21 20 20 19 18 18 17 17 16 16 16 15 15 15 14 14
18 16 18 19 19 19 18 18 20 21 21 20 20 20 21 22 22 25 26 26 26 27 27 26 26 25 25 24 22 20 20 20 22 21 20 20 18 18 17 17 16 16 16 15 14 14 14 13 13
18 18 17 20 21 19 18 18 19 20 20 20 20 21 21 22 22 25 26 25 26 26 26 26 26 25 24 24 23 21 20 20 21 21 20 19 18 16 16 16 15 15 15 14 14 13 13 12 13
18 17 17 18 20 18 17 17 18 19 20 20 20 21 21 21 21 21 24 25 25 25 25 25 26 24 24 23 23 22 21 20 20 20 19 18 17 16 15 15 15 15 14 14 13 13 12 11 11
16 16 16 17 17 17 16 16 18 21 20 20 20 21 21 21 21 21 21 23 24 24 24 24 25 25 23 23 23 22 20 18 17 18 17 16 15 15 14 14 14 14 14 13 12 12 12 11 10
15 17 17 16 15 14 15 13 17 19 20 21 20 19 20 21 21 20 20 21 23 24 24 24 24 24 24 23 22 21 17 14 14 15 15 14 14 14 13 13 13 13 13 12 11 11 11 11 10
15 16 15 15 13 12 14 12 15 20 20 21 20 20 20 20 19 20 19 21 23 23 23 24 24 24 24 23 21 19 16 14 12 13 13 13 12 12 11 12 12 12 12 11 10 10 10 10 9
15 15 14 14 13 11 13 13 15 19 20 20 20 21 21 21 21 21 22 22 22 23 23 22 23 23 23 22 21 18 15 13 11 10 11 10 10 10 11 11 11 11 11 10 10 9 9 9 8
14 14 11 11 11 10 18 15 16 20 20 20 20 22 21 22 21 20 19 18 20 22 22 22 22 22 22 21 19 17 14 14 11 9 9 9 9 10 10 10 10 10 9 9 8 8 8 7 7
13 13 11 12 12 14 15 14 16 20 21 21 21 22 21 20 19 20 19 16 18 20 21 21 21 21 21 19 17 16 14 12 10 9 9 8 9 9 9 9 9 9 9 8 8 7 7 7 6
13 11 14 12 13 9 13 17 19 20 20 20 20 19 18 18 18 20 17 17 18 19 20 21 20 20 19 18 17 14 13 11 9 8 8 8 8 9 9 9 8 8 8 7 7 7 6 6 5
13 14 11 9 8 10 14 16 17 19 19 19 19 19 18 19 19 18 16 16 18 19 21 20 20 19 18 17 15 12 11 10 8 8 8 8 8 8 8 8 7 7 7 7 6 6 6 5 5
12 12 12 12 10 9 11 15 18 18 17 16 16 17 17 19 17 16 15 16 18 19 20 20 19 18 17 15 12 11 10 9 8 8 8 8 8 8 8 7 7 7 6 6 6 6 5 5 4
14 13 12 9 9 10 9 13 18 17 18 18 17 17 16 18 17 15 15 14 16 18 19 19 18 16 14 11 10 9 8 8 7 7 8 8 8 8 7 7 7 6 6 5 5 5 5 4 4

GFSSGP_925_temp_051.txt.gz
Temp
22 23 22 22 20 18 20 22 24 25 28 26 28 28 28 27 28 25 24 25 23 21 20 20 20 20 20 20 18 19 19 19 18 18 18 17 17 17 17 17 17 17 17 17 18 17 17 17 17
22 23 22 18 18 19 19 22 23 25 27 27 27 28 28 26 25 23 22 23 23 21 20 20 20 20 20 19 18 18 18 18 18 18 18 18 17 17 17 16 16 16 16 17 17 17 17 17 17
21 21 18 18 17 19 20 23 24 27 27 28 28 28 28 26 24 24 24 22 22 21 20 20 20 20 20 18 18 18 18 17 17 18 18 17 17 17 16 16 16 16 16 16 16 17 17 17 16
20 19 18 19 19 20 22 23 24 27 28 28 28 27 26 26 26 26 24 22 23 21 20 20 20 20 20 19 18 18 18 17 17 17 17 17 17 17 16 16 15 15 16 16 16 16 16 16 17
20 17 18 18 19 21 21 23 25 27 27 28 28 27 25 25 26 26 24 23 22 21 21 20 20 20 20 19 18 18 17 17 17 17 17 17 17 16 16 16 16 16 16 16 16 16 16 16 16
18 17 17 18 19 22 22 24 25 27 27 27 28 27 25 26 26 26 25 24 23 21 21 20 20 20 20 19 19 18 17 17 17 17 17 17 17 16 16 17 17 16 16 15 16 16 16 17 17
17 16 17 19 19 21 23 25 24 25 27 26 28 27 24 25 26 26 26 25 23 22 21 20 20 20 20 19 19 18 18 17 17 17 17 17 17 16 16 16 16 16 16 17 17 17 17 17 17
17 16 19 18 20 20 23 25 25 24 24 27 27 25 23 25 26 26 25 24 23 22 21 20 20 19 19 19 19 18 18 17 17 17 17 17 17 17 17 17 17 16 17 17 17 17 17 17 18
20 16 16 19 20 21 23 23 26 26 26 26 27 24 24 26 26 26 25 22 21 21 21 21 20 19 19 18 18 18 18 18 17 17 17 18 18 17 17 17 17 17 17 17 17 17 17 17 18
16 16 17 20 21 21 23 22 22 25 25 25 26 24 25 26 26 25 24 23 21 20 20 21 20 20 19 18 18 18 18 18 18 17 18 18 18 17 17 17 17 17 17 17 18 17 17 17 17
18 16 19 21 21 22 22 21 22 23 23 23 24 24 23 24 24 24 24 25 24 23 21 21 21 20 20 19 19 18 18 18 18 18 18 18 17 17 17 17 17 17 18 18 17 17 17 18 18
17 18 19 20 21 21 21 21 20 21 22 21 23 24 24 22 21 22 23 24 24 24 23 21 21 21 20 20 19 19 18 18 18 19 19 18 18 18 18 18 18 18 18 17 17 17 18 18 17
17 18 20 20 20 20 21 20 20 19 19 20 20 21 24 23 23 24 25 26 25 24 24 23 22 21 21 20 20 20 20 20 19 19 19 19 18 18 18 19 18 18 18 17 17 17 17 17 17
19 19 18 19 18 19 20 19 20 20 20 19 20 20 20 20 22 24 24 25 25 25 24 24 23 22 21 21 21 21 20 20 20 19 19 19 19 19 19 19 18 18 18 17 17 17 17 17 17
19 17 16 17 18 18 19 18 18 19 18 18 19 18 20 20 22 22 25 25 26 26 25 25 24 23 22 21 21 21 21 21 20 20 20 19 20 19 19 18 19 18 17 17 17 17 17 16 16
17 16 15 17 18 18 18 17 19 19 18 18 19 19 18 19 20 23 25 25 26 26 25 25 24 24 23 22 21 21 20 21 21 21 21 20 20 19 19 19 18 18 17 17 17 16 16 16 16
15 13 14 16 19 19 17 17 19 19 18 17 18 18 20 20 20 22 24 25 26 26 26 25 24 24 24 23 22 21 20 20 20 21 21 20 20 19 19 19 18 17 17 16 16 16 16 15 15
14 14 15 16 18 19 17 16 17 18 18 17 17 16 16 19 21 22 23 25 25 26 26 26 25 24 24 23 23 22 21 20 20 20 21 20 20 19 19 18 17 17 17 16 16 15 15 14 14
15 16 16 16 18 17 16 15 16 17 17 18 18 16 18 19 19 21 23 24 25 25 26 26 26 24 23 21 20 19 19 20 19 20 21 20 19 19 19 18 17 16 16 16 15 15 14 14 14
15 15 15 16 18 16 15 15 17 17 17 18 18 17 18 19 18 18 22 23 23 24 25 25 25 26 24 22 22 19 19 19 19 19 20 20 19 19 18 17 16 16 16 15 15 14 13 12 12
15 15 15 15 15 15 13 14 15 17 17 18 19 19 18 19 17 17 17 21 23 23 24 24 24 24 24 23 21 20 18 18 18 17 19 19 19 18 17 16 16 15 15 15 14 14 14 12 11
14 15 15 15 13 12 13 11 12 16 18 18 16 16 18 18 16 17 18 19 22 23 24 24 24 24 23 23 22 21 18 16 17 17 18 18 17 16 15 15 14 14 14 14 13 13 13 12 11
14 14 13 13 12 10 12 11 12 13 18 19 19 15 15 16 17 18 16 19 22 23 23 23 24 24 23 23 22 21 17 17 17 16 16 15 14 15 14 14 14 13 13 12 13 12 12 11 11
14 14 13 13 11 9 10 11 12 16 18 20 18 17 17 17 18 17 19 19 19 20 21 22 23 22 23 22 21 20 18 16 13 11 12 12 13 13 13 12 12 12 12 11 11 11 11 10 10
14 11 7 12 11 9 13 11 12 15 17 18 17 18 18 18 17 18 16 15 18 19 20 20 21 22 22 22 20 18 18 17 14 12 11 10 10 11 11 11 11 11 11 10 10 10 10 9 9
12 11 7 9 9 11 13 12 14 16 17 17 18 20 18 19 17 18 16 15 17 18 19 19 19 21 21 19 18 18 17 13 12 11 10 10 10 10 10 10 10 10 10 9 9 9 9 8 7
12 10 12 9 10 7 10 13 15 16 16 17 17 17 16 15 15 16 16 15 17 18 18 18 19 19 20 17 16 15 14 14 12 10 10 9 9 9 10 10 9 9 8 8 9 8 8 7 6
12 12 9 5 7 8 11 12 15 17 15 15 15 15 15 15 15 15 14 15 17 18 17 18 18 19 17 15 15 13 13 13 11 9 9 9 9 9 9 9 8 8 7 7 7 7 6 6 5
12 11 11 9 8 7 9 12 14 17 16 17 16 15 15 15 14 14 13 15 16 18 17 17 17 18 15 13 11 12 11 10 9 8 8 8 8 9 8 8 7 7 7 7 7 6 6 5 5
12 11 11 6 7 6 8 10 15 16 15 14 16 15 15 14 15 13 12 14 14 15 17 16 15 14 12 11 11 9 9 8 8 8 8 8 8 8 8 7 7 7 6 6 6 4 5 5 4

GFSSGP_925_temp_054.txt.gz
Temp
21 22 22 22 19 17 18 20 22 23 25 26 26 27 27 26 26 25 22 22 21 20 20 20 20 20 20 19 19 19 19 19 18 18 18 17 17 17 17 17 17 17 18 18 18 18 17 17 17
21 22 22 16 17 18 18 20 22 23 24 25 26 26 26 26 24 20 21 21 22 21 20 20 20 20 19 19 18 19 19 19 18 18 17 17 17 17 16 17 16 17 17 17 17 17 17 17 17
20 20 18 18 16 17 18 21 23 25 24 26 28 27 25 25 23 22 23 21 21 21 20 20 20 20 19 18 18 18 18 18 18 18 18 17 17 17 16 16 16 16 17 17 17 16 16 16 17
19 18 16 17 17 18 19 22 23 23 25 27 27 25 25 25 24 24 22 21 21 20 20 20 20 20 19 18 18 18 18 17 17 18 17 17 17 17 16 16 16 16 16 16 16 17 16 16 16
19 15 16 17 18 19 19 21 22 23 24 27 27 26 25 25 25 23 22 21 21 20 20 19 19 19 18 18 18 17 17 17 17 17 17 17 17 16 16 16 15 15 15 16 16 15 16 16 17
16 15 15 17 18 20 20 21 23 23 23 25 26 23 23 24 23 21 22 21 22 21 20 19 19 19 19 18 19 18 17 17 17 17 17 17 16 16 16 15 15 15 15 16 15 16 17 18 18
16 14 15 16 18 19 21 22 22 22 22 24 25 23 23 23 23 22 21 21 22 21 20 20 20 20 20 19 19 18 18 17 17 17 17 17 17 16 16 16 16 15 15 16 16 17 17 17 18
15 15 17 16 18 18 21 24 24 22 22 25 24 22 22 23 24 23 22 20 20 20 20 20 20 19 19 19 19 18 18 17 17 17 17 17 17 17 17 17 16 16 16 17 17 17 17 17 17
16 15 14 17 17 20 21 22 23 24 24 26 25 22 23 25 24 22 20 19 19 19 19 20 19 19 19 19 18 18 18 17 17 17 17 17 17 17 17 17 17 17 17 17 17 17 17 17 17
15 14 16 18 19 20 21 22 22 22 24 24 23 22 23 24 23 20 19 19 18 18 19 19 19 19 19 18 18 18 18 17 17 17 17 17 17 17 17 17 17 17 17 17 17 17 17 17 17
15 15 18 19 20 21 20 20 20 21 22 22 23 22 22 22 22 21 20 19 19 19 19 19 19 20 19 18 18 17 17 18 17 17 17 17 17 17 17 17 17 17 17 17 17 17 17 17 17
16 17 18 19 20 19 20 21 20 20 21 20 20 20 22 22 20 21 21 21 20 20 20 20 20 20 19 19 18 18 17 17 18 18 18 17 17 17 17 17 17 17 17 17 17 17 17 17 17
16 17 18 19 18 19 19 19 19 19 19 19 19 20 20 20 20 22 22 22 22 20 20 20 20 20 20 19 19 18 18 18 18 18 18 18 17 17 17 17 18 18 17 17 17 17 17 17 17
18 17 18 18 18 18 18 18 18 19 19 18 18 18 18 19 20 22 22 23 22 22 21 21 21 21 19 19 19 19 19 19 19 19 19 18 18 18 17 18 18 18 17 17 17 17 17 17 17
17 17 17 17 18 18 19 18 16 18 18 17 17 17 18 18 20 20 23 23 24 23 22 22 21 20 19 19 20 19 19 19 19 19 19 19 18 18 18 18 18 18 17 17 17 17 17 17 16
16 15 15 17 18 18 18 17 18 17 17 16 16 17 17 18 18 21 23 23 24 23 23 22 21 20 20 19 20 20 20 20 20 19 20 19 19 19 18 18 18 17 17 17 16 16 16 16 16
14 14 14 15 17 18 16 16 18 19 16 16 16 16 16 18 18 20 22 23 24 24 24 24 21 22 21 20 20 20 20 20 20 20 20 20 19 19 19 19 18 17 17 17 17 16 16 15 15
14 14 14 14 17 16 16 15 16 16 16 16 16 15 15 16 18 19 21 23 24 24 24 24 23 21 22 21 19 19 19 20 21 20 20 20 19 19 19 18 18 17 17 17 16 16 15 15 15
14 15 14 15 17 16 15 15 15 16 15 16 16 15 16 17 18 19 20 22 23 24 24 24 24 22 20 20 18 18 18 20 20 19 20 20 20 19 19 18 17 17 17 17 16 15 15 14 14
14 13 13 15 16 16 14 14 15 16 16 17 18 18 17 16 16 16 20 21 22 22 23 24 24 24 21 20 21 19 18 19 20 19 19 20 20 20 18 18 17 17 17 16 16 16 14 13 13
13 13 14 14 14 14 13 15 15 15 16 17 18 18 17 17 17 17 16 19 21 22 23 23 23 23 22 20 20 20 18 18 18 18 19 19 20 19 18 18 18 17 16 16 15 15 15 13 11
14 14 14 14 13 12 13 12 12 14 14 16 15 14 16 17 16 16 16 17 20 21 23 23 23 22 22 21 19 19 19 17 18 20 19 19 18 18 18 17 17 16 16 15 15 14 14 13 12
13 14 13 13 11 10 11 11 12 14 16 19 19 16 14 14 15 15 14 17 20 21 21 22 23 23 22 21 20 18 18 18 19 18 18 17 17 16 16 16 15 15 15 14 14 13 13 12 12
13 13 11 10 9 6 10 11 12 15 17 19 18 16 16 15 15 14 15 18 18 20 20 21 20 20 21 21 20 20 17 18 17 15 14 15 15 14 14 14 14 14 14 13 13 12 12 12 11
12 10 6 7 6 9 11 10 11 14 15 16 16 15 16 15 15 15 14 14 17 18 19 20 20 21 21 20 19 18 19 19 19 16 14 13 12 12 12 12 12 12 13 12 11 11 11 10 10
12 10 7 9 9 10 11 11 14 15 14 15 15 14 14 14 13 14 15 14 16 18 19 19 19 19 20 20 19 18 17 17 15 15 14 12 11 11 11 11 11 12 11 11 10 10 9 9 8
12 9 11 8 7 6 10 11 13 15 14 14 14 13 13 13 13 14 14 14 15 17 18 18 19 19 20 19 18 17 15 15 15 13 12 11 10 10 10 10 10 10 10 10 9 9 9 8 7
12 11 9 4 6 8 10 10 12 16 16 15 13 12 13 14 14 13 13 14 16 17 18 18 18 18 19 17 16 15 15 14 13 12 10 10 10 10 9 10 10 9 9 8 8 7 7 7 6
11 10 8 8 7 7 8 12 12 15 16 14 13 13 13 12 12 12 13 14 15 16 17 18 18 17 15 14 13 12 10 10 10 9 9 9 9 9 9 9 9 8 7 7 7 6 5 6 5
11 11 10 6 7 4 9 10 14 13 13 13 14 13 13 12 12 11 10 11 12 13 14 16 16 15 13 12 11 9 9 8 8 8 8 8 8 8 8 8 8 7 6 6 6 5 5 4 4

GFSSGP_925_temp_057.txt.gz
Temp
20 21 22 21 19 16 17 19 21 22 24 25 24 24 26 25 26 24 21 20 21 20 20 20 20 20 20 20 20 20 20 20 19 18 18 17 17 17 17 17 17 17 18 18 18 18 18 17 17
20 21 21 15 17 17 17 19 21 22 23 22 24 25 25 26 23 18 19 19 21 21 20 20 20 20 20 20 20 19 19 19 18 18 18 17 17 17 17 17 17 17 18 18 18 18 18 17 17
19 20 17 17 15 17 18 19 21 24 22 23 25 24 24 25 22 20 22 20 20 20 20 20 20 20 19 19 19 19 18 18 18 18 17 17 17 17 17 16 17 17 18 18 17 17 17 17 17
19 17 15 16 17 18 19 22 21 20 23 23 25 25 24 24 22 23 21 20 20 20 20 20 20 19 19 19 19 19 19 19 18 17 17 17 17 16 16 16 16 16 17 17 16 17 17 17 17
18 14 16 16 17 18 18 20 21 21 22 22 23 24 24 23 24 23 20 20 20 19 20 20 20 19 19 19 19 18 18 18 18 17 17 17 17 16 16 16 15 16 16 16 16 17 17 17 16
15 14 14 16 17 19 19 20 22 22 21 21 24 22 23 21 22 20 20 20 20 20 19 20 20 19 18 18 18 18 17 17 18 17 17 17 16 16 16 15 16 15 16 16 16 16 16 16 16
15 14 15 16 19 18 20 20 21 21 21 21 23 22 22 21 20 20 20 20 20 20 19 20 20 19 19 18 18 18 17 17 17 17 17 17 16 16 16 15 15 15 15 15 16 16 16 17 17
14 14 15 15 17 18 21 21 23 22 22 22 21 21 21 21 20 20 20 20 19 19 20 20 19 19 19 19 19 18 17 17 17 17 17 17 17 17 16 16 15 15 15 16 16 16 17 17 17
15 14 14 17 17 19 20 22 22 22 22 23 23 21 22 23 20 19 19 18 19 19 19 19 19 19 19 19 18 18 17 17 17 17 17 17 17 17 17 17 16 16 16 16 16 17 17 17 17
15 13 15 17 18 20 20 21 20 21 20 23 22 22 21 20 19 18 18 19 18 18 18 19 19 19 19 19 19 18 17 17 17 17 17 17 17 17 17 17 17 17 17 16 16 17 17 16 16
15 14 17 18 19 20 19 19 20 20 21 21 20 19 21 19 19 19 18 19 18 18 18 18 19 19 19 19 18 18 18 17 17 17 17 17 17 16 16 16 17 16 16 16 16 16 17 17 16
15 16 17 18 19 19 19 20 20 20 19 20 19 19 20 22 20 19 19 18 18 18 18 19 19 19 19 19 18 18 18 17 17 17 17 17 17 17 16 16 17 17 17 16 16 16 16 17 16
15 16 17 18 18 18 18 18 18 18 18 18 18 19 19 19 19 21 20 19 18 18 18 19 19 19 19 18 18 18 18 18 18 17 17 17 17 17 16 16 16 17 17 16 16 16 17 17 17
16 16 17 17 18 17 18 17 18 18 17 17 17 18 17 18 19 20 21 21 20 19 19 19 19 19 19 18 19 18 18 18 18 18 18 17 17 17 17 17 17 17 17 17 16 16 16 16 16
17 17 16 16 17 17 17 17 15 17 17 17 17 16 16 16 19 19 21 22 22 21 20 19 19 20 19 19 19 19 19 18 18 18 18 18 17 17 17 17 17 17 17 17 16 16 16 16 16
15 15 15 17 16 17 18 17 18 16 17 16 16 16 17 15 17 20 22 22 22 23 21 21 19 19 19 18 19 18 18 18 19 19 19 19 18 18 18 17 17 17 17 17 16 16 16 16 16
14 13 13 16 17 17 16 15 17 17 16 15 15 15 15 16 16 18 21 21 22 22 23 22 20 19 19 18 19 19 19 18 19 19 19 19 19 19 18 18 17 17 17 17 16 16 16 15 15
13 14 14 14 17 16 15 13 15 16 16 15 15 15 15 16 16 18 19 21 22 21 22 23 22 21 20 18 18 17 17 18 18 19 19 20 19 19 18 18 18 17 17 16 16 16 15 15 15
13 14 14 15 16 16 14 14 15 15 14 13 14 15 16 16 17 18 20 20 21 21 20 21 22 22 19 17 17 17 17 17 17 18 19 20 19 19 19 18 18 17 17 17 16 15 15 14 14
14 14 13 14 15 15 13 13 15 16 16 16 17 17 17 16 15 15 18 19 20 21 21 21 20 22 21 18 18 17 18 17 19 19 19 19 19 19 19 18 18 17 17 16 16 16 15 14 13
13 13 13 14 14 13 11 13 15 16 16 15 16 16 16 16 17 17 14 18 20 20 22 22 22 20 21 20 18 18 17 17 16 16 18 19 19 19 19 19 19 18 17 16 16 16 16 14 12
13 14 14 13 13 12 12 12 12 14 13 14 14 14 13 14 15 15 15 15 17 20 21 21 22 22 20 20 18 17 17 17 17 19 20 19 19 18 18 18 18 18 16 16 15 15 15 15 13
13 13 13 12 10 11 11 11 12 13 16 17 16 15 13 13 12 13 13 15 17 18 20 20 21 20 20 19 18 18 17 18 19 18 19 18 18 17 17 17 17 16 16 15 14 13 13 14 13
12 12 10 9 9 7 10 11 13 14 17 16 15 13 12 12 12 12 14 15 16 18 19 21 21 21 21 20 18 18 17 17 17 17 16 17 17 16 16 16 15 15 15 14 13 13 13 13 13
11 10 8 8 6 9 10 11 12 13 14 15 14 12 12 12 12 13 12 12 15 16 18 19 19 20 20 20 19 18 17 17 18 18 16 15 14 14 15 15 13 13 13 12 12 12 12 11 11
12 11 8 10 8 10 10 10 13 14 13 13 13 13 12 11 11 12 13 13 14 16 16 17 18 19 20 20 19 18 17 17 17 17 17 15 14 13 13 13 12 12 11 11 11 11 11 10 10
11 8 10 7 6 6 9 10 12 15 13 12 12 13 12 11 11 11 12 14 15 16 18 17 17 18 20 20 19 18 17 16 16 16 15 14 14 13 11 11 10 11 10 10 10 10 9 9 8
12 11 9 4 7 9 11 10 12 15 14 13 11 11 11 12 12 11 10 12 14 15 16 16 18 18 19 19 19 18 17 16 15 14 13 12 11 11 10 10 10 10 10 9 9 8 7 7 6
10 9 8 8 7 8 8 13 11 13 14 13 11 11 11 10 10 10 10 11 11 12 12 14 14 15 17 18 17 16 14 13 13 12 11 10 10 9 10 9 10 10 9 8 8 7 6 6 5
11 10 9 6 7 4 7 9 13 12 12 13 12 12 13 11 10 10 9 11 12 12 11 11 12 12 12 14 13 11 10 10 10 9 9 9 8 8 9 8 8 7 7 7 7 6 5 5 4

GFSSGP_925_temp_060.txt.gz
Temp
19 20 21 20 18 15 17 19 19 21 23 24 23 24 24 25 25 24 20 20 21 21 21 21 20 20 20 20 20 20 20 20 20 18 18 17 17 17 17 17 17 17 18 18 18 18 18 17 17
20 20 20 15 16 16 17 18 20 20 23 20 21 24 25 26 22 18 19 20 21 21 21 21 20 20 20 20 20 20 20 20 20 18 18 17 17 17 17 17 17 18 18 18 18 18 18 17 17
19 20 17 16 14 16 17 18 19 22 20 22 24 24 24 25 21 19 21 21 21 21 20 20 20 20 20 20 20 19 20 19 19 18 18 17 17 17 17 17 17 18 18 18 17 17 17 17 17
19 17 14 16 16 17 18 21 20 20 22 22 23 23 23 23 22 22 21 20 20 20 20 20 20 20 20 20 20 20 19 19 19 18 17 17 17 17 16 16 17 18 18 17 17 17 17 18 17
18 14 15 15 16 17 17 19 20 21 20 21 22 23 23 22 22 22 20 19 20 19 20 20 20 20 20 20 20 19 19 18 19 17 17 17 17 16 16 16 17 17 17 17 17 17 17 17 17
14 13 14 16 16 19 18 19 21 21 21 20 22 22 22 20 20 19 19 19 19 19 19 19 20 20 20 19 19 19 19 19 18 17 17 17 16 16 16 15 16 16 16 16 16 16 16 16 16
14 13 14 16 18 19 19 18 20 20 21 21 23 23 21 19 19 19 19 19 19 19 19 19 19 20 19 18 19 18 18 18 18 17 17 17 16 16 15 15 15 15 16 16 16 16 17 16 15
13 14 14 15 17 18 20 19 22 21 22 22 20 22 22 20 19 19 19 19 19 19 19 19 19 19 19 18 18 18 18 17 18 17 17 17 17 17 16 16 15 15 15 16 16 16 16 15 16
14 13 13 16 16 19 20 20 21 21 21 21 22 21 20 20 19 18 18 19 19 19 19 19 19 19 19 19 18 18 17 17 17 17 17 17 17 17 17 17 16 15 16 16 16 16 16 16 16
14 12 14 16 17 19 19 20 20 21 19 22 22 19 18 18 18 18 18 18 18 18 18 19 19 19 19 19 19 18 18 17 17 17 17 17 17 17 16 17 16 16 16 16 16 16 16 16 16
14 14 16 17 18 19 18 19 20 20 21 20 21 19 19 17 18 18 19 19 19 18 18 18 19 19 19 19 18 18 18 17 17 17 17 17 17 16 16 16 16 16 16 16 15 16 16 16 16
15 15 17 18 19 19 18 19 19 19 19 20 19 19 19 19 18 17 18 18 18 18 18 18 18 19 19 19 18 19 18 18 17 17 17 17 16 16 16 16 16 16 16 16 16 16 16 16 16
14 16 16 17 17 17 18 17 17 17 17 17 18 18 19 19 19 19 18 18 18 18 18 18 18 19 19 18 18 18 18 18 18 17 17 17 17 17 17 16 16 16 16 16 16 16 16 16 16
15 16 16 17 17 17 17 16 16 17 17 17 17 17 17 17 18 20 20 19 18 18 18 18 18 19 19 18 18 19 18 18 18 18 17 17 17 17 17 16 16 16 16 16 16 16 16 16 16
16 15 15 15 16 17 16 16 14 16 17 16 16 15 16 16 17 18 21 21 21 20 19 19 18 19 18 18 18 18 18 18 18 18 18 17 17 17 17 17 16 16 16 16 16 15 15 16 16
15 15 14 16 15 16 17 16 17 16 15 16 15 14 14 16 17 19 20 21 22 20 19 20 19 19 18 18 18 18 18 18 18 18 18 18 17 17 17 17 17 17 16 16 16 15 15 15 15
14 12 13 15 16 17 15 15 17 17 16 14 14 14 14 14 15 18 20 20 21 21 21 20 19 19 19 18 18 18 18 17 18 18 18 18 18 18 17 17 17 17 16 16 16 15 15 15 15
14 14 13 14 16 15 14 13 15 15 14 14 13 13 13 14 15 18 18 20 21 21 21 21 20 20 19 18 17 17 16 17 17 18 18 18 18 18 18 18 18 17 16 16 15 15 15 15 15
13 13 13 14 15 15 14 13 13 15 14 13 13 14 14 15 16 17 19 19 20 21 20 20 21 21 18 17 17 17 16 16 17 17 18 18 18 18 18 18 18 17 17 16 16 15 15 14 14
14 13 13 14 14 15 13 12 14 15 15 15 15 15 14 14 14 14 17 19 19 20 21 20 20 21 19 18 18 17 17 16 17 17 18 18 18 18 18 18 18 17 17 16 16 15 14 14 13
13 13 13 14 14 12 11 13 14 16 15 15 15 14 14 13 15 15 14 16 18 18 20 20 20 20 20 19 18 17 17 16 16 16 16 18 17 18 18 18 18 17 17 17 16 15 15 14 12
11 13 14 13 13 12 11 12 12 14 14 14 13 12 12 11 11 11 13 14 16 17 19 19 19 20 19 18 17 16 17 17 16 16 19 19 18 19 17 18 17 17 17 16 16 15 14 14 13
13 13 12 11 10 11 11 11 13 14 16 14 11 12 11 11 11 12 12 13 15 16 16 18 19 19 20 19 17 17 16 16 17 16 17 16 19 18 17 17 17 17 16 15 15 15 13 13 13
11 11 10 8 9 7 11 11 13 14 14 14 13 11 11 10 11 12 13 14 15 16 16 17 17 19 19 20 19 17 17 16 16 17 16 17 16 16 16 16 16 17 16 15 14 14 13 13 12
12 11 7 7 6 9 10 10 11 13 13 14 14 12 11 10 10 11 12 11 14 15 16 17 16 17 17 18 18 18 18 17 17 17 17 15 14 15 15 16 16 15 14 14 13 12 12 12 11
11 11 9 9 8 10 10 10 13 12 11 12 13 11 11 10 10 10 10 11 13 14 15 16 16 17 17 17 17 18 17 17 17 17 16 16 15 15 15 14 13 13 12 11 11 11 11 11 10
11 8 10 7 6 6 9 10 12 13 13 12 12 11 10 10 10 10 9 11 13 14 15 14 13 15 16 15 16 17 17 17 17 17 16 15 15 14 13 12 12 12 11 10 11 10 10 9 9
12 10 9 5 8 9 10 10 12 14 14 12 11 11 10 11 10 9 9 11 12 12 13 14 12 13 14 15 14 14 16 16 17 16 15 14 13 12 11 10 10 9 9 10 10 9 9 8 7
10 9 7 8 6 8 9 13 11 12 12 13 11 11 10 10 10 9 9 10 11 11 11 11 11 11 12 13 14 14 13 13 13 13 12 11 11 10 9 8 8 8 9 9 8 8 7 7 6
11 10 8 7 7 5 7 10 12 11 12 12 12 12 12 11 10 9 9 10 11 10 8 9 9 9 10 10 10 10 10 9 9 9 9 9 9 8 8 7 7 7 7 7 7 6 6 5 4

GFSSGP_925_temp_063.txt.gz
Temp
19 20 21 20 22 20 20 21 20 22 23 24 23 24 25 25 26 28 19 19 21 21 20 20 21 20 20 20 20 20 20 20 19 19 18 18 18 17 17 17 17 17 18 18 18 18 18 17 17
19 20 20 18 21 20 21 20 21 22 23 22 22 23 24 27 23 20 19 19 20 20 20 20 20 21 20 20 20 20 20 21 20 19 18 17 17 17 17 17 17 18 18 18 18 18 17 17 17
19 20 20 20 18 20 21 20 22 22 21 22 24 24 24 25 22 20 20 20 20 19 20 20 20 20 20 20 20 20 21 20 20 19 18 18 17 17 17 17 17 18 18 18 17 18 17 17 18
19 18 18 19 18 19 21 21 20 21 23 22 23 25 24 22 22 21 21 19 19 19 19 20 20 20 21 21 20 20 20 20 19 19 18 17 17 17 17 17 18 18 18 18 18 17 17 17 17
17 17 18 17 19 18 18 20 20 21 22 22 22 25 24 21 21 21 20 19 19 20 20 20 20 20 21 21 20 21 20 19 19 19 17 17 16 16 16 17 18 18 17 17 17 17 16 17 17
17 16 17 18 18 19 19 20 21 21 21 23 23 23 24 20 19 19 19 19 19 19 19 19 20 20 20 20 20 20 20 20 19 18 17 17 16 16 16 16 16 17 17 16 17 17 16 17 17
16 16 18 17 20 20 20 19 21 22 22 23 23 24 24 20 19 18 19 19 19 19 19 19 19 20 20 20 20 19 19 19 19 18 17 17 16 16 15 16 16 16 16 16 17 16 16 16 16
15 17 16 16 19 20 20 19 21 21 23 22 22 24 25 21 18 18 18 19 18 18 19 19 19 20 19 19 19 19 18 18 18 18 17 17 16 16 15 16 16 16 16 16 16 16 15 15 16
14 16 16 18 17 19 19 20 20 20 22 21 22 22 20 19 18 18 18 18 18 18 19 19 19 19 19 19 18 18 18 18 18 18 17 17 17 16 16 16 16 16 15 16 16 15 15 16 16
15 15 16 17 18 19 19 20 20 21 20 22 22 20 17 18 18 18 18 18 18 18 18 18 19 19 18 18 18 18 18 17 17 17 17 17 17 17 17 16 16 16 16 16 16 15 16 16 16
14 15 16 17 18 19 19 19 19 20 20 21 21 20 18 18 18 19 19 19 18 18 17 17 18 18 18 18 18 18 18 17 17 17 17 17 17 16 16 16 16 15 16 15 15 15 16 16 16
14 15 16 18 18 18 18 18 19 19 20 20 19 19 19 19 18 19 19 19 19 18 18 18 18 18 18 18 18 18 18 17 17 17 17 17 16 16 16 16 16 16 16 16 15 16 16 16 16
15 15 16 17 18 17 18 17 18 18 18 18 18 18 19 19 19 18 18 18 19 18 18 17 17 18 18 18 19 18 18 18 18 17 17 17 17 17 16 16 16 16 16 16 16 16 16 16 16
15 16 16 16 17 17 17 17 16 17 17 18 17 18 18 19 19 19 18 18 18 18 18 18 17 18 18 18 18 18 19 18 18 18 17 17 17 17 16 16 16 16 16 16 16 16 16 16 16
15 15 15 16 16 17 16 16 15 18 17 18 18 18 17 18 18 19 20 20 20 19 18 18 17 17 18 18 18 19 18 18 18 18 17 17 17 17 17 17 16 16 16 16 16 15 15 16 16
15 15 14 16 16 16 18 17 17 17 16 17 17 17 16 17 18 20 20 21 21 20 19 18 18 18 18 18 18 18 18 18 18 18 18 17 17 17 17 17 16 16 16 16 15 15 15 15 16
14 13 14 16 16 16 18 16 17 16 16 16 16 16 16 16 17 17 19 20 21 21 21 20 19 18 18 18 18 18 18 18 18 18 18 18 18 17 17 17 17 16 16 16 15 15 15 15 15
14 13 13 15 16 15 15 14 15 16 15 16 16 16 16 15 16 18 18 19 20 20 21 21 20 19 19 17 17 17 16 17 17 18 18 18 18 17 17 17 17 16 16 15 15 15 15 15 15
14 14 14 14 15 15 14 14 15 15 15 15 15 16 16 17 17 17 18 19 19 19 19 20 20 20 18 17 16 16 16 16 16 17 17 18 18 18 17 17 17 17 16 16 16 15 14 14 14
15 14 13 14 14 15 13 14 15 16 15 16 16 16 15 15 15 15 15 17 18 19 20 20 19 20 18 17 16 17 17 16 17 16 16 16 17 17 17 17 18 17 16 16 15 15 13 13 13
14 14 12 14 13 12 12 14 15 15 15 14 14 13 14 13 13 13 14 14 16 16 18 19 20 20 19 17 16 16 16 16 16 16 16 17 17 18 18 17 17 18 17 16 16 15 15 13 12
13 13 13 13 13 14 12 15 14 14 13 12 12 12 12 12 12 13 13 13 14 15 16 16 18 18 19 18 16 16 16 17 16 16 16 16 16 17 17 17 16 17 16 16 16 16 15 14 13
11 11 13 12 11 12 12 14 15 14 14 13 13 12 12 12 12 13 13 12 13 15 15 16 16 17 17 17 16 16 16 17 17 16 16 16 16 16 16 16 17 17 17 16 16 15 14 14 13
11 11 10 9 10 11 11 12 15 14 14 14 13 13 12 11 12 12 12 12 13 15 15 15 15 16 17 17 17 16 16 16 15 16 15 15 16 15 15 15 15 15 16 16 16 15 14 13 13
12 12 10 10 10 12 10 10 13 13 13 14 13 13 12 11 12 12 12 12 12 13 14 15 15 15 16 16 16 16 15 15 16 16 15 15 15 14 15 14 14 14 14 14 14 13 13 12 12
11 12 11 12 11 12 10 11 14 12 11 13 13 12 11 11 11 11 11 11 12 13 13 14 14 15 15 15 15 15 15 15 15 15 16 15 15 15 14 13 13 14 13 13 12 12 11 11 11
11 11 10 7 6 8 11 11 13 12 12 12 12 12 12 12 11 11 11 11 11 12 12 12 13 13 13 14 15 15 15 16 16 15 15 14 14 14 14 13 12 12 11 10 10 10 10 10 10
12 10 10 7 9 12 11 11 13 12 13 13 12 12 12 11 11 10 10 10 10 11 10 11 11 11 11 12 13 14 14 14 15 15 15 14 14 13 12 12 11 10 10 9 9 9 8 9 8
10 9 8 8 8 11 12 14 11 13 13 12 12 12 11 11 10 10 10 9 9 9 9 9 9 10 10 10 10 11 12 12 12 12 12 11 11 11 11 10 10 9 8 8 8 8 8 7 7
11 10 9 8 9 7 8 13 12 11 11 10 11 12 11 10 9 9 8 8 7 6 7 7 8 8 8 9 9 8 8 8 8 8 9 9 9 9 9 9 8 7 7 6 7 6 6 6 4

GFSSGP_925_temp_066.txt.gz
Temp
18 19 21 24 25 26 26 27 27 27 27 28 28 28 30 29 31 30 23 23 23 23 22 20 21 21 21 21 20 20 20 20 20 19 18 18 18 18 18 18 18 18 18 18 18 18 17 17 17
19 20 22 25 25 25 27 27 26 28 28 28 27 27 28 30 29 26 25 22 23 23 23 22 21 21 21 20 20 20 20 20 20 19 18 18 18 18 18 17 17 18 18 18 18 18 17 17 17
19 20 25 25 25 25 27 27 28 27 27 27 28 28 29 30 28 26 23 22 23 23 23 22 21 21 20 20 20 20 20 20 20 19 18 18 17 17 17 17 18 18 18 18 18 18 18 17 16
20 22 24 24 24 26 27 27 26 26 27 27 27 29 29 26 27 25 22 22 23 23 23 21 21 20 20 20 20 20 20 20 20 19 18 17 17 17 17 18 18 18 18 18 18 17 18 17 16
20 24 23 23 25 26 26 27 26 26 26 27 27 29 29 26 23 23 22 23 23 23 23 20 20 20 20 21 20 20 20 20 20 19 18 17 17 17 17 17 18 18 18 18 17 17 17 17 17
21 23 23 23 24 26 25 26 27 26 27 27 28 28 29 24 23 22 22 23 22 22 22 21 20 20 20 21 20 20 20 20 19 19 18 17 17 16 17 17 18 18 17 17 16 17 17 17 16
21 22 23 25 25 25 25 26 26 27 27 27 28 28 29 26 22 21 22 23 22 22 22 21 20 20 20 20 20 20 20 20 19 19 18 17 16 16 16 17 17 17 17 16 16 16 16 16 16
22 22 23 24 24 24 26 24 26 26 27 28 28 28 29 25 21 19 19 23 22 20 22 21 21 21 20 20 20 20 20 19 19 19 18 17 17 16 16 16 16 17 16 16 16 16 16 16 17
20 21 22 23 23 24 25 24 25 26 27 26 27 27 25 23 19 19 19 22 20 19 22 22 22 21 21 21 20 19 19 19 18 18 18 17 18 17 16 17 16 16 16 16 16 16 16 17 17
20 21 23 24 24 23 22 24 25 25 25 26 26 25 22 23 19 20 19 20 19 19 19 21 21 21 21 20 20 20 20 19 19 18 17 18 19 18 18 16 16 16 16 16 16 16 16 16 17
19 20 23 20 21 22 22 23 24 25 24 27 26 26 23 21 20 20 20 20 19 19 19 19 20 21 21 20 20 20 20 20 20 19 19 19 18 17 17 17 16 16 16 16 16 15 17 17 18
18 20 20 21 20 20 21 23 23 24 26 25 25 24 24 23 21 20 20 20 20 19 19 18 19 18 20 20 20 20 20 19 20 19 19 19 18 18 18 18 18 17 17 18 18 18 17 17 17
17 19 20 21 20 20 20 21 23 23 24 23 23 22 24 24 23 20 20 20 20 20 19 19 18 18 20 20 20 20 20 19 19 19 19 19 19 18 18 18 18 18 18 18 18 17 17 17 17
18 19 19 20 20 19 19 20 20 22 24 23 23 23 23 23 23 23 21 20 20 20 20 19 18 18 18 20 20 20 20 19 19 19 19 18 19 18 18 18 17 17 17 18 18 17 17 17 17
18 17 18 19 19 19 20 19 20 22 23 23 23 23 23 23 23 23 23 23 23 22 21 20 19 18 17 19 19 19 19 19 19 19 19 18 18 18 18 18 18 17 17 17 17 17 17 17 16
17 17 17 19 19 19 20 20 21 22 22 23 23 24 24 23 23 23 23 23 23 22 22 22 20 18 18 18 19 19 19 19 19 19 19 18 18 18 18 18 18 18 17 17 17 17 16 16 16
17 17 18 18 19 20 19 20 22 22 21 22 22 23 23 23 23 23 22 22 22 22 22 22 21 20 18 18 18 18 18 18 19 19 19 18 18 18 18 18 18 18 17 17 17 16 16 16 16
17 17 18 18 18 19 19 19 19 20 19 21 22 22 22 22 23 23 22 22 22 22 22 22 22 21 20 17 17 17 17 17 18 19 19 18 18 18 17 18 18 18 17 16 16 16 15 16 16
20 18 17 18 18 18 19 19 19 20 21 21 22 22 23 23 23 21 21 20 20 20 20 21 21 21 21 19 17 16 16 17 16 17 18 18 18 18 17 17 18 18 17 16 16 16 15 14 15
18 18 18 16 18 18 17 18 19 19 20 20 21 22 22 21 21 21 20 20 20 20 20 20 20 21 21 21 18 18 18 17 17 16 17 17 17 17 17 17 17 17 17 17 16 15 14 15 14
17 18 18 17 16 16 17 19 19 18 18 18 18 18 18 18 18 19 18 18 17 18 19 19 19 19 20 20 21 19 18 17 17 16 16 16 16 16 16 16 16 16 16 16 16 15 14 14 13
14 17 17 16 17 18 16 20 18 17 16 17 18 18 18 18 18 18 18 17 16 16 15 16 17 17 18 18 19 20 19 18 17 18 17 17 16 16 16 16 16 15 15 16 15 14 14 15 13
12 16 16 16 16 16 16 18 18 18 17 17 17 17 17 17 17 17 17 16 15 14 14 14 15 16 16 17 18 19 19 19 19 18 18 18 16 16 15 15 15 15 14 15 15 14 13 14 14
11 13 14 15 15 15 17 16 18 18 18 17 17 17 17 17 17 17 16 16 16 15 15 15 15 15 15 15 16 17 18 18 18 18 18 18 16 15 15 15 14 14 14 14 14 13 13 13 13
11 13 13 14 14 17 13 15 18 17 17 18 17 17 16 17 17 17 17 16 15 15 14 15 15 15 15 15 15 16 17 17 18 18 17 17 16 15 15 14 14 14 14 13 13 12 11 12 12
13 15 16 16 16 17 13 16 18 15 16 17 16 16 15 16 16 16 16 15 15 15 14 14 14 15 14 15 15 15 15 16 16 16 17 17 17 15 14 14 13 13 13 13 12 11 11 10 10
14 14 14 12 12 15 17 16 16 15 16 16 16 16 16 15 15 15 15 14 14 14 13 12 12 13 13 13 13 14 14 14 14 15 15 15 15 15 14 14 13 13 13 12 12 11 10 9 9
15 14 14 13 15 16 16 17 18 15 16 16 17 17 16 15 15 14 14 13 13 12 12 11 11 11 11 11 11 11 12 12 12 13 13 13 13 12 12 12 12 12 12 11 10 9 9 8 7
13 13 12 14 14 17 18 19 19 17 17 17 16 16 15 15 14 14 13 12 11 11 10 10 10 10 10 9 9 8 9 9 9 10 10 9 9 9 10 10 11 10 10 9 9 8 7 6 6
14 14 15 15 13 12 14 17 17 18 16 15 16 15 15 14 13 13 12 11 11 10 9 9 8 9 8 8 9 8 9 9 9 9 8 8 8 9 9 9 8 8 7 7 6 5 5 5 3

GFSSGP_925_temp_069.txt.gz
Temp
18 20 23 25 26 27 27 29 30 29 29 31 30 30 32 32 33 30 26 26 27 25 23 21 21 21 21 21 20 20 20 20 20 20 19 18 18 18 18 18 18 18 18 18 19 18 17 17 17
20 22 24 26 25 26 27 30 28 30 30 30 30 30 30 31 32 29 27 25 26 25 23 22 21 21 21 20 20 20 20 20 20 20 18 18 19 18 18 18 18 18 18 18 18 17 17 17 17
19 22 25 25 25 26 28 30 30 30 30 29 30 31 32 31 30 29 26 25 26 26 24 22 21 21 21 21 20 20 20 20 20 20 19 18 18 18 18 18 18 18 18 18 18 17 17 17 17
21 23 25 25 25 27 28 31 30 30 29 29 30 30 31 29 29 27 25 26 26 26 25 22 21 21 20 21 20 20 20 20 20 20 19 18 17 17 17 17 18 18 18 18 18 18 18 17 17
22 24 23 24 25 28 29 30 29 29 30 30 29 30 31 28 26 26 25 26 26 26 23 21 21 20 20 20 20 20 20 20 20 19 18 17 17 17 17 18 18 18 18 18 17 17 17 17 17
21 24 24 24 26 27 29 30 29 29 30 30 29 30 30 27 27 26 26 26 26 26 22 21 20 21 21 21 21 20 20 20 20 19 18 17 17 17 17 17 18 18 18 17 17 17 17 16 17
22 23 24 26 27 27 28 29 28 29 29 29 30 29 30 28 25 26 26 26 25 25 22 21 21 20 20 20 20 20 20 20 19 19 18 17 17 17 17 17 18 17 17 17 16 17 17 17 17
22 24 23 25 26 27 29 29 28 29 29 31 30 29 30 27 24 24 26 26 25 24 24 22 21 21 21 20 20 20 20 20 19 19 19 17 17 17 17 17 17 17 17 17 16 17 17 17 17
22 22 23 24 25 27 29 27 28 29 29 30 29 30 27 26 22 22 23 26 24 23 25 23 22 22 22 22 20 20 20 19 19 18 19 18 18 17 17 17 17 17 17 17 17 16 16 17 17
19 21 23 26 26 26 27 26 27 27 27 28 29 29 26 26 22 22 22 25 22 21 25 25 24 24 24 23 21 20 20 19 19 18 18 19 20 19 19 17 17 17 16 16 16 16 17 17 17
19 21 23 26 23 25 24 24 27 27 27 28 28 29 27 27 24 22 21 21 20 20 21 24 24 24 23 23 22 22 22 21 21 20 19 20 20 19 18 17 16 16 16 16 16 16 16 18 19
19 21 23 24 22 21 22 24 26 26 28 29 29 28 27 26 25 23 22 22 22 20 20 20 23 24 24 23 22 23 22 22 22 22 21 21 20 19 19 19 18 18 17 18 17 18 18 19 19
19 21 22 22 21 22 23 23 25 26 27 27 26 25 26 26 26 23 22 22 24 23 20 19 20 21 23 23 22 22 22 22 22 22 21 21 20 20 20 20 20 19 19 19 19 19 19 19 19
19 20 20 21 21 21 20 22 23 25 27 26 25 25 26 26 26 25 22 21 22 23 23 20 19 19 20 23 23 22 22 22 21 21 21 21 21 20 20 20 20 19 19 19 19 19 19 19 19
19 18 19 20 21 20 21 20 21 24 25 25 25 26 26 26 25 25 25 24 23 23 22 22 20 19 19 21 22 22 22 22 21 21 21 20 20 20 20 20 19 19 19 19 19 19 19 19 18
17 18 17 19 20 20 20 20 23 23 23 24 25 26 26 25 25 25 25 25 25 25 24 23 22 20 19 18 21 22 22 21 21 21 21 20 20 20 20 20 20 19 19 19 19 19 18 18 18
17 16 18 20 21 20 19 20 23 23 23 24 25 26 26 26 26 25 25 25 25 24 24 24 24 22 20 19 19 21 21 22 21 21 21 21 20 20 19 19 20 20 19 19 19 19 18 18 18
17 18 20 20 20 20 20 20 22 22 22 23 25 25 25 25 25 25 25 24 24 24 24 24 24 23 22 21 19 18 19 21 21 21 21 21 20 20 19 19 19 20 19 18 18 18 18 18 17
20 20 20 21 20 20 20 21 21 22 21 22 23 24 25 25 25 25 24 24 23 23 23 24 24 23 23 23 19 17 17 18 19 20 21 21 20 20 19 19 19 19 19 18 17 18 17 17 17
19 20 20 21 20 18 20 20 22 22 21 22 22 24 24 25 25 24 23 22 22 22 22 22 23 23 23 23 22 18 17 17 17 17 18 19 20 19 19 19 19 19 19 19 17 17 17 16 16
16 19 20 19 19 18 19 19 20 21 21 22 21 21 22 22 22 22 22 21 20 21 21 22 22 22 23 23 23 20 20 20 18 17 17 17 17 19 18 18 18 18 19 19 18 17 17 16 15
16 20 21 19 17 17 18 20 21 22 19 19 20 20 21 20 20 20 19 19 18 18 18 18 19 20 21 21 22 22 22 21 20 19 18 17 17 16 17 17 17 17 18 18 18 18 17 16 15
15 18 20 19 18 18 17 18 21 19 18 19 20 19 19 19 20 19 18 18 17 16 16 16 17 17 18 19 19 20 21 21 21 20 20 19 18 17 16 16 16 16 17 17 17 17 17 15 15
15 17 17 17 17 16 20 19 18 19 20 19 19 19 19 19 19 19 18 18 17 16 16 16 17 17 17 17 18 18 19 20 20 20 20 20 19 18 17 15 15 15 15 16 15 15 15 15 15
13 13 14 14 14 18 18 17 20 19 20 19 19 19 18 19 19 19 18 18 17 16 16 16 17 17 17 17 17 17 18 19 19 19 19 19 19 18 17 16 15 15 15 15 15 14 14 13 14
11 12 15 17 17 19 16 17 20 19 19 19 19 18 18 18 18 18 18 17 17 16 15 15 15 16 16 16 16 17 17 17 18 18 18 18 18 18 17 16 15 14 14 14 14 14 14 13 12
11 13 16 16 17 18 18 19 18 17 18 18 18 18 18 18 17 17 17 16 16 15 15 14 14 14 14 14 14 15 16 16 15 16 16 17 17 17 16 14 13 13 13 13 13 13 13 12 11
14 15 15 14 16 18 19 20 19 16 17 18 18 18 18 17 17 17 16 15 15 14 13 13 13 13 12 12 12 12 12 12 13 13 14 14 15 14 13 12 12 12 12 12 12 12 11 11 10
14 15 15 15 16 19 19 20 20 18 18 18 18 17 17 17 16 16 15 15 13 13 12 12 12 11 11 11 11 11 11 11 11 11 11 11 11 11 11 10 10 10 10 10 10 10 9 9 8
16 16 17 15 15 15 15 17 20 19 18 18 17 17 17 16 15 14 14 13 13 12 11 11 11 11 10 10 11 10 11 11 11 10 10 9 9 9 8 9 8 8 8 8 8 8 7 6 4

GFSSGP_925_temp_072.txt.gz
Temp
23 21 21 23 21 23 23 26 29 29 30 30 29 30 27 28 28 25 27 27 24 22 20 21 21 21 21 21 21 21 20 20 20 20 20 19 18 18 18 19 19 18 18 19 18 17 17 17 17
21 21 22 21 21 22 24 27 28 29 27 28 29 29 29 30 28 26 26 27 25 22 20 21 21 21 21 20 20 20 20 21 21 21 20 19 19 18 18 18 18 18 18 18 17 17 17 17 17
21 20 20 21 21 22 24 27 28 29 28 29 30 30 30 28 28 27 26 26 25 23 21 21 21 21 20 20 20 20 20 21 20 20 20 20 18 18 18 18 18 18 18 18 18 18 17 17 17
19 18 20 20 22 24 25 28 30 28 28 29 30 29 28 28 28 26 25 26 25 24 23 21 21 21 20 20 20 20 20 21 20 20 19 18 18 17 17 17 18 18 18 18 18 18 17 17 17
19 15 17 19 22 25 26 28 29 29 27 28 29 29 26 27 27 26 26 26 26 24 23 22 21 21 20 20 20 20 20 20 20 19 18 17 17 17 18 18 18 18 18 18 18 17 18 17 17
17 18 17 18 21 25 27 28 28 28 28 28 28 27 25 27 26 26 26 26 25 23 21 22 21 20 21 20 20 20 20 20 19 18 18 17 17 17 17 18 18 18 18 17 17 17 17 17 17
19 19 18 19 22 25 26 28 27 27 28 28 30 28 25 25 26 26 26 27 24 22 21 21 20 20 20 21 20 20 20 20 20 19 18 17 17 17 17 18 18 18 17 17 16 17 17 17 18
19 19 19 20 22 25 28 28 27 27 26 29 29 27 23 24 26 26 26 26 23 22 22 21 20 20 20 20 20 20 21 20 20 19 18 18 18 18 17 17 18 17 17 17 17 17 17 17 18
20 18 18 20 23 24 27 27 28 28 27 28 27 28 25 24 23 24 26 26 25 23 22 22 21 21 21 21 20 20 20 20 19 20 19 18 18 18 17 17 17 17 17 17 17 17 17 18 18
18 18 19 22 24 25 25 26 26 26 26 25 27 25 25 22 23 22 24 24 24 23 23 22 22 22 22 21 21 20 20 20 20 19 19 18 18 18 18 17 17 17 17 17 17 17 18 18 18
18 17 20 22 23 22 24 24 26 25 24 25 26 25 25 24 23 22 23 23 22 22 22 23 23 23 23 22 21 20 20 20 19 19 19 19 19 19 18 18 17 16 16 16 16 17 18 18 17
18 19 20 23 22 22 23 24 24 25 25 26 26 27 24 25 22 22 22 22 21 21 21 23 24 24 24 23 22 21 21 21 21 20 20 19 20 19 18 18 17 17 17 17 17 17 18 18 18
17 19 21 21 22 21 22 22 22 23 26 26 24 24 26 24 24 24 22 22 21 21 21 21 22 24 24 23 22 22 22 22 22 21 21 20 20 20 19 19 18 18 17 18 18 17 18 18 19
18 19 20 21 21 21 21 21 22 22 24 25 24 24 25 26 26 24 23 22 23 22 21 21 21 22 23 23 22 22 22 22 22 22 21 21 21 20 20 20 19 19 19 19 19 19 19 19 19
18 17 18 20 20 20 20 19 20 22 23 23 23 23 24 24 25 25 23 22 22 23 22 20 21 21 22 22 23 22 22 22 21 21 21 21 21 20 20 20 20 19 19 19 19 19 19 19 19
16 17 16 19 19 20 19 18 20 22 21 21 22 22 22 23 24 25 25 24 22 23 22 22 21 20 20 20 21 22 22 22 21 21 21 21 20 20 20 20 20 19 19 19 19 19 19 19 19
15 15 15 17 19 20 18 18 21 22 21 21 21 21 22 22 23 25 25 25 25 25 23 22 22 20 20 19 20 21 22 22 21 21 21 20 20 20 20 20 20 19 19 19 19 19 19 18 18
15 15 16 17 18 19 18 17 21 21 22 21 21 22 22 22 23 25 25 25 25 25 25 24 23 22 21 20 19 20 20 21 21 21 21 21 20 20 20 19 19 19 19 18 19 19 18 18 18
16 17 17 18 20 18 18 18 19 20 20 19 20 20 22 23 24 25 25 25 24 24 24 24 24 24 22 20 19 19 19 20 21 21 21 21 21 20 20 19 19 19 19 19 18 18 18 18 18
16 17 18 19 19 18 18 18 20 20 20 19 20 20 21 22 22 23 23 23 22 22 23 23 23 23 23 23 21 20 19 19 18 19 20 21 20 20 20 20 19 19 19 19 18 18 18 18 17
16 15 16 19 18 18 18 17 19 20 20 20 20 20 19 20 19 19 19 20 20 21 21 21 22 22 23 23 23 20 19 18 18 17 18 19 19 19 19 19 19 19 19 19 19 18 17 17 17
15 17 16 19 16 14 16 15 18 20 19 19 19 18 18 19 19 18 17 18 17 17 18 19 20 20 21 22 22 21 19 18 18 19 19 18 17 17 18 17 18 18 18 19 18 18 16 16 15
13 14 18 16 16 16 15 14 19 19 19 17 17 17 18 18 17 16 17 17 16 16 16 16 17 18 19 19 19 20 20 20 20 20 19 19 18 18 18 17 18 17 18 18 18 18 17 16 15
11 12 14 16 16 13 16 14 16 17 18 17 17 17 17 17 16 16 18 17 16 16 16 16 17 17 17 17 18 18 19 19 20 20 20 20 20 19 18 17 16 16 16 16 17 17 17 16 15
10 10 13 13 13 13 17 15 17 18 19 18 17 16 16 17 16 16 16 16 16 16 16 16 16 16 16 17 17 17 17 18 18 19 19 19 19 19 18 17 17 16 16 15 15 16 15 15 15
10 12 14 14 13 14 16 14 16 17 18 18 17 16 16 16 15 15 15 16 16 15 14 14 15 14 14 14 15 16 16 17 17 17 18 18 18 18 18 17 17 16 15 15 15 15 15 14 14
11 12 12 13 15 12 13 16 16 17 16 16 16 16 15 15 15 15 15 15 15 14 14 13 13 13 12 13 13 14 14 14 14 15 15 16 16 15 15 15 15 15 13 13 13 13 13 14 14
11 13 12 12 14 15 15 15 14 14 15 16 15 15 15 15 15 14 14 14 14 13 13 12 12 12 12 12 11 11 12 12 12 13 13 13 13 13 13 13 12 12 12 12 12 12 12 12 12
11 11 14 14 14 13 13 15 17 15 15 15 15 16 15 15 14 13 13 13 13 12 12 11 11 11 10 11 11 11 11 11 11 10 10 10 10 10 10 10 10 9 9 9 10 10 10 10 10
15 15 15 10 12 11 11 13 17 15 15 15 15 16 15 14 13 13 12 13 12 11 11 10 10 9 9 10 10 9 9 9 9 8 8 8 8 8 8 8 8 8 8 7 7 7 7 7 6

GFSSGP_925_temp_075.txt.gz
Temp
20 21 23 21 18 17 19 21 24 27 27 26 27 26 27 26 26 24 25 25 23 21 20 21 21 21 21 21 21 21 20 20 20 20 19 19 18 18 19 18 18 18 19 18 17 17 17 17 17
20 20 22 17 17 17 18 22 23 25 26 27 27 27 27 25 24 24 22 22 22 21 20 21 21 21 21 21 21 21 20 20 21 21 20 20 19 19 19 18 18 18 18 17 17 17 17 17 17
20 20 17 16 16 17 19 23 23 25 26 28 28 27 26 25 24 25 24 22 22 21 20 20 21 20 21 21 21 20 20 21 21 20 20 20 18 18 18 17 17 18 18 18 18 18 17 17 18
19 18 18 16 17 19 21 22 24 25 26 27 27 27 24 25 26 26 23 22 23 21 21 20 21 20 20 21 20 20 21 21 20 20 20 19 18 17 17 18 18 18 18 18 18 18 17 18 18
17 15 16 16 17 19 21 23 23 26 25 27 27 25 23 24 25 25 23 23 22 21 21 20 20 20 20 20 20 20 20 21 20 19 18 17 17 17 18 18 18 18 18 18 18 18 18 18 18
14 16 16 17 17 20 22 23 24 26 25 25 26 25 23 25 25 26 24 23 23 22 21 21 20 20 20 20 20 20 20 20 19 18 17 17 17 18 18 18 18 18 18 17 17 18 18 18 18
15 15 17 17 18 20 21 24 25 26 25 25 26 23 21 23 25 26 25 23 22 22 21 21 20 20 20 20 20 20 21 20 19 18 18 17 17 17 18 18 18 18 17 17 17 18 18 18 18
15 15 17 17 18 19 22 23 25 25 25 27 26 22 21 23 25 25 23 22 22 21 21 21 20 20 20 20 20 20 21 20 19 18 18 17 17 17 18 18 18 17 17 16 17 17 18 18 18
15 16 17 18 18 20 23 22 25 26 27 26 25 22 22 24 24 24 22 21 21 21 21 21 21 20 21 21 20 21 20 20 20 19 18 18 18 17 17 17 17 17 17 17 17 18 18 18 18
14 15 18 20 20 21 22 22 21 21 25 24 21 21 23 24 24 22 23 21 20 20 21 21 21 21 21 21 21 20 20 20 20 20 19 18 18 18 17 17 17 17 17 17 17 17 18 18 18
16 16 19 20 21 21 20 18 24 22 23 24 21 20 20 21 21 21 22 22 21 21 21 22 22 22 21 21 21 20 20 20 20 20 19 19 18 18 18 17 17 17 17 16 17 17 18 18 18
15 17 19 20 20 20 20 21 23 22 23 22 22 21 19 19 19 20 20 21 22 22 21 21 22 22 21 21 20 20 20 20 20 19 19 19 18 18 18 18 17 17 16 16 17 17 18 18 18
14 17 19 19 19 18 19 20 22 22 23 22 22 22 21 19 19 22 22 21 22 22 22 21 21 21 22 21 21 21 21 20 20 20 20 19 18 19 19 18 18 17 17 17 17 18 18 18 18
16 17 17 18 17 19 20 20 21 22 22 22 22 23 23 22 20 20 21 21 21 22 23 22 22 22 22 22 22 21 21 21 20 20 20 20 19 19 19 19 18 18 18 18 18 18 18 18 18
16 15 15 16 18 18 20 19 19 21 20 20 19 21 23 23 23 21 21 22 21 21 22 23 23 22 21 22 22 22 22 22 21 21 21 20 20 20 20 19 19 19 18 18 18 18 18 18 18
16 16 14 16 18 19 18 17 19 20 20 20 20 19 20 22 23 24 23 22 22 22 21 21 22 22 22 21 21 22 22 22 22 21 21 21 21 20 20 20 19 19 19 19 19 19 19 19 18
14 14 14 16 17 18 17 17 19 20 20 18 19 20 19 19 20 24 25 23 22 22 22 21 21 22 22 22 21 21 21 22 22 21 21 21 21 20 20 20 20 19 19 19 19 19 19 19 18
14 13 14 14 17 16 16 17 19 20 19 18 18 19 19 19 20 23 25 25 24 23 22 22 21 21 21 22 21 21 20 22 22 21 21 21 20 20 20 20 20 20 19 19 19 19 19 19 18
14 13 14 14 16 16 15 16 17 18 19 17 17 18 19 19 21 23 24 24 24 24 23 22 22 21 20 20 20 20 20 21 21 21 21 21 21 20 20 20 20 19 19 19 19 18 18 18 18
14 14 14 16 17 16 15 16 17 18 17 18 18 18 19 19 17 18 20 21 22 22 22 22 23 22 21 21 20 20 21 21 21 21 20 20 20 20 20 20 20 19 19 19 19 18 18 18 18
14 13 14 16 17 17 15 15 16 18 18 17 19 19 19 19 18 17 17 18 19 20 20 21 21 22 22 20 20 19 19 19 20 20 20 20 19 19 19 19 19 19 19 19 19 19 18 17 17
14 15 16 16 15 12 15 12 14 17 19 18 18 17 17 18 17 15 15 16 17 17 18 19 20 20 20 21 20 19 19 18 19 20 21 21 20 19 19 19 18 18 19 19 19 18 18 17 16
13 13 14 15 14 14 14 13 13 16 18 19 16 15 16 15 15 15 15 16 16 16 16 17 18 18 19 19 19 18 18 18 18 19 19 19 19 19 19 19 19 17 17 17 17 17 16 16 15
12 12 13 13 13 13 12 12 12 14 18 17 16 14 15 14 14 15 16 16 15 16 16 16 16 16 17 17 18 18 18 18 18 18 17 18 19 18 18 18 18 17 16 16 17 16 16 16 16
12 11 13 13 13 11 13 12 14 16 17 17 15 14 14 14 14 14 13 14 15 15 15 15 15 15 15 16 16 16 17 17 17 17 18 18 18 18 18 18 18 17 17 17 17 16 15 15 15
11 11 13 14 11 12 14 12 15 14 15 16 16 14 14 13 13 13 13 14 14 14 14 14 13 13 14 14 14 14 15 15 15 16 16 16 16 16 17 17 16 16 15 15 14 14 14 14 15
11 11 10 11 13 11 12 14 15 14 13 14 15 15 13 13 12 13 13 13 12 13 12 12 12 12 12 12 13 13 13 13 13 14 14 14 14 14 15 15 15 15 15 14 14 13 13 13 13
11 12 11 10 12 13 12 12 13 14 13 13 14 14 13 13 12 12 12 12 12 12 12 12 11 11 11 11 11 11 11 11 11 12 12 12 12 12 13 13 13 12 12 13 12 12 12 12 12
11 11 11 12 11 12 10 13 13 14 14 13 13 13 13 13 12 11 10 11 11 11 11 10 10 10 10 10 10 10 10 10 10 10 10 10 10 10 11 11 11 10 9 9 9 9 9 9 9
13 12 13 10 11 10 9 13 15 12 12 13 13 13 13 12 11 10 10 11 10 10 10 9 9 9 9 9 9 8 8 8 8 8 8 8 9 9 9 9 9 8 8 7 7 7 7 7 7

GFSSGP_925_temp_078.txt.gz
Temp
20 20 19 20 18 16 17 19 22 24 26 26 26 25 25 24 26 24 22 21 22 21 21 21 21 21 21 21 21 20 20 20 20 19 19 18 18 18 18 18 18 18 18 17 17 17 17 17 17
20 20 19 16 16 16 17 19 22 22 24 24 24 25 24 24 23 20 20 21 23 21 20 20 21 21 21 20 20 20 20 20 20 20 20 19 19 18 18 18 18 18 18 17 17 17 17 18 17
19 19 18 18 15 16 18 21 23 24 24 25 27 25 24 24 23 22 22 20 21 20 20 20 20 20 20 20 20 20 20 20 20 20 20 20 19 19 18 18 18 18 18 17 18 18 19 18 18
18 18 16 18 16 17 19 20 20 22 24 26 25 23 23 24 24 23 21 21 20 20 20 20 20 20 21 20 20 20 20 20 20 20 20 20 19 18 18 18 18 18 18 18 18 19 19 18 18
17 15 16 15 17 17 20 20 20 21 22 26 26 23 23 24 24 22 21 21 21 20 21 20 20 20 20 20 20 20 20 20 20 19 19 18 18 18 18 18 18 18 18 18 18 19 19 19 18
14 15 16 16 17 20 21 21 20 21 22 25 23 22 22 23 21 21 21 21 21 21 20 20 20 20 20 20 20 20 21 20 19 18 18 17 17 17 18 18 18 18 18 17 19 19 19 19 18
14 14 15 16 18 20 22 22 21 21 22 25 23 21 21 22 23 21 21 21 21 21 20 20 20 20 20 20 20 20 20 20 19 18 17 17 17 18 18 18 18 18 18 18 18 18 18 19 19
14 14 16 16 19 19 22 22 22 21 21 24 22 20 20 22 22 22 21 21 21 21 21 20 20 20 20 20 20 20 20 20 19 18 17 17 17 18 18 18 18 18 18 18 18 18 18 19 19
15 13 17 17 18 19 22 22 23 21 21 23 22 21 22 22 21 20 19 19 19 19 20 20 20 20 20 20 20 20 20 20 19 19 18 18 17 17 18 18 18 18 17 17 17 17 18 19 19
15 13 15 18 19 19 19 19 17 19 20 20 20 20 21 21 20 19 19 19 19 19 20 20 20 20 20 21 21 20 20 20 19 19 18 18 19 17 17 17 17 17 17 17 17 17 17 18 18
14 15 18 19 20 20 16 16 18 19 18 21 20 20 19 19 20 19 19 19 20 20 20 20 20 20 21 21 21 20 20 20 19 19 19 18 18 18 17 17 17 17 17 17 16 16 17 18 18
14 16 17 19 19 17 17 18 16 18 19 21 20 20 18 18 19 20 20 20 20 20 20 20 21 21 20 21 20 20 20 20 19 19 19 19 18 18 17 17 17 17 17 17 17 17 17 18 18
14 15 17 18 18 18 17 17 18 19 22 21 21 18 19 18 18 20 21 20 20 20 20 20 20 20 20 21 20 20 20 19 20 19 19 18 18 18 18 18 18 17 17 17 17 17 17 18 17
15 15 16 18 17 18 19 19 20 21 20 21 20 19 17 18 19 19 19 20 20 21 21 21 21 20 20 21 21 20 20 20 20 20 19 19 19 19 19 18 18 18 17 18 17 18 18 18 18
14 14 15 16 16 17 18 18 18 20 20 21 20 18 19 18 19 19 21 21 22 21 21 21 21 21 21 20 21 21 21 21 20 20 20 19 19 19 19 19 19 19 18 18 18 18 18 18 18
13 14 14 16 16 17 19 17 18 19 20 20 20 19 19 20 19 21 22 22 21 22 21 21 21 21 21 21 21 20 21 21 21 20 20 20 20 20 19 19 19 19 19 18 18 18 18 18 18
13 12 13 15 16 17 17 17 19 19 18 19 19 18 18 19 20 20 21 22 22 21 22 22 21 21 21 21 21 21 21 21 21 21 21 21 20 20 20 20 20 19 19 18 18 18 18 18 17
13 14 13 13 15 16 16 16 18 19 18 17 18 17 17 18 19 22 22 23 23 22 21 22 22 22 21 21 21 21 21 21 21 21 21 21 21 20 20 20 20 19 19 19 18 18 18 18 18
13 13 14 14 15 16 15 16 17 18 18 17 17 17 17 18 19 21 23 22 22 23 22 21 21 22 22 20 20 20 20 20 21 21 21 21 21 21 20 20 20 20 19 19 19 19 18 18 18
14 13 13 14 15 15 15 16 16 17 17 17 17 17 18 19 18 17 19 20 20 21 21 21 20 20 20 20 20 21 21 20 20 21 21 20 20 20 20 20 20 20 19 19 19 18 18 18 18
13 13 12 15 15 14 15 14 15 16 16 17 17 17 18 17 17 16 16 17 18 19 19 20 21 21 20 19 19 19 19 19 20 20 20 20 20 20 20 20 19 19 19 19 19 19 18 17 17
13 13 14 14 14 12 15 13 13 16 16 17 16 16 16 16 15 14 15 16 17 17 18 19 19 19 20 20 19 19 18 18 20 21 21 21 20 19 18 18 19 19 18 18 18 19 18 17 16
13 14 14 14 13 14 14 13 13 15 15 16 18 18 15 14 13 13 14 15 16 16 17 18 18 18 18 18 19 19 17 18 18 18 18 19 19 19 19 18 18 19 18 17 17 17 17 17 15
12 13 13 13 13 13 12 12 11 14 16 17 18 16 14 13 13 13 14 15 15 15 15 16 16 15 16 17 17 17 18 18 17 18 18 19 19 19 19 19 18 18 18 18 16 16 15 16 15
11 11 11 12 13 11 11 12 15 14 15 15 16 14 13 12 12 12 12 13 14 14 14 14 14 14 14 15 15 16 16 17 17 17 18 18 18 17 18 18 18 18 17 17 16 16 15 15 15
12 11 9 11 11 12 12 12 14 14 12 14 14 14 13 12 11 12 12 13 13 13 13 13 13 13 13 13 14 14 14 15 15 15 15 16 16 16 17 17 17 16 16 15 15 15 15 14 13
11 12 11 10 12 8 11 12 13 13 13 12 12 13 12 12 11 11 11 12 12 12 12 12 12 12 12 12 12 12 13 13 13 13 14 14 14 14 14 15 15 15 14 15 15 15 14 13 13
12 11 11 11 12 11 11 12 13 13 12 12 12 11 11 12 11 10 10 11 11 11 11 11 11 11 10 10 11 11 11 11 11 12 12 12 12 12 13 13 13 13 13 14 13 12 12 12 11
11 11 11 11 9 10 9 12 12 13 13 12 11 11 11 11 11 10 9 10 10 10 10 10 10 10 10 10 10 10 9 9 10 10 10 10 10 10 11 10 11 11 11 10 9 9 9 8 8
12 12 11 8 11 7 7 11 12 12 12 12 11 12 11 11 11 9 9 9 9 9 9 9 9 9 8 8 9 8 8 8 8 8 8 8 9 9 9 9 9 9 8 7 6 6 6 7 7

GFSSGP_925_temp_081.txt.gz
Temp
18 19 19 19 18 16 17 19 20 22 24 24 25 25 24 24 25 24 20 21 21 20 20 21 21 21 21 20 20 20 20 20 20 19 19 18 18 19 18 18 18 18 17 17 17 17 17 17 17
18 19 19 15 16 16 17 18 21 22 22 22 24 23 24 24 22 19 19 19 22 20 20 20 21 21 21 20 20 20 20 20 20 19 19 18 18 18 18 18 18 18 17 17 17 17 16 16 16
18 18 18 17 15 16 18 20 21 20 20 23 25 23 23 23 20 20 21 19 20 20 20 20 21 21 21 20 20 20 20 20 20 20 19 18 18 18 18 18 18 18 18 18 18 18 17 16 17
18 17 17 18 16 17 19 19 19 19 21 22 24 22 23 23 22 23 20 20 20 20 20 20 20 20 20 20 20 20 20 20 20 20 19 18 18 18 18 18 18 18 19 19 19 18 17 17 17
16 14 16 16 17 18 19 20 20 20 20 20 22 22 22 21 23 21 19 19 19 20 20 20 20 20 20 20 20 20 20 20 19 19 19 18 18 18 18 18 18 18 19 18 19 19 18 18 18
14 14 16 16 17 19 20 20 21 20 20 19 22 21 21 19 20 19 19 19 19 19 20 20 20 20 20 20 20 20 19 19 19 19 18 18 17 18 18 18 18 18 18 18 18 19 19 18 18
14 13 15 17 17 19 21 22 21 20 19 20 21 21 20 20 19 19 20 19 19 19 20 20 20 20 20 20 20 19 20 20 19 19 18 17 17 17 18 18 18 17 17 18 18 19 19 18 18
13 13 15 15 17 19 21 21 21 21 19 20 21 20 20 20 19 20 19 19 19 19 19 20 20 20 20 20 20 19 20 20 19 19 17 17 17 17 17 18 18 17 17 18 18 18 18 18 18
13 13 16 16 17 18 21 21 22 19 19 19 20 19 19 20 20 19 19 19 19 19 19 20 20 20 20 20 20 20 20 20 19 19 19 18 18 18 17 18 18 17 17 17 17 17 18 18 18
14 15 15 17 18 18 18 20 21 18 17 19 19 18 18 19 19 19 19 19 19 19 18 19 20 20 20 19 19 20 19 19 19 19 18 19 18 18 18 18 18 17 17 17 17 17 17 18 18
14 15 17 18 16 17 17 18 18 18 17 19 19 18 17 18 19 19 20 19 19 19 18 19 19 20 20 20 20 19 19 19 19 19 19 18 18 17 17 17 17 17 17 17 17 17 17 18 18
14 15 17 18 16 16 16 17 16 17 17 18 18 19 18 17 18 18 19 18 18 19 19 19 20 20 19 20 21 20 20 19 19 19 18 18 18 18 17 17 17 17 17 17 17 17 17 17 18
15 15 16 17 16 16 17 16 17 17 18 17 18 19 18 17 17 18 18 18 19 19 20 20 20 20 20 20 21 20 20 19 19 19 18 18 18 19 18 18 17 17 17 17 17 17 17 17 18
15 16 16 16 17 17 17 17 17 18 15 17 17 18 17 17 17 17 18 19 19 19 20 20 20 20 20 20 21 20 20 20 19 19 19 19 18 18 18 18 18 17 17 17 17 17 17 17 18
14 14 15 15 15 16 17 17 17 18 15 16 17 17 17 16 18 18 19 19 20 20 20 20 20 20 20 20 20 20 20 20 19 19 19 19 19 18 18 18 18 18 18 17 17 17 17 17 17
14 14 14 15 15 16 17 16 17 18 15 15 16 17 18 17 18 18 19 20 20 20 20 20 20 20 20 20 20 20 20 20 20 20 20 19 19 19 19 19 19 19 18 18 18 18 17 17 17
12 11 13 15 14 16 16 16 18 18 17 17 17 19 19 18 19 19 20 21 21 21 20 20 20 20 20 20 20 20 20 20 20 20 20 20 19 19 19 19 19 19 19 18 18 18 17 17 18
12 11 12 13 14 15 15 16 18 18 19 19 19 19 17 17 18 21 21 21 21 21 21 20 20 20 20 20 19 19 20 20 20 21 20 20 20 20 19 19 19 19 19 19 18 18 18 17 17
12 13 13 13 15 15 14 16 17 17 17 17 18 19 17 17 19 20 21 21 20 20 21 21 21 20 20 19 19 19 19 19 20 21 21 21 21 21 20 19 19 19 19 19 19 18 18 17 17
14 13 13 14 14 14 14 14 16 17 17 17 18 17 16 16 18 18 19 20 21 20 20 21 21 20 20 20 20 20 20 20 20 21 21 20 20 20 20 20 20 19 19 19 19 18 18 17 17
12 13 12 14 14 14 15 14 15 16 15 16 16 17 16 16 15 15 15 16 19 20 19 19 20 20 20 21 19 19 19 19 20 20 20 20 19 19 19 19 20 19 19 19 19 18 17 16 17
13 13 14 14 13 12 14 11 13 17 16 15 16 15 15 15 15 14 14 15 16 17 18 18 18 19 19 19 19 19 19 18 19 19 20 20 20 20 19 19 19 19 19 18 18 18 17 17 15
13 14 14 13 12 13 13 12 12 13 14 16 16 17 15 14 14 13 13 15 15 16 17 18 18 18 18 18 19 18 18 18 19 19 18 19 19 19 18 18 18 18 18 17 17 17 17 16 15
12 13 13 13 12 12 12 12 12 13 15 16 15 15 15 14 13 12 14 14 14 15 15 15 16 16 17 17 17 18 18 18 17 17 17 18 18 18 18 18 18 18 17 17 17 17 16 15 15
12 12 12 12 13 12 11 11 14 13 13 15 15 14 13 12 11 11 11 12 13 14 14 14 14 13 14 15 16 16 17 17 17 17 17 17 18 18 18 18 18 18 18 17 17 16 16 15 14
12 11 9 11 12 12 11 11 13 13 13 13 12 13 11 10 11 11 11 12 12 13 13 13 13 13 13 13 13 13 14 15 15 16 16 16 16 17 17 17 17 16 17 17 16 15 14 14 14
11 10 10 9 9 7 10 11 12 13 12 12 11 11 11 10 10 10 10 11 11 12 12 12 12 11 12 12 12 12 12 12 13 13 14 14 13 14 14 15 15 15 14 14 14 15 14 15 13
11 11 11 11 8 10 11 10 12 13 13 11 11 10 10 10 10 9 9 10 11 11 11 11 11 11 10 11 11 11 11 11 11 11 12 12 12 12 13 13 13 13 13 13 13 13 13 11 10
11 11 11 10 9 9 9 12 10 12 12 11 10 10 10 10 9 9 8 9 10 10 10 10 10 10 9 9 9 9 9 9 10 10 10 10 10 11 11 11 11 11 11 10 10 10 9 8 7
12 12 11 8 11 9 5 10 12 10 11 10 10 10 10 10 9 8 8 8 9 9 9 9 9 9 8 8 8 8 8 8 8 8 8 8 9 9 9 9 9 9 9 8 8 7 7 7 6

GFSSGP_925_temp_084.txt.gz
Temp
17 18 19 19 18 15 17 19 19 22 23 22 21 23 24 24 24 23 19 20 21 20 20 21 21 20 20 20 20 20 20 20 19 19 18 18 18 18 18 18 18 18 17 17 17 17 17 17 16
17 18 19 14 16 16 17 18 20 21 21 18 22 23 23 24 20 18 19 19 21 20 20 21 21 20 20 20 20 20 20 20 19 19 19 18 18 18 18 18 18 17 17 17 17 16 16 16 17
17 18 16 16 14 16 18 19 20 20 20 21 21 22 22 22 19 19 20 19 20 20 20 20 20 20 20 20 20 20 20 20 19 19 19 18 18 18 18 18 18 18 18 18 16 16 16 17 17
17 17 17 16 16 17 19 19 19 20 20 20 21 21 21 21 20 21 20 19 20 20 20 20 20 20 20 20 20 20 20 19 19 19 19 18 18 17 18 18 19 19 18 18 17 17 17 17 17
16 15 16 16 16 17 18 20 20 20 20 20 19 22 21 20 21 20 19 19 20 20 20 20 20 20 20 20 20 20 20 20 20 19 18 18 18 18 18 18 18 19 18 18 18 17 17 17 17
15 14 15 17 16 18 20 20 20 20 19 19 19 19 20 18 19 19 19 19 19 20 20 20 20 20 20 20 20 20 19 20 19 19 18 17 17 18 18 18 18 18 18 18 18 18 17 17 17
14 14 14 16 17 17 19 20 21 20 19 21 18 20 19 19 19 19 19 19 19 19 20 20 20 20 20 20 20 19 19 20 19 19 18 17 17 17 18 18 18 18 18 18 18 18 18 17 17
12 13 14 14 16 17 20 21 19 20 20 19 20 19 19 19 19 19 19 19 19 19 19 20 20 20 20 19 19 19 19 19 19 19 19 18 17 17 17 17 18 17 17 18 17 17 18 18 17
13 14 17 15 15 17 20 20 20 19 19 19 19 19 18 19 19 18 19 18 18 19 19 19 19 19 19 19 19 19 19 19 19 19 19 18 18 18 17 17 17 17 17 17 17 17 17 17 17
14 15 15 17 16 17 19 20 21 20 19 19 20 19 18 18 19 19 19 19 18 18 18 19 19 19 19 19 19 19 19 19 19 19 19 18 18 18 18 18 18 18 17 17 17 18 18 18 17
14 13 15 17 17 17 17 18 19 17 18 18 19 17 18 18 18 18 19 19 19 18 18 18 19 19 19 19 19 19 19 19 19 19 18 18 17 17 17 17 17 17 17 17 17 17 17 18 18
14 15 16 17 17 16 17 16 17 17 21 17 17 17 18 18 18 18 19 19 19 18 18 18 19 19 19 19 19 19 19 19 19 19 18 18 18 18 17 17 17 17 17 17 17 17 17 17 18
14 15 15 16 16 16 16 16 17 17 19 16 17 17 16 17 18 18 18 18 18 18 18 18 18 19 19 19 19 19 19 19 19 19 18 18 18 18 18 17 17 17 17 17 17 17 17 17 17
13 14 15 15 16 16 16 16 17 17 17 17 17 17 16 16 17 17 17 17 18 18 18 18 19 19 19 19 19 20 20 20 19 19 19 18 18 18 18 18 18 18 17 17 17 17 17 17 17
14 13 15 15 15 16 16 16 15 17 16 18 18 17 16 17 17 17 19 19 22 21 20 20 20 19 19 19 20 20 20 20 19 19 19 18 18 18 18 18 18 18 18 17 16 16 16 17 17
13 13 12 15 14 15 16 15 16 14 15 16 19 17 16 16 18 17 19 21 22 21 20 20 20 19 19 19 19 20 20 20 19 19 19 19 18 18 18 18 18 18 18 17 17 17 17 17 17
13 13 13 14 14 15 15 15 16 14 15 15 19 17 16 18 18 19 19 19 19 22 21 20 19 20 20 19 19 20 20 20 20 19 19 19 19 19 18 18 19 18 18 18 18 17 17 17 17
12 12 14 14 13 14 14 15 16 14 15 14 16 15 16 18 18 20 19 19 20 19 19 19 19 19 19 19 19 19 19 19 19 20 19 19 19 19 19 19 19 19 18 18 18 17 17 17 17
12 12 12 13 14 14 13 15 15 15 14 15 14 14 15 18 18 20 21 20 19 20 19 19 19 19 19 19 18 18 19 19 19 19 20 20 20 20 19 19 19 19 18 18 18 17 17 17 17
13 13 12 13 14 14 12 13 14 15 15 17 16 16 17 19 17 18 20 21 20 20 20 19 19 19 19 19 19 19 19 19 20 20 20 20 19 20 20 19 19 19 18 18 18 17 17 17 16
12 13 11 13 13 13 13 13 13 15 15 15 16 18 19 20 19 16 16 18 19 20 20 19 19 18 19 19 19 18 18 18 18 18 19 19 19 19 19 19 19 19 18 18 18 18 17 16 16
12 14 14 12 12 12 13 12 11 13 14 14 15 15 17 18 15 14 14 15 16 18 18 19 18 18 18 18 18 18 18 18 19 19 19 19 19 18 19 19 19 19 18 18 18 18 17 16 15
13 14 13 13 11 12 12 12 11 13 13 16 16 15 15 15 14 14 13 14 15 15 16 17 17 17 18 18 17 17 17 17 18 18 18 18 18 18 18 18 18 18 18 18 17 17 16 16 15
12 13 12 12 11 10 11 11 11 11 13 15 14 15 15 15 14 13 13 13 13 14 15 16 17 17 17 18 18 18 17 17 17 17 17 17 17 18 18 18 18 18 18 17 17 16 16 16 15
12 11 12 13 12 12 10 10 13 12 13 14 14 14 14 14 13 12 11 11 12 13 14 14 15 15 15 16 17 17 17 16 16 16 16 16 17 17 17 17 17 17 17 17 16 16 16 15 15
12 11 9 10 11 11 10 11 13 12 12 12 13 13 13 12 12 12 11 11 11 12 12 13 13 13 13 13 14 14 15 15 15 15 15 15 15 16 16 16 16 16 16 16 15 15 15 14 14
11 11 10 8 8 8 10 11 12 12 11 11 11 11 10 10 10 10 10 10 11 11 11 12 12 12 12 12 12 12 13 13 13 13 13 13 13 12 13 13 13 14 14 14 14 14 14 13 13
11 11 10 10 8 10 11 11 12 14 13 12 11 10 9 9 8 8 8 9 10 11 11 11 11 11 11 11 11 11 11 11 11 11 11 11 11 11 12 12 13 13 13 13 13 13 12 12 13
12 10 11 10 8 9 9 12 10 12 12 11 10 9 8 8 8 7 7 9 9 10 10 10 10 10 10 10 9 9 9 9 10 10 10 10 10 10 10 11 11 11 11 11 11 11 10 12 11
11 11 11 9 10 8 5 10 12 10 9 9 10 9 9 9 8 7 7 7 8 8 9 9 9 9 9 8 8 8 8 8 8 8 8 9 9 9 9 9 10 10 10 9 9 9 8 8 7

GFSSGP_925_temp_087.txt.gz
Temp
17 18 19 19 21 19 20 21 20 21 22 22 21 24 25 25 26 27 19 20 21 20 20 20 20 20 20 20 20 20 20 20 19 19 18 18 18 18 18 18 18 17 17 17 17 17 17 17 16
17 18 19 17 19 20 21 19 21 22 22 20 20 23 24 26 21 19 19 19 21 19 20 20 20 20 20 20 20 20 20 20 19 19 19 18 18 18 18 18 17 17 17 17 17 17 16 16 17
17 18 19 19 18 20 21 19 21 21 21 22 23 22 23 24 20 19 19 19 20 19 19 20 20 20 20 20 20 20 20 20 19 19 19 19 18 18 18 17 17 17 17 16 16 16 16 17 17
17 17 17 18 18 18 21 20 20 21 21 21 20 23 22 19 20 19 19 19 19 19 19 20 20 20 20 20 20 20 20 19 19 19 19 18 18 18 18 18 18 18 18 17 16 16 17 17 17
17 16 17 17 18 18 18 20 20 21 21 21 20 22 22 19 19 19 19 19 19 19 19 20 20 20 20 20 20 20 20 19 19 19 18 18 18 18 18 18 18 18 18 17 17 17 17 17 18
15 16 18 18 18 18 20 20 21 21 20 21 21 21 21 19 19 19 19 19 19 19 19 19 20 20 20 20 20 20 20 20 20 19 18 17 17 18 18 18 18 18 18 17 17 17 17 17 17
16 16 16 19 19 19 20 20 21 20 21 21 21 21 20 19 19 19 19 19 19 19 20 19 20 20 20 20 20 19 20 19 19 19 18 18 17 18 18 18 18 18 17 17 17 17 17 17 17
14 15 17 17 18 19 20 21 20 22 21 20 20 21 21 19 19 19 19 19 19 19 19 20 20 19 19 19 19 19 20 20 19 19 19 19 19 17 17 18 18 17 17 17 17 17 17 17 17
13 15 17 18 17 19 20 21 20 20 20 20 20 19 19 18 18 19 18 19 19 19 19 19 20 19 19 19 19 19 19 19 19 19 18 18 18 18 18 17 18 18 17 17 17 17 18 18 18
14 16 17 17 17 19 20 20 20 20 19 19 19 19 19 17 18 18 18 19 19 19 18 18 19 19 19 19 19 19 19 19 19 19 19 19 18 17 17 18 18 18 17 17 17 17 17 17 17
14 15 17 17 17 18 18 19 20 20 19 21 21 19 19 19 18 17 18 19 18 19 18 18 19 19 18 18 19 19 19 19 19 19 19 18 18 17 17 18 17 17 17 17 17 17 17 17 17
14 15 16 16 17 17 17 18 19 19 20 20 19 19 18 18 17 18 18 19 19 19 19 19 18 19 18 19 19 19 19 19 19 19 19 19 18 18 17 17 17 17 17 17 17 17 17 17 17
13 15 16 16 16 16 16 17 19 18 18 17 18 18 18 18 18 18 19 18 19 18 19 19 19 18 18 19 19 19 19 19 19 19 19 18 19 18 17 17 17 17 17 17 17 17 17 17 17
14 15 16 15 16 16 17 16 17 18 18 18 19 18 17 18 17 17 17 18 18 19 18 18 18 18 18 19 19 19 19 19 19 19 19 18 18 18 18 17 17 17 17 17 17 17 17 17 16
14 14 14 14 15 16 16 16 16 17 16 18 18 19 18 18 19 18 17 17 18 18 18 18 18 18 18 19 19 19 19 19 19 19 19 18 18 18 18 18 18 18 18 17 17 17 16 17 17
13 14 13 15 15 16 17 17 16 17 16 18 18 19 18 18 18 19 18 18 20 20 20 19 21 19 19 19 19 19 19 19 19 19 19 18 18 18 18 18 18 18 18 17 17 17 16 17 17
13 13 13 14 14 15 16 15 17 16 15 17 17 19 19 18 18 19 19 18 20 22 22 22 21 21 20 19 19 19 19 19 19 19 19 19 19 18 18 18 18 18 18 17 17 17 17 17 17
12 13 13 14 14 15 14 15 15 15 15 17 16 18 18 18 18 18 19 18 18 21 21 21 21 21 21 20 19 19 19 19 19 19 19 19 19 19 18 18 18 18 18 18 18 17 17 17 17
14 13 14 14 13 15 15 14 15 15 15 15 15 16 17 18 18 18 19 19 18 19 19 21 22 21 21 19 18 18 18 19 19 19 19 19 19 19 19 19 19 18 18 18 18 17 17 17 17
14 13 13 13 14 15 14 15 15 15 15 15 16 16 17 18 18 17 19 20 20 20 21 21 19 19 20 18 18 18 18 18 19 19 19 19 19 19 18 18 18 18 18 18 18 17 16 16 16
12 13 12 13 13 13 13 14 14 14 15 15 16 16 17 20 19 19 18 19 19 20 19 20 20 19 18 18 18 18 18 18 18 18 19 19 19 19 19 19 19 18 18 18 17 17 17 15 16
11 14 13 13 14 14 13 14 13 14 14 15 17 16 17 18 18 16 16 17 19 19 19 19 19 18 18 18 17 18 18 17 18 19 19 19 19 18 19 19 18 18 18 18 18 17 17 16 15
11 14 14 12 12 12 12 14 14 12 15 15 15 15 16 17 17 17 16 16 16 17 17 17 18 17 17 17 17 17 17 17 17 17 18 18 18 18 18 17 18 18 18 18 17 17 17 16 15
8 13 13 12 11 12 12 13 14 13 14 16 17 16 16 16 17 17 16 15 15 15 15 16 17 16 16 17 17 17 16 16 16 16 16 17 17 17 17 17 17 17 17 17 17 17 16 16 15
8 13 12 12 12 12 10 11 15 13 13 14 15 15 15 16 17 16 14 12 13 13 14 14 15 15 15 16 16 16 17 17 17 16 16 16 16 16 16 16 16 16 17 16 16 16 16 15 15
12 12 11 11 12 11 10 12 15 13 13 13 13 13 13 13 14 14 13 12 12 13 13 13 13 14 14 15 15 15 15 15 15 15 15 15 15 15 15 15 16 16 15 15 15 15 15 14 14
11 10 10 9 8 11 12 11 13 12 13 12 12 12 12 12 12 13 12 11 11 11 12 12 13 13 13 13 13 14 13 13 13 13 13 13 13 13 13 13 13 12 14 15 15 14 14 14 13
10 11 11 9 10 12 12 12 15 15 15 13 13 12 11 10 10 10 10 10 10 10 11 11 11 11 11 12 12 12 12 12 12 11 11 11 11 11 11 12 12 12 13 13 13 13 13 12 11
11 11 10 10 10 12 12 14 12 13 13 12 11 11 10 9 9 9 9 8 9 9 10 10 10 11 10 10 10 10 10 10 10 10 10 10 10 10 10 11 12 11 11 11 12 11 11 10 10
11 11 11 10 10 6 8 14 13 12 10 9 10 10 9 9 9 9 8 7 8 8 8 9 9 9 9 9 9 9 9 9 9 9 9 9 9 9 9 9 10 10 10 10 9 9 9 9 8

GFSSGP_925_temp_090.txt.gz
Temp
17 18 20 23 24 25 26 26 26 26 26 28 27 29 30 29 31 30 23 23 24 23 22 20 20 20 20 20 20 19 19 19 19 18 18 18 18 18 18 18 18 18 18 18 17 17 17 17 17
18 19 21 24 24 25 26 27 25 26 26 26 26 27 28 30 27 23 23 22 23 23 22 21 20 20 20 20 20 20 20 19 19 19 18 18 18 18 18 18 17 17 17 17 17 17 17 17 16
18 19 24 24 24 25 27 26 26 25 25 26 28 27 29 28 26 24 23 22 23 23 22 21 20 20 20 20 20 20 20 19 19 19 19 18 18 18 18 17 17 17 17 17 17 16 17 17 17
19 21 23 23 24 26 26 26 25 25 25 26 26 28 26 23 24 23 22 22 23 23 22 20 20 20 20 20 20 20 20 19 19 19 19 19 18 18 17 18 18 18 17 16 16 17 17 17 17
17 21 21 23 25 26 25 26 26 25 26 26 26 26 26 23 21 22 22 22 23 23 23 20 20 20 20 20 20 20 20 19 19 19 18 18 18 18 18 18 18 18 17 17 17 17 17 17 17
18 20 21 22 24 24 25 25 26 26 24 25 27 26 24 20 21 21 21 20 21 23 22 21 20 20 20 20 20 20 20 20 20 19 18 17 18 18 18 18 18 18 17 17 17 17 17 17 17
18 20 22 24 25 24 25 25 25 26 25 24 25 26 24 22 19 20 21 21 20 22 22 21 20 20 20 20 20 20 20 20 19 19 19 19 18 18 18 18 18 17 17 17 17 17 17 17 17
19 19 22 24 24 24 25 24 25 25 25 23 23 25 24 23 19 19 20 20 22 22 22 22 21 20 20 19 20 20 20 20 20 19 19 19 19 19 17 17 18 17 17 18 18 17 18 18 18
17 18 20 23 23 24 25 24 24 24 25 24 22 23 22 21 20 19 19 20 21 22 22 22 22 21 21 20 19 19 20 20 19 19 18 18 19 19 18 18 18 18 17 17 17 17 17 17 17
17 18 21 24 24 24 25 24 25 24 24 23 22 22 21 21 20 19 19 20 21 22 21 21 22 21 21 20 19 20 19 19 19 19 18 19 19 19 19 18 18 18 17 17 17 17 17 17 18
17 19 21 22 22 22 23 23 24 24 24 25 24 23 22 19 18 18 18 19 19 21 19 20 20 21 21 20 20 20 20 20 20 19 19 19 19 18 18 18 18 18 17 17 17 16 17 17 18
16 19 20 21 20 21 22 24 23 24 25 25 26 24 23 22 20 18 18 18 18 19 20 19 19 20 21 20 20 20 20 20 20 19 19 19 19 19 19 19 19 18 18 18 18 18 18 17 17
16 19 19 20 19 20 22 22 23 23 24 24 23 22 24 24 21 20 18 19 19 19 19 19 19 20 20 20 20 20 20 20 20 19 19 19 19 19 19 19 19 19 19 19 18 18 18 18 18
17 18 19 19 19 19 20 22 21 23 22 23 22 23 23 23 22 20 20 20 20 19 19 19 19 19 20 20 20 20 20 20 19 19 19 18 19 19 19 19 18 18 18 18 18 18 18 18 18
17 16 17 18 20 19 20 20 20 23 21 22 23 24 23 23 23 22 20 21 21 20 19 19 19 19 19 20 20 20 20 20 19 19 19 18 18 18 18 19 18 18 18 18 17 17 17 18 18
15 16 16 18 19 20 20 20 21 22 22 22 23 24 24 23 23 22 20 20 20 21 20 19 19 19 18 19 20 20 20 19 19 19 19 18 18 18 18 18 18 18 18 17 18 18 18 18 18
14 16 17 18 18 19 19 20 21 22 21 22 23 23 23 24 23 22 21 20 20 20 20 19 18 18 18 19 19 20 20 20 20 19 19 19 18 18 18 18 18 18 17 17 17 18 18 18 18
14 16 17 18 17 18 18 20 20 21 21 22 23 23 23 24 26 23 21 19 20 20 20 20 20 18 18 18 19 19 19 19 19 19 19 19 19 18 18 18 18 18 18 17 17 17 17 17 18
17 17 17 19 18 18 19 19 20 20 20 22 22 22 23 24 26 23 21 19 18 19 20 20 20 19 18 18 17 18 17 18 18 18 18 19 19 18 18 18 18 18 17 18 17 17 17 17 17
13 17 17 18 17 18 19 19 20 20 20 21 22 23 23 22 25 23 21 20 18 19 19 19 20 21 19 17 18 19 18 18 17 17 18 18 18 18 18 18 18 18 17 17 17 17 17 17 17
13 17 18 17 16 17 18 17 19 20 20 21 21 22 23 22 23 23 21 19 18 18 18 18 19 21 20 19 20 19 19 19 17 17 17 18 18 18 18 18 17 17 17 17 17 17 16 17 16
13 17 17 17 17 16 17 18 20 20 19 20 21 21 21 22 23 24 22 19 19 19 19 19 18 19 20 21 19 17 17 17 17 18 17 17 18 19 19 19 18 17 17 17 16 16 16 16 17
11 15 16 16 17 17 16 16 20 18 20 20 21 21 22 22 22 22 20 20 19 17 17 18 19 17 17 19 21 17 17 17 17 17 17 17 18 18 18 17 17 17 16 17 16 16 16 16 16
9 13 15 16 16 14 18 17 20 19 20 21 21 22 21 22 22 22 21 18 17 18 18 16 17 16 16 16 15 16 16 17 16 16 16 17 17 16 16 16 16 16 16 16 16 15 15 15 15
8 13 12 13 14 16 16 16 19 20 19 20 21 22 22 22 22 22 22 18 16 15 16 16 15 16 16 15 16 16 15 15 15 16 16 16 16 15 15 15 15 16 16 16 16 15 15 15 15
9 11 15 15 15 17 14 16 18 20 21 21 19 20 19 21 21 22 22 20 16 15 15 14 14 14 13 14 15 15 16 16 16 16 15 14 14 14 14 15 15 14 15 15 15 15 15 15 15
11 12 14 14 13 16 17 17 18 19 18 18 18 18 18 19 19 20 20 18 17 15 15 14 14 13 13 12 12 13 13 13 13 13 13 13 13 13 13 13 13 13 14 14 14 15 15 14 14
8 11 14 13 14 16 15 17 20 19 19 18 19 19 19 18 18 18 18 17 15 14 12 12 13 13 11 11 11 11 12 12 12 11 12 12 12 11 11 11 12 12 13 13 13 14 14 13 13
10 11 13 15 14 17 16 18 18 18 18 17 17 17 17 17 16 17 16 15 13 12 11 11 11 11 10 10 10 10 9 10 10 10 11 11 11 11 10 11 12 12 12 12 12 12 12 11 11
10 14 15 15 13 12 15 18 16 17 16 16 17 16 15 15 15 15 14 13 12 12 11 10 10 10 9 8 9 8 8 8 8 8 9 9 9 9 9 10 10 11 11 10 10 10 9 8 8

GFSSGP_925_temp_093.txt.gz
Temp
17 20 22 24 24 26 27 29 32 30 31 32 31 32 32 31 31 29 27 28 26 24 22 20 20 20 21 20 20 20 19 19 19 18 18 18 18 18 18 18 18 18 18 18 17 17 17 17 17
19 21 23 25 24 25 27 30 28 29 31 30 30 30 31 31 30 26 27 26 26 24 22 21 20 20 20 20 20 20 20 19 19 19 18 18 18 18 18 18 17 18 17 17 17 17 17 17 17
18 21 24 24 24 26 28 30 29 29 28 29 30 31 32 30 28 27 26 26 26 24 23 22 21 20 20 20 20 20 20 20 19 19 19 18 18 18 17 17 17 17 17 17 17 17 17 17 17
20 21 23 24 25 27 29 31 30 27 28 29 31 30 28 26 27 27 25 26 26 24 24 21 21 20 20 20 20 20 20 19 19 19 19 18 18 17 17 17 17 17 17 17 17 17 17 17 17
20 22 22 23 25 28 30 29 29 27 28 28 29 30 28 23 24 25 25 26 26 25 22 21 20 20 20 20 20 20 20 20 19 19 19 19 18 18 18 18 17 17 17 16 16 17 17 17 18
17 21 21 23 25 28 29 28 28 28 28 28 29 30 25 21 23 25 25 26 26 25 21 21 20 20 20 20 20 20 20 20 20 19 18 18 18 19 18 18 18 17 16 16 16 17 17 17 18
17 21 22 24 26 27 27 28 28 28 27 26 28 29 25 23 22 23 23 23 25 24 22 22 20 20 20 20 20 20 20 20 20 19 19 19 19 18 18 18 18 18 17 17 18 18 18 18 18
18 19 22 25 26 26 27 27 28 28 27 26 25 27 26 23 20 22 22 21 23 22 23 23 22 21 20 19 20 20 20 20 20 19 19 19 19 18 18 18 18 18 18 18 18 18 18 18 18
18 15 20 24 25 27 28 27 28 28 26 26 25 26 25 24 20 21 20 21 24 22 22 22 22 22 21 21 19 19 19 19 19 19 19 19 19 18 19 18 19 18 18 18 18 18 18 18 18
17 17 20 25 27 27 27 26 26 25 26 25 24 24 24 23 21 20 21 22 24 23 22 22 22 22 21 20 19 19 19 19 19 19 18 20 21 20 20 18 18 18 18 17 17 18 18 18 19
18 19 22 24 25 21 24 25 26 26 26 27 25 24 23 22 21 20 21 23 23 22 21 22 22 22 21 20 21 20 20 21 21 21 20 22 21 20 19 18 18 18 18 17 17 17 18 19 20
18 20 21 23 18 21 22 22 26 26 27 28 27 25 24 23 21 20 20 22 23 21 21 22 22 21 22 21 21 20 21 22 22 21 21 21 21 20 21 20 18 18 18 18 19 20 20 19 19
18 20 21 21 19 19 21 23 24 25 26 27 27 25 25 24 22 21 19 19 20 20 22 22 22 21 22 22 21 21 22 22 22 21 21 21 21 21 21 21 21 20 20 19 20 20 20 19 19
19 19 20 21 18 20 21 22 24 24 26 25 25 25 25 25 24 23 21 20 19 19 20 21 21 22 22 21 21 21 21 22 22 21 20 21 21 21 21 21 21 20 20 20 20 20 20 20 20
16 17 18 20 21 19 21 21 23 25 25 24 25 25 25 25 24 24 23 22 21 20 19 19 19 20 21 21 21 21 21 22 21 21 21 20 20 20 20 21 20 20 20 20 20 19 19 19 20
14 16 17 19 20 21 20 20 23 24 25 23 25 26 25 25 25 23 22 22 22 22 21 20 20 20 20 21 21 21 21 21 21 21 21 20 20 20 19 20 20 20 20 19 19 19 19 19 19
13 14 17 18 19 21 20 20 24 24 24 23 24 25 26 26 26 24 22 22 22 23 22 21 20 20 20 20 20 20 21 21 22 22 21 21 20 20 19 19 20 20 19 19 19 19 19 20 19
14 15 18 18 19 20 20 20 23 24 23 24 24 25 25 26 26 25 23 22 22 22 22 21 21 19 19 19 18 19 20 20 21 21 21 20 20 20 19 20 20 19 19 19 19 19 19 19 19
13 17 19 20 21 20 19 20 22 22 23 23 24 25 25 25 26 26 23 22 22 21 22 22 20 20 19 18 18 18 19 19 20 20 20 20 20 20 19 19 20 19 19 19 19 19 18 18 18
10 14 18 20 20 19 20 20 22 22 22 23 24 25 25 25 26 26 24 22 22 21 21 21 21 20 19 18 18 18 18 18 18 19 18 19 19 19 19 19 19 19 19 19 19 19 18 18 18
11 15 18 19 18 19 19 19 20 22 22 23 23 24 25 25 25 26 24 22 21 21 20 20 21 22 20 18 19 18 18 18 17 17 18 19 19 18 18 18 19 19 19 18 18 18 17 18 18
12 17 17 19 17 17 19 18 20 21 21 22 22 23 23 25 25 26 24 22 21 20 18 20 20 19 19 19 18 17 18 20 20 20 20 19 19 19 17 16 17 18 18 17 17 17 17 17 17
11 13 17 17 17 18 18 18 21 22 21 22 22 23 24 24 24 25 24 21 20 19 18 19 20 19 18 19 19 18 20 20 20 20 18 18 18 20 20 19 16 16 17 17 17 17 17 16 17
10 14 13 17 16 14 18 18 21 21 22 23 23 23 24 24 24 25 22 21 20 19 17 17 18 18 18 17 19 19 19 20 19 18 19 20 20 17 17 16 18 16 16 16 16 16 16 16 17
9 12 13 13 13 16 19 18 21 22 22 23 23 23 24 24 24 24 24 21 20 18 17 16 17 17 17 17 18 17 18 19 18 18 17 19 19 18 17 17 16 16 16 16 16 16 16 16 16
9 11 14 14 15 17 17 18 20 22 22 21 22 23 24 24 24 23 24 22 20 18 16 16 15 15 15 16 16 17 17 16 16 17 16 16 16 16 15 15 14 14 15 15 15 15 15 15 15
10 11 15 16 19 18 18 19 20 20 20 20 21 21 21 21 23 23 23 23 22 16 16 17 16 15 15 15 14 14 14 14 14 14 15 15 14 14 13 13 13 13 13 13 14 14 15 14 15
9 9 14 14 15 16 18 19 20 19 20 20 20 20 21 21 21 21 22 22 21 18 16 15 16 15 14 14 14 13 13 13 12 12 12 12 12 12 11 12 12 12 12 13 13 13 14 14 14
10 11 13 16 16 18 17 19 20 19 19 19 20 20 20 21 20 20 20 20 19 17 15 15 15 13 12 12 12 12 11 11 11 11 10 10 10 10 10 10 10 10 10 11 12 12 12 12 12
13 13 16 15 16 15 16 18 19 19 18 19 20 18 18 18 19 19 19 18 16 15 14 14 13 12 12 11 11 11 10 10 10 9 9 9 9 9 9 9 9 10 10 10 10 11 11 10 10

GFSSGP_925_temp_096.txt.gz
Temp
17 18 20 23 20 21 22 24 27 28 29 30 29 29 28 27 24 23 27 26 22 21 20 20 20 20 20 20 20 19 19 19 19 18 18 18 18 18 18 18 18 18 18 18 17 17 17 17 17
17 19 22 21 20 21 23 26 27 29 30 28 29 29 30 25 25 26 26 24 23 21 20 20 20 20 20 20 20 19 19 19 19 18 18 18 18 18 18 18 18 17 17 17 17 17 17 17 18
17 18 20 20 21 21 24 27 28 29 27 28 29 30 29 26 26 27 27 25 23 21 21 20 20 20 20 20 20 20 20 19 19 19 18 18 18 17 17 17 17 17 17 17 17 17 17 17 18
18 19 19 20 22 23 24 28 28 26 28 28 28 28 25 23 27 26 26 25 23 22 21 20 20 20 20 20 20 20 19 19 19 19 18 18 17 17 17 17 17 17 16 17 17 17 17 18 18
18 17 18 20 22 24 26 28 28 26 26 28 28 26 23 23 25 26 26 25 24 23 22 21 20 20 20 20 20 20 19 19 19 19 18 18 17 17 17 17 17 17 17 17 17 17 17 18 18
16 17 18 19 22 25 27 28 27 26 26 27 27 26 22 22 24 25 26 26 24 22 22 21 20 20 20 20 20 20 19 20 19 19 18 18 18 18 18 18 17 17 16 17 17 17 18 18 18
15 16 18 20 22 24 26 27 26 26 26 26 24 26 21 22 23 25 26 26 23 23 21 20 20 20 20 20 20 20 20 20 20 19 19 18 18 18 18 18 17 17 18 18 18 18 18 18 18
14 15 18 21 22 24 26 27 27 26 26 25 25 25 21 21 23 23 24 23 22 21 21 20 20 20 20 19 20 19 20 20 19 19 19 18 17 18 18 18 18 18 18 18 18 18 18 18 18
17 15 17 19 23 24 27 26 27 27 25 25 24 23 22 21 22 22 22 23 22 22 22 21 20 20 20 19 19 19 19 19 19 19 19 19 18 18 18 18 18 18 18 18 18 18 18 18 18
15 15 17 21 23 25 24 26 26 25 24 23 22 24 22 21 21 21 21 22 22 22 22 22 22 21 20 20 19 19 19 19 19 19 19 19 19 18 19 18 18 18 18 18 18 18 18 18 19
16 16 18 21 23 19 20 23 27 24 23 23 22 22 23 21 21 21 21 22 23 22 22 22 22 21 21 20 19 19 19 20 19 19 20 20 20 19 19 18 18 18 18 18 18 18 19 19 19
16 17 19 20 17 17 18 19 21 24 24 25 23 22 22 21 20 20 21 23 22 22 22 22 22 21 21 21 20 20 21 21 21 21 21 21 20 20 19 19 18 18 18 18 18 19 19 19 19
16 18 20 20 17 17 19 20 20 20 23 25 24 23 22 21 20 21 21 22 22 22 22 22 22 21 21 21 21 21 22 22 22 21 21 21 20 20 20 19 19 19 18 19 19 19 20 19 19
16 17 19 20 18 17 18 19 20 20 22 24 24 22 22 22 20 20 19 21 21 22 22 22 21 21 21 21 21 21 22 22 22 21 21 21 21 21 21 21 20 20 19 19 19 20 20 19 19
13 14 18 17 17 16 17 18 17 19 22 24 24 22 23 22 22 21 20 19 21 20 21 22 21 22 21 21 21 21 22 22 22 21 20 21 21 21 21 21 21 20 20 20 20 20 20 19 20
11 14 14 16 18 17 16 16 20 20 21 23 23 22 22 22 23 23 22 20 21 20 20 21 21 21 21 20 21 21 22 22 22 21 20 20 20 20 20 20 20 20 20 20 19 19 19 19 19
10 12 14 16 19 19 17 17 21 22 22 21 21 22 22 22 22 23 23 22 21 21 21 20 20 20 21 21 20 20 20 21 21 21 21 20 20 20 19 19 20 20 19 19 19 19 19 19 19
11 11 15 17 18 18 18 18 21 22 22 21 21 21 22 22 22 23 22 22 22 22 21 20 20 20 20 21 20 20 20 21 21 21 21 21 20 20 19 19 19 19 19 19 19 19 19 19 19
12 14 15 17 19 18 17 18 20 21 22 21 21 21 22 22 24 24 23 22 22 22 22 21 20 20 20 20 19 19 20 20 20 21 21 21 20 20 19 19 19 19 19 19 19 19 19 18 18
10 12 15 17 19 18 17 18 20 20 21 21 21 21 21 22 22 23 23 22 22 21 22 21 21 20 20 19 19 19 19 20 20 20 20 20 20 20 20 19 19 20 19 19 19 19 18 18 18
10 11 14 14 18 17 18 17 19 20 20 20 21 21 22 21 22 22 21 22 22 21 21 21 21 20 20 19 19 18 18 19 19 19 20 20 20 20 19 19 19 19 19 19 19 19 18 18 18
11 13 13 16 15 13 15 14 15 17 20 20 19 19 21 22 22 22 21 21 21 21 21 21 21 21 20 19 20 20 19 19 19 19 19 19 19 19 20 20 20 19 19 19 18 18 18 17 17
12 11 14 13 16 16 16 15 15 18 19 20 20 19 20 20 21 21 19 20 20 19 19 20 21 20 19 19 19 19 19 19 19 19 19 19 19 19 19 20 20 20 19 18 18 18 18 17 17
11 13 14 13 13 12 14 16 17 18 19 19 20 20 20 20 20 21 21 20 19 19 18 18 18 19 19 19 19 18 18 17 18 18 19 18 18 18 18 19 19 19 19 19 19 18 18 19 17
9 11 12 13 12 14 16 16 17 20 21 20 20 20 20 19 19 19 18 18 18 18 17 17 17 17 18 18 18 19 19 19 19 18 18 18 18 18 17 17 18 19 20 17 17 17 16 16 16
9 10 12 12 12 14 17 13 16 19 19 20 20 20 19 19 19 19 18 18 18 18 17 18 17 17 16 16 17 17 17 17 17 18 18 17 17 17 18 18 17 16 15 15 16 15 15 15 16
10 11 10 11 15 13 15 18 19 18 18 20 19 20 20 20 19 19 19 18 18 17 17 16 16 17 16 16 16 16 15 15 16 16 16 16 15 15 15 15 15 15 15 15 14 14 15 16 15
9 8 11 11 12 14 15 15 17 17 17 18 18 18 19 20 20 19 18 20 18 17 16 16 15 15 15 15 14 14 13 14 13 14 14 14 14 14 14 13 13 13 13 13 13 12 13 14 14
9 10 11 13 13 13 13 15 17 16 17 17 18 18 18 18 18 17 18 20 18 16 16 16 15 14 14 14 15 14 13 12 13 13 12 12 12 11 11 11 11 11 11 11 11 11 12 12 13
13 12 13 12 14 11 12 14 16 16 17 17 17 17 17 17 16 17 16 16 16 15 15 15 13 13 13 13 13 14 14 13 12 11 11 11 11 11 11 11 10 10 10 10 10 11 11 11 11

GFSSGP_925_temp_099.txt.gz
Temp
18 19 17 18 19 16 17 20 23 25 26 28 27 25 24 24 25 24 23 22 21 20 21 21 21 20 20 20 19 19 19 18 18 18 18 18 18 18 18 18 18 18 17 17 17 17 17 18 19
18 17 17 16 16 17 18 21 23 24 27 26 27 25 24 23 24 22 20 21 21 20 20 20 20 20 20 20 19 19 19 18 18 18 18 18 18 18 18 18 18 17 17 17 17 17 17 19 19
16 16 15 17 15 17 18 22 24 26 26 27 27 26 24 23 24 24 21 20 20 19 20 20 20 20 20 20 19 19 19 19 18 18 17 17 17 18 17 17 17 17 17 17 17 17 17 18 19
16 15 16 17 17 19 21 23 26 25 26 27 25 22 21 21 24 23 22 20 20 19 20 20 20 20 20 20 19 19 19 19 18 18 18 17 17 17 17 17 17 17 17 17 17 17 18 18 19
16 16 17 16 18 20 21 24 25 25 24 26 27 21 20 22 23 23 21 22 20 20 20 20 20 20 20 20 19 19 19 19 18 18 17 17 17 17 16 17 17 17 18 17 17 17 18 19 19
14 15 16 17 18 20 21 25 25 25 25 26 25 21 20 22 24 23 22 22 21 20 20 20 20 20 20 20 19 19 19 19 18 18 18 17 17 16 16 17 17 17 17 17 17 18 18 18 19
14 15 16 17 18 20 22 25 23 24 24 23 22 20 20 20 24 24 22 22 22 21 20 20 20 20 20 19 19 19 19 19 19 18 18 18 18 18 17 17 17 17 17 17 17 18 18 19 19
14 15 17 18 18 20 23 25 24 24 24 23 23 19 20 20 23 24 22 22 21 21 21 20 20 20 20 20 19 19 20 19 19 18 18 18 18 18 18 18 18 18 18 18 18 18 19 19 19
15 14 16 18 19 21 23 24 26 24 23 22 22 20 21 22 23 21 21 20 20 20 21 20 20 20 19 19 19 19 20 19 19 19 18 17 18 18 18 19 19 18 18 18 18 19 19 19 19
14 14 15 17 19 19 18 22 24 23 21 20 20 20 21 21 21 21 20 20 20 19 20 20 20 20 19 19 19 20 19 19 19 19 19 18 18 18 18 18 18 18 18 19 19 19 19 19 19
14 14 16 16 17 17 18 21 20 21 21 20 20 20 20 20 20 20 20 21 20 20 20 21 20 20 19 19 19 19 19 19 19 19 19 19 18 18 18 18 18 18 18 18 19 19 19 19 19
13 15 16 18 16 17 18 18 19 19 20 21 20 20 20 20 20 20 20 21 21 21 21 21 21 20 20 19 20 20 20 19 19 20 19 19 18 18 19 18 18 18 18 18 18 19 19 19 19
12 14 16 18 15 14 17 17 17 17 19 19 21 20 19 20 19 21 21 22 21 21 21 21 21 20 20 20 21 20 20 19 20 21 20 19 19 19 19 19 18 18 18 18 19 18 18 19 19
13 14 15 17 14 14 16 17 17 19 19 19 20 18 18 19 19 20 21 21 21 22 22 22 21 21 21 21 22 21 21 20 21 21 21 20 20 20 19 19 19 19 19 19 19 19 19 19 19
12 12 15 15 14 14 17 16 17 17 17 18 19 18 18 18 19 20 21 21 21 22 22 22 21 21 21 21 22 22 21 21 21 21 21 21 21 20 20 20 20 19 19 19 19 19 19 19 19
12 12 13 15 15 15 17 15 17 16 15 17 18 17 18 18 19 20 21 21 22 22 22 21 21 21 21 21 22 21 21 22 21 21 21 21 21 21 21 20 19 19 19 19 19 19 19 19 19
10 12 12 15 16 14 16 15 16 17 14 15 16 20 18 19 19 20 20 21 22 22 22 21 21 21 21 21 21 21 21 22 21 21 20 20 20 20 20 20 20 20 20 19 19 19 19 19 19
10 11 13 14 16 15 14 16 18 16 15 15 17 19 18 19 19 21 21 21 21 20 22 22 22 21 20 20 21 21 21 21 22 21 21 20 20 20 20 20 19 19 19 19 19 19 19 19 19
11 11 11 15 17 16 15 16 16 18 15 15 17 18 18 18 19 22 22 22 21 20 20 21 21 21 20 20 20 20 20 21 21 21 21 21 20 20 19 19 19 19 19 19 19 18 18 18 18
9 11 12 14 17 17 16 16 18 19 19 19 18 19 18 19 18 19 21 21 21 21 21 21 21 20 20 20 20 20 20 20 20 20 20 20 20 20 20 19 19 19 19 19 19 18 18 18 18
9 11 12 14 16 16 16 16 17 19 19 19 19 19 19 19 19 18 18 20 21 21 20 21 21 21 21 20 20 19 19 19 19 19 19 20 20 19 19 19 19 19 19 19 19 19 18 18 18
11 10 12 15 13 14 14 13 15 17 18 18 18 17 19 19 19 18 18 19 20 21 21 21 21 21 21 21 20 20 19 19 20 19 19 18 18 19 18 18 18 18 18 18 18 19 18 18 17
10 11 13 12 12 13 13 13 14 16 17 17 18 16 17 17 18 17 17 19 20 21 21 20 21 20 20 20 20 20 19 19 19 18 18 18 18 18 19 19 18 18 18 18 18 18 18 18 17
10 12 12 12 12 11 12 12 15 16 17 17 17 16 17 18 18 17 19 19 19 18 19 19 19 20 20 19 19 19 19 18 18 17 17 17 18 18 18 18 18 18 18 18 18 18 18 18 17
9 10 12 12 12 11 14 13 15 16 18 18 18 16 17 17 18 16 15 15 17 18 18 18 17 17 18 18 18 19 18 18 18 18 18 18 17 17 16 16 16 17 17 17 17 17 18 19 19
9 10 10 13 12 12 14 13 14 16 17 18 17 17 17 17 16 15 15 15 17 18 18 18 17 17 17 17 18 18 18 18 18 18 18 18 18 17 16 16 15 15 15 16 16 16 16 18 18
10 10 10 12 13 11 13 15 17 16 16 16 16 16 15 16 16 15 15 16 16 17 18 18 18 17 17 17 17 17 17 18 18 17 17 17 17 16 15 15 14 15 15 15 14 14 14 14 15
9 9 11 10 12 13 13 15 14 15 16 17 16 16 17 17 16 15 16 16 17 17 17 17 17 17 17 17 17 17 16 16 16 15 15 15 14 14 15 15 15 15 14 14 13 13 13 13 13
8 8 10 11 10 12 11 12 14 15 15 16 16 16 17 17 16 15 14 15 16 16 16 16 16 16 15 15 15 15 15 15 15 15 15 14 14 13 13 13 13 13 12 12 13 12 12 11 12
10 11 12 9 12 8 8 12 14 14 14 15 15 15 15 15 14 14 12 13 15 15 15 15 15 15 14 14 14 14 14 14 14 14 14 14 12 12 11 11 11 11 11 11 11 11 11 11 11

GFSSGP_925_temp_102.txt.gz
Temp
17 17 17 17 17 15 16 18 21 23 25 27 26 25 25 24 25 24 20 20 21 20 20 20 20 20 20 19 19 18 18 18 18 19 19 19 19 19 18 18 18 18 17 17 17 17 18 18 18
16 16 17 14 15 15 17 18 21 23 25 24 24 23 23 23 22 20 20 20 21 20 20 20 20 20 20 19 19 18 18 18 18 18 19 18 18 18 18 17 17 17 17 17 17 17 18 18 18
16 15 15 14 14 17 19 19 22 24 25 25 25 23 23 22 21 21 20 19 20 20 20 20 20 20 19 19 19 18 18 18 18 18 18 18 18 18 17 17 17 17 17 17 17 18 18 18 18
15 15 16 15 16 18 19 21 23 24 25 25 24 21 21 21 23 22 19 19 20 20 20 20 20 20 19 19 19 18 18 18 17 17 17 17 17 17 17 17 17 17 17 17 17 18 18 19 19
15 14 16 16 17 18 18 22 24 24 25 25 22 21 20 22 22 20 19 19 19 20 20 20 20 20 19 19 19 19 18 18 17 17 17 17 17 17 16 17 17 17 17 17 17 18 19 19 18
12 15 16 16 17 19 19 22 25 23 24 25 21 20 20 21 20 20 19 19 20 20 20 20 20 20 19 19 19 19 18 18 18 17 17 17 17 17 16 17 18 18 17 17 18 18 18 19 18
12 14 15 16 17 18 19 22 22 22 24 23 21 20 20 20 20 19 19 19 19 20 20 20 20 20 19 19 19 19 19 18 18 18 17 16 17 16 16 17 17 17 17 18 18 18 19 19 19
12 14 15 16 16 18 20 23 23 23 24 23 20 19 20 19 20 19 19 19 20 19 19 19 19 19 19 19 19 19 19 18 18 18 19 18 17 17 17 17 17 17 18 18 18 18 19 19 19
13 13 14 16 17 18 21 23 22 23 22 22 21 19 20 19 20 19 19 19 19 19 19 19 19 19 19 19 19 19 19 19 18 18 18 18 18 18 18 18 18 18 18 18 19 19 19 19 19
12 13 15 17 17 18 18 22 23 22 20 20 19 20 20 20 20 19 19 19 19 19 19 19 19 19 19 19 19 19 19 19 18 18 18 18 18 19 19 18 18 18 18 18 19 19 19 19 19
12 13 16 16 16 16 17 18 20 21 20 19 20 20 19 19 20 20 19 19 19 19 18 19 19 19 19 19 19 19 19 19 19 19 18 18 18 18 18 18 18 18 19 19 19 19 19 19 19
12 14 15 15 15 15 16 17 18 19 18 18 21 21 20 19 19 20 20 19 19 18 18 19 19 19 19 19 19 19 19 19 18 18 18 18 18 18 18 18 18 18 18 19 19 19 19 19 19
11 13 15 16 13 14 16 17 18 19 18 17 18 20 19 19 19 19 19 19 19 19 19 19 19 19 19 19 19 19 19 19 19 19 19 18 18 18 18 18 18 18 18 18 18 18 18 18 18
13 13 14 15 13 13 14 16 16 18 16 16 18 18 19 20 19 19 19 19 19 19 19 19 20 20 20 20 20 20 20 20 19 19 19 19 19 19 18 18 18 18 18 18 18 18 18 18 18
12 12 13 15 14 13 13 15 16 16 16 16 15 16 17 18 18 19 19 19 20 20 19 20 20 20 20 20 20 20 20 20 20 20 20 20 20 19 19 19 19 19 19 19 18 18 18 18 18
12 12 12 14 14 14 13 14 16 15 16 16 15 14 15 17 18 19 19 19 19 20 20 20 21 21 20 20 21 21 20 20 20 20 21 20 20 20 20 19 19 19 19 18 18 18 18 19 19
11 11 11 14 15 13 13 14 15 16 15 15 15 14 15 15 17 18 19 20 21 22 22 21 21 21 21 21 21 22 21 20 21 21 21 21 20 20 20 20 20 19 19 19 19 18 19 19 19
10 10 10 13 15 14 13 14 14 15 15 15 13 13 14 16 17 19 19 20 22 22 22 22 21 21 20 20 21 21 21 20 21 21 21 21 20 20 20 19 19 19 19 19 19 19 19 18 18
8 10 12 14 15 15 14 16 15 15 14 14 14 14 15 16 18 20 20 20 21 22 21 21 21 21 20 20 20 21 21 20 20 20 20 21 21 20 20 20 20 19 19 19 19 19 18 18 18
9 10 10 12 15 15 14 15 14 14 14 14 14 14 15 17 17 17 19 20 20 21 21 21 21 21 20 20 20 20 21 21 21 20 20 20 20 20 20 20 19 19 19 19 19 19 18 18 18
9 10 11 12 14 13 14 14 14 14 15 14 13 13 16 18 18 16 16 18 19 20 20 20 21 21 21 21 18 20 20 20 20 20 20 20 20 19 19 19 19 19 19 19 19 18 17 18 17
9 10 11 12 11 12 13 12 13 12 15 16 15 14 17 18 17 17 16 17 19 20 21 21 21 21 20 20 20 21 20 18 20 20 19 19 19 19 19 19 18 18 18 17 17 17 17 16 16
10 11 11 12 12 13 13 13 14 14 15 17 18 17 18 16 16 16 17 18 19 20 21 21 20 20 20 20 20 20 19 19 19 19 19 18 17 18 17 17 17 17 17 17 17 17 17 17 17
10 11 12 12 12 11 12 13 14 15 16 18 17 16 17 16 16 15 17 18 18 19 20 20 20 20 19 19 21 20 19 18 18 16 17 17 17 17 17 17 17 17 16 16 17 17 17 17 17
9 11 12 12 12 10 11 13 14 15 17 18 18 16 17 17 16 15 14 15 16 17 18 18 19 19 20 20 20 19 19 18 18 17 17 17 16 17 17 17 17 18 18 17 16 15 16 16 17
9 9 11 12 10 11 14 12 14 16 16 17 17 17 16 15 15 15 14 15 16 16 17 18 19 19 19 20 19 18 18 18 18 18 18 18 18 17 17 16 16 16 15 15 15 15 16 16 16
9 10 10 10 11 10 11 13 15 15 15 15 16 15 15 15 15 14 13 16 16 16 16 17 18 17 17 17 18 18 18 18 18 17 17 17 17 16 16 16 15 15 15 15 14 14 15 14 15
9 9 9 9 12 11 12 14 14 16 16 15 15 15 14 14 14 12 13 15 17 18 17 17 17 17 17 17 18 18 18 17 17 17 17 16 16 15 15 14 14 15 15 14 14 14 14 14 14
9 9 10 11 9 10 10 12 13 12 15 15 15 16 16 15 14 12 12 15 15 17 17 16 16 16 15 16 16 16 16 16 16 16 16 16 15 15 14 14 14 14 13 12 12 12 12 12 12
10 11 11 8 11 6 6 11 14 11 13 13 13 13 13 14 13 12 12 13 13 14 15 15 15 15 15 15 15 14 15 14 14 14 14 13 14 14 13 12 12 12 11 11 11 11 11 11 11

GFSSGP_925_temp_105.txt.gz
Temp
16 17 17 16 15 14 15 17 19 22 23 25 25 25 23 23 24 23 19 20 21 20 20 20 20 20 19 18 18 19 19 19 19 19 19 19 19 18 18 18 18 18 18 18 18 18 18 18 18
16 16 16 14 15 14 16 17 19 22 24 23 23 24 24 23 20 20 20 20 21 20 20 20 20 20 19 18 18 18 18 19 19 19 19 19 18 18 18 17 17 17 17 17 17 17 18 17 18
15 15 15 15 14 16 18 17 22 23 23 23 24 22 22 21 20 20 20 19 20 20 20 20 20 20 19 18 18 18 18 18 19 19 19 18 18 18 17 17 17 17 17 17 17 18 17 18 18
15 14 14 15 17 17 17 18 22 22 24 23 23 22 21 20 21 20 19 19 19 20 20 20 20 19 19 19 18 18 18 18 19 19 19 18 18 17 17 17 16 17 17 18 17 18 18 18 18
14 13 14 15 16 18 18 20 22 23 24 24 21 21 21 21 21 19 19 19 19 19 20 20 20 19 19 18 18 18 18 17 17 18 17 17 17 17 17 16 17 18 17 17 17 18 18 18 18
13 12 14 15 16 18 17 19 22 23 23 22 21 19 20 20 19 19 19 19 20 20 20 20 20 19 19 19 18 18 17 17 17 17 17 17 17 16 16 17 17 17 17 17 18 18 18 18 18
12 12 13 16 15 16 18 20 20 22 23 22 20 19 19 19 19 19 19 19 20 20 20 19 19 19 19 19 18 18 18 17 17 17 17 17 16 17 18 18 18 17 17 18 18 18 18 18 18
12 11 13 15 16 15 18 20 21 22 23 20 19 19 20 19 19 19 19 19 19 20 19 19 19 19 19 18 18 18 18 18 17 17 17 16 17 17 17 17 17 17 18 18 18 18 18 18 18
14 12 13 14 16 16 18 20 21 23 22 22 19 19 20 19 19 19 19 19 19 19 19 19 19 19 19 18 18 18 18 18 18 18 17 16 17 17 17 17 17 18 18 18 18 19 18 18 18
11 12 14 15 16 17 16 18 21 22 21 20 19 19 19 18 19 19 19 19 18 18 18 19 19 19 18 18 18 18 18 18 18 18 18 18 17 17 18 18 18 18 18 18 18 19 19 18 18
11 12 12 15 16 15 14 15 18 21 22 20 19 19 19 18 19 19 19 19 19 18 18 19 19 19 18 18 18 18 18 18 18 18 18 18 18 18 18 18 18 18 18 18 18 18 18 19 18
10 12 12 13 15 16 14 15 17 19 18 17 16 19 19 19 20 20 20 19 19 18 18 18 19 18 18 18 18 18 18 18 18 18 18 18 18 18 18 18 18 18 18 18 18 18 18 19 18
9 12 13 14 15 13 14 14 16 18 17 16 17 19 19 20 19 20 19 19 19 18 18 18 19 18 18 18 18 19 19 18 18 18 18 18 18 18 18 18 18 18 18 18 19 18 18 18 18
9 12 13 14 14 13 12 14 15 16 16 15 17 19 19 19 20 20 19 19 18 19 18 18 19 19 18 19 19 19 19 18 18 18 18 18 18 18 18 18 18 18 18 18 18 18 18 18 18
9 10 12 14 14 12 12 12 15 15 16 15 14 14 16 18 19 19 19 19 19 19 18 18 18 19 19 19 19 19 19 19 18 19 19 19 19 18 18 18 18 18 18 18 18 18 18 18 18
9 11 12 14 14 13 11 11 14 15 16 14 13 13 14 15 18 19 18 19 19 19 18 18 18 19 19 19 19 19 19 19 19 19 19 19 19 19 19 18 19 19 18 18 18 18 18 18 18
9 9 11 14 14 13 12 11 13 14 16 15 13 12 14 14 16 16 18 20 21 19 19 19 18 18 19 19 20 20 20 20 20 20 20 20 20 19 19 19 19 19 18 18 18 18 18 18 18
10 11 10 13 13 13 12 13 12 13 15 15 13 12 13 14 15 16 17 19 21 18 21 19 18 19 19 19 19 19 20 20 20 20 20 20 20 20 19 19 19 19 18 18 18 18 18 18 18
8 9 10 12 14 13 12 13 12 12 13 14 14 13 13 14 15 17 16 19 21 21 21 20 20 18 18 19 18 18 19 19 20 20 20 20 20 20 20 20 19 19 18 19 18 18 18 18 18
8 9 10 12 14 14 13 13 14 12 13 13 13 13 13 13 15 16 17 16 19 19 21 21 21 20 20 18 19 18 19 20 20 20 19 20 20 20 20 20 19 19 19 18 18 18 18 18 18
8 10 10 12 13 13 14 13 13 13 13 13 13 14 13 13 13 15 16 16 17 17 19 21 21 22 21 20 18 19 18 19 19 19 20 20 20 20 20 20 19 19 18 18 18 18 18 18 17
9 11 11 12 12 13 12 13 13 13 13 13 13 13 13 13 14 15 16 16 18 21 21 21 21 21 21 22 21 19 20 19 20 19 19 19 19 20 19 19 19 18 18 18 18 18 16 16 16
10 11 11 10 11 12 12 12 13 13 13 13 13 13 14 14 14 16 15 17 19 19 20 21 20 21 20 21 21 20 20 20 21 21 18 18 19 18 18 18 17 17 16 17 18 16 15 16 15
8 11 11 11 11 10 12 13 13 13 15 14 15 14 14 14 15 17 16 18 18 18 19 19 20 20 21 19 19 21 19 20 19 18 18 18 17 18 17 17 17 16 17 17 17 16 16 15 15
8 11 11 11 11 11 12 14 14 14 16 16 16 17 16 17 16 15 14 14 16 17 18 18 19 19 18 20 19 19 18 19 19 18 16 16 16 16 17 17 16 16 16 15 15 15 15 15 15
9 10 8 11 11 11 12 13 15 15 15 16 17 18 17 17 16 15 14 14 16 18 17 17 18 18 20 20 20 19 19 19 18 18 18 17 17 17 17 16 15 16 16 15 15 15 15 15 15
9 10 10 9 10 10 11 12 14 15 14 15 15 16 15 15 14 15 14 14 15 16 18 18 18 19 20 21 20 19 18 18 18 18 18 17 17 17 16 16 16 16 15 15 15 15 14 14 14
9 9 11 7 9 11 11 12 13 12 13 14 14 14 15 15 15 14 14 14 16 17 18 16 17 18 19 19 18 18 17 17 17 17 17 17 17 17 17 16 15 15 14 14 14 14 14 13 13
9 8 10 11 8 10 11 12 13 11 11 14 13 14 14 14 13 13 13 15 14 15 16 15 16 17 17 16 16 16 16 16 16 16 16 16 16 15 15 14 14 13 13 13 13 12 12 12 12
10 10 10 9 10 7 5 11 12 11 12 13 12 12 12 12 12 11 12 13 13 14 15 15 15 15 15 14 14 15 15 15 15 15 15 14 13 13 13 12 12 13 12 12 12 11 11 11 11

GFSSGP_925_temp_108.txt.gz
Temp
16 16 17 16 15 15 15 16 18 20 22 23 24 23 22 24 23 22 19 19 21 20 20 20 20 19 19 18 19 19 19 20 20 20 19 19 19 19 18 18 18 18 18 19 18 18 18 18 17
15 15 16 14 15 16 16 16 18 20 22 24 23 24 24 24 20 20 19 19 20 20 20 19 20 19 18 18 19 19 19 19 19 19 19 19 19 18 18 18 18 18 18 18 18 18 17 17 17
15 15 14 14 15 16 17 16 19 20 22 23 23 22 22 22 20 20 20 19 20 19 20 19 19 19 18 18 19 19 19 19 19 19 19 19 18 18 17 17 17 17 18 18 18 17 18 18 18
14 13 12 14 16 16 17 18 19 22 23 22 22 23 22 21 21 20 19 19 19 19 20 19 19 19 18 19 19 19 19 19 19 19 19 18 18 17 17 17 17 17 18 18 18 18 18 18 18
13 12 12 14 15 16 18 18 19 20 22 22 21 23 23 20 20 20 19 19 19 19 19 19 19 19 19 18 18 18 18 18 19 20 19 18 17 17 17 16 17 18 18 17 18 18 18 18 18
13 13 13 13 15 15 16 17 18 20 22 21 20 22 22 20 20 19 19 19 19 19 19 19 19 19 18 18 18 18 18 18 19 19 18 17 17 17 16 16 17 18 18 17 18 18 18 18 18
11 12 13 13 14 16 15 18 17 19 20 21 20 21 19 19 21 19 19 19 19 19 19 19 19 19 18 18 18 18 17 18 18 17 17 17 17 16 16 17 17 18 17 17 18 18 18 18 18
10 12 13 12 13 14 17 17 18 19 20 19 19 20 20 20 19 19 19 19 19 19 19 19 19 18 18 18 18 17 17 17 17 17 17 17 17 17 18 17 17 17 17 17 18 18 18 18 18
12 11 12 13 13 15 18 16 18 20 20 21 19 19 20 19 19 19 19 19 18 19 19 19 19 18 18 18 18 18 17 17 17 17 16 17 17 17 17 17 17 17 17 18 17 17 17 18 18
10 10 12 14 14 14 17 17 15 17 20 21 19 19 19 19 19 19 19 19 18 18 19 19 19 18 18 18 17 17 17 17 17 16 16 17 17 17 17 17 17 18 18 18 18 18 17 18 18
9 10 13 13 14 15 15 16 16 15 17 20 19 19 19 19 19 19 19 19 19 18 18 19 19 18 18 17 17 17 17 17 17 17 17 17 17 17 17 17 17 17 18 18 18 18 18 17 17
9 10 12 13 13 13 14 16 15 14 15 19 16 19 19 19 19 19 19 19 18 18 18 18 19 19 18 17 17 17 17 17 17 17 17 17 17 17 17 18 18 18 18 18 18 18 18 18 18
9 10 11 12 13 13 14 14 14 14 14 16 16 17 18 19 19 19 19 19 18 19 19 18 19 19 18 18 18 18 18 17 18 17 18 18 18 17 18 18 18 18 18 18 18 18 18 18 18
10 10 10 11 12 14 14 13 13 14 15 16 17 18 20 19 18 19 19 18 18 19 19 18 19 19 18 18 18 18 18 18 17 17 18 18 18 18 18 18 18 18 18 18 18 18 18 18 18
9 8 10 11 12 12 13 12 12 13 12 15 15 15 17 19 19 19 19 18 19 19 21 18 18 18 19 18 18 18 18 18 17 17 17 18 18 18 18 18 18 18 18 17 17 17 17 17 18
8 8 9 11 13 12 12 13 13 12 11 13 13 13 15 17 21 20 19 19 19 19 18 18 18 17 18 19 18 18 18 18 18 18 18 18 18 18 18 18 18 18 17 17 17 17 17 17 18
8 9 9 12 14 14 12 13 13 11 11 14 13 13 14 15 16 19 19 19 19 19 18 18 18 17 18 18 19 18 19 18 18 18 18 18 18 18 18 18 19 18 18 17 17 17 17 18 18
8 9 10 11 13 14 12 12 12 10 10 12 13 12 13 14 14 16 18 20 20 18 18 18 18 18 17 17 17 18 18 18 18 19 19 19 18 19 18 18 18 18 18 18 18 18 17 17 18
8 8 9 12 13 13 13 13 13 12 9 12 13 12 13 14 14 15 17 18 19 20 18 18 18 18 17 17 17 17 17 18 18 18 19 19 19 19 19 19 19 18 18 19 18 18 17 17 17
8 9 10 12 12 14 12 12 12 11 11 11 13 12 13 14 14 14 16 17 20 21 18 18 18 18 17 17 17 17 17 18 19 19 19 19 20 19 19 19 19 19 19 18 18 18 17 17 17
9 9 10 12 13 13 12 13 12 12 12 12 13 13 13 13 14 14 14 16 18 19 19 18 17 18 17 17 17 17 17 17 18 19 19 18 19 19 20 19 19 19 19 18 18 17 17 17 16
8 9 11 13 12 13 11 13 13 12 12 12 13 13 12 13 13 14 15 14 16 18 19 19 17 17 18 18 19 18 17 17 17 18 19 19 18 18 20 19 18 18 17 16 16 16 16 16 15
9 10 11 11 11 12 12 12 12 13 13 13 12 12 13 13 13 14 15 16 16 16 17 18 17 17 17 18 18 19 16 18 18 18 18 18 18 18 18 17 17 16 16 16 17 17 17 17 16
8 10 11 11 11 11 11 13 12 13 13 13 13 12 13 13 14 15 15 16 16 16 19 18 18 17 17 17 17 17 17 19 18 17 19 18 18 18 17 17 17 16 16 16 15 16 16 15 15
7 9 10 9 9 11 11 13 14 13 14 14 15 13 13 15 14 15 14 14 15 17 15 16 16 16 17 19 17 18 20 20 19 20 20 19 16 16 16 16 16 16 16 16 16 16 15 15 14
9 8 8 11 12 12 13 13 14 14 15 15 15 15 12 14 15 15 15 14 14 17 17 17 16 17 21 20 20 20 20 20 19 19 20 18 16 16 15 16 16 16 16 16 15 15 14 14 14
9 10 10 10 10 9 10 12 14 13 13 13 14 15 15 16 15 15 15 15 14 16 17 20 18 17 19 20 19 19 18 18 18 17 17 16 16 16 16 16 16 15 15 15 14 14 14 14 13
9 9 9 8 10 12 11 12 11 12 12 12 14 15 15 15 15 15 14 14 14 15 17 17 17 17 17 17 17 17 17 16 17 17 16 16 16 16 16 15 15 15 14 14 14 13 13 13 13
9 9 10 10 8 10 11 12 12 11 10 12 11 12 14 14 14 14 14 14 14 14 15 16 17 17 17 16 16 16 16 16 16 16 15 16 15 15 15 15 14 14 13 13 13 13 12 12 12
10 10 10 8 10 7 7 11 11 10 11 12 11 11 11 11 11 10 12 13 13 13 14 15 15 15 15 15 15 15 15 15 15 15 15 15 15 14 14 13 13 13 12 12 11 11 11 11 10

GFSSGP_925_temp_111.txt.gz
Temp
15 16 17 17 17 16 18 18 18 21 23 24 23 24 25 25 25 26 19 19 20 20 20 19 19 19 19 19 19 19 20 20 20 20 19 19 19 19 18 19 19 19 19 19 18 18 18 17 17
15 15 16 14 16 16 18 18 19 21 22 23 24 24 24 26 22 20 19 19 19 19 19 19 19 19 20 20 20 20 20 20 20 20 20 19 19 18 18 18 19 19 19 18 18 18 17 17 17
15 15 15 15 16 17 18 19 20 21 21 22 24 23 23 24 21 20 20 19 19 19 19 19 19 19 20 20 19 20 20 20 19 19 19 19 19 18 18 18 18 19 18 18 18 17 17 18 18
14 14 14 13 16 19 18 20 19 21 22 23 23 24 23 22 21 21 19 19 19 19 19 19 19 19 20 19 19 19 19 19 19 19 19 19 18 18 18 18 18 18 18 18 17 18 18 18 18
14 13 13 13 15 18 18 20 19 20 22 23 22 24 24 19 20 20 19 19 19 19 19 19 19 19 19 19 19 19 19 19 19 19 19 18 18 17 17 18 18 18 18 18 17 18 18 19 18
13 14 13 13 14 16 18 18 18 19 20 22 22 23 24 19 21 20 19 19 19 19 19 18 19 18 19 19 19 19 19 19 19 20 18 17 17 17 16 18 18 18 18 17 17 18 18 18 18
12 13 13 14 14 15 17 17 18 18 19 20 22 22 21 19 20 19 19 19 19 19 19 18 18 18 19 19 19 19 19 19 19 20 18 17 17 16 17 18 18 18 17 18 18 18 18 18 18
11 12 13 14 14 14 17 18 18 17 18 21 21 22 23 20 19 20 20 18 18 18 18 18 18 18 17 18 18 18 18 19 20 19 17 17 17 16 17 18 18 18 18 18 18 18 18 18 18
12 11 12 13 13 14 17 17 18 19 19 20 21 20 21 20 19 19 19 18 18 18 18 18 17 17 17 17 18 18 18 18 18 17 17 16 16 17 17 17 18 18 17 18 18 18 18 18 17
11 11 12 14 15 14 15 16 18 18 18 18 19 21 21 19 19 19 19 18 18 18 18 18 17 17 17 17 17 17 17 17 16 16 16 16 16 16 17 17 17 17 17 17 17 18 18 17 17
10 10 12 13 14 14 14 16 17 16 16 17 18 17 21 20 20 20 19 18 18 18 18 17 17 17 17 17 17 16 17 17 17 16 16 17 17 17 16 16 17 17 17 17 17 17 17 17 18
9 10 11 12 13 13 14 14 15 17 17 18 16 16 16 19 20 20 19 18 18 18 18 18 17 17 17 17 17 16 16 16 16 16 17 16 16 16 16 17 17 17 17 17 18 18 18 18 18
9 10 11 12 12 13 14 13 14 15 16 17 17 16 16 17 19 19 18 18 18 18 18 17 17 17 17 17 16 16 16 16 16 16 16 17 17 17 17 17 17 18 18 18 18 18 18 17 17
10 10 10 11 11 12 13 14 13 15 16 15 15 15 16 17 20 19 18 16 16 19 18 18 17 17 17 17 17 16 16 17 17 16 16 17 17 17 18 18 18 18 18 18 18 18 18 18 17
8 8 8 10 11 11 13 13 13 14 14 14 14 15 15 17 20 18 19 18 17 18 18 18 18 18 18 18 17 17 17 17 17 17 17 17 18 18 18 18 18 18 18 18 18 18 18 17 17
7 8 9 11 11 12 13 12 15 15 14 14 14 13 14 16 20 18 19 19 18 18 18 18 17 19 18 18 18 18 17 17 17 17 17 17 18 18 18 18 18 18 18 17 17 17 17 17 17
7 8 9 11 12 12 12 12 13 12 13 14 12 10 13 16 20 20 19 17 17 18 18 17 19 19 18 18 18 18 18 17 17 17 17 17 17 18 18 18 18 17 17 17 17 17 17 17 17
5 7 9 9 12 12 11 12 12 12 13 12 9 10 13 14 20 20 20 17 17 18 18 18 18 18 18 17 17 17 18 18 18 18 18 17 17 17 17 18 17 17 17 17 17 17 17 17 17
7 7 8 9 11 11 11 12 13 11 11 9 9 10 12 14 14 14 19 19 18 18 18 18 18 17 17 17 16 16 16 17 18 18 18 18 18 18 17 18 17 17 17 17 17 17 17 17 17
7 8 9 11 12 12 13 13 13 11 10 10 10 11 12 13 14 15 17 18 17 19 18 18 17 17 17 17 16 16 16 16 18 18 18 18 18 18 18 18 18 18 17 17 17 17 17 17 17
8 8 9 11 12 13 13 11 12 11 11 11 11 12 12 13 14 14 16 18 17 17 18 18 18 17 17 17 16 16 16 16 16 17 18 18 18 18 18 18 18 18 17 17 17 17 16 17 17
9 9 9 12 11 12 11 13 12 12 12 11 12 12 12 13 14 14 14 16 16 17 17 18 17 17 17 16 16 16 16 17 17 17 18 18 18 18 18 17 17 17 16 16 16 17 16 17 16
9 7 10 12 11 11 12 13 12 13 12 12 13 12 12 14 15 15 14 15 15 16 16 16 16 17 16 16 17 16 16 16 18 17 17 17 17 18 17 17 16 16 17 17 15 16 15 16 16
8 10 10 12 11 12 11 13 13 13 13 13 13 12 12 14 14 15 15 15 15 16 16 16 15 16 16 15 16 16 16 17 17 18 18 17 17 17 16 16 16 16 17 15 15 15 15 15 15
8 8 9 11 11 12 11 14 14 13 14 14 13 12 13 14 14 15 14 14 14 15 16 17 16 16 17 16 16 15 15 15 17 18 16 17 16 15 16 16 15 15 16 16 15 15 15 15 14
9 9 10 11 12 12 13 12 13 13 13 15 14 12 12 14 15 15 15 14 14 14 15 16 16 16 16 16 16 15 15 16 15 16 17 17 16 15 17 15 15 15 15 15 15 14 14 14 14
9 9 9 10 10 12 11 13 13 14 13 12 14 12 12 13 15 16 15 14 14 15 15 16 17 15 16 17 16 16 16 15 16 17 15 15 15 15 15 15 15 14 14 15 14 14 14 14 14
9 10 10 9 11 12 12 11 12 12 11 12 13 13 12 12 14 15 15 14 13 14 15 15 15 15 15 15 15 15 15 15 15 15 15 15 16 15 15 14 14 14 15 14 14 13 13 13 13
9 10 10 10 9 12 12 11 12 11 10 11 11 12 12 10 13 14 14 13 13 13 14 14 14 15 15 15 15 15 15 15 15 15 15 15 15 15 15 14 14 14 13 13 13 13 12 12 11
10 9 9 9 11 7 10 11 11 10 10 11 10 11 11 10 11 11 12 12 12 12 12 13 13 15 15 15 15 15 15 15 15 15 15 15 15 14 14 13 13 13 13 13 13 12 12 11 11

GFSSGP_925_temp_114.txt.gz
Temp
16 17 18 20 21 22 23 25 26 26 26 29 29 29 29 31 29 29 23 24 25 23 22 20 20 19 20 21 21 20 21 21 20 20 19 19 19 19 20 19 19 20 19 19 18 19 18 18 18
16 17 18 21 20 22 23 25 24 25 27 27 28 28 26 28 28 24 22 22 23 23 22 21 20 19 19 20 21 20 20 20 20 20 20 19 19 20 19 19 20 19 19 18 18 17 18 18 18
16 17 19 19 20 22 24 25 24 25 26 26 27 29 29 28 26 25 22 22 23 23 21 21 20 19 19 20 20 20 20 20 20 20 19 19 19 19 19 19 19 19 19 18 18 17 17 17 17
16 17 18 17 19 22 23 25 24 24 26 27 26 27 29 28 25 24 22 22 22 22 22 20 20 19 19 20 20 20 20 20 20 19 19 19 19 18 19 19 19 19 18 18 17 17 17 18 18
16 17 17 17 18 21 23 24 25 24 25 26 27 26 28 24 23 22 21 22 22 22 21 19 19 19 19 20 20 20 20 20 19 19 19 19 18 18 19 19 19 18 18 18 17 17 18 18 19
16 17 16 17 19 20 21 23 23 24 25 24 25 26 27 25 22 22 21 21 21 21 20 19 19 19 19 20 20 20 19 19 19 19 19 19 18 18 18 18 18 18 18 17 17 17 18 18 18
15 16 16 18 18 19 20 22 22 23 23 24 24 25 27 24 23 22 22 21 20 21 20 19 19 19 19 19 19 19 19 19 19 19 19 18 17 18 18 18 18 18 18 17 17 18 18 18 18
15 14 15 16 17 18 20 21 22 22 22 24 24 23 25 27 23 22 22 21 19 20 20 20 20 19 19 18 19 19 19 19 19 19 18 17 17 18 18 18 18 18 17 17 17 18 18 18 18
15 13 13 15 16 18 20 20 21 22 22 22 23 24 24 23 21 21 19 19 19 19 20 20 20 20 20 19 18 19 19 19 19 19 18 17 18 17 17 18 18 18 18 18 18 18 18 18 18
13 13 14 17 17 17 19 18 19 19 21 21 21 22 22 20 21 20 20 19 18 18 19 20 21 20 20 20 18 18 18 18 18 18 17 19 19 19 19 18 18 18 17 18 18 18 18 18 18
14 13 16 16 16 17 16 17 18 17 17 21 21 22 21 20 20 21 20 20 19 18 19 20 20 19 20 20 19 18 18 19 18 18 19 20 20 19 18 18 17 17 17 17 17 17 18 18 19
12 14 15 15 15 15 15 17 17 18 18 20 21 22 21 20 19 17 21 19 18 18 18 19 20 20 20 19 20 20 18 18 19 19 19 18 18 19 18 17 17 17 18 18 18 19 18 18 19
12 13 14 14 14 14 14 14 16 17 18 18 20 19 20 20 19 18 16 19 18 18 18 18 19 20 20 19 19 19 19 19 19 18 18 17 17 18 18 18 18 18 18 18 18 19 18 18 19
13 12 13 13 13 13 13 14 15 16 18 17 18 18 18 20 19 17 15 18 18 18 18 18 18 19 19 19 19 19 19 18 18 18 18 17 18 18 19 18 18 18 18 18 18 18 19 19 19
12 10 12 12 13 12 13 13 14 16 17 16 17 18 19 20 18 17 16 17 16 17 18 18 18 19 19 17 18 18 18 18 18 18 18 18 18 18 18 18 18 18 18 18 18 18 18 19 18
11 10 10 14 14 14 13 12 15 17 17 16 16 18 18 20 19 17 16 14 17 17 17 18 18 18 19 17 16 16 17 18 18 18 17 17 17 17 17 18 18 18 18 18 18 18 18 19 18
9 9 12 13 15 14 13 13 16 17 17 16 17 18 16 18 18 16 16 15 15 20 18 18 17 18 18 17 17 16 17 18 18 18 18 17 17 17 17 18 18 17 17 17 17 17 18 18 18
10 9 11 12 14 13 13 14 15 15 15 15 16 16 15 16 16 16 14 15 15 16 16 18 18 17 18 17 17 17 17 18 18 18 18 18 18 17 17 18 17 17 17 17 17 17 17 18 18
9 8 9 12 13 13 11 14 15 14 14 15 15 15 14 15 16 16 14 16 15 17 18 18 18 17 17 17 16 16 17 18 18 18 18 17 17 17 17 17 17 17 17 17 17 17 17 17 17
9 9 10 12 14 13 13 14 16 15 15 15 14 14 14 15 16 16 15 15 14 17 18 18 18 17 17 17 17 17 17 17 18 17 17 17 17 17 17 17 17 17 17 17 17 17 16 18 18
10 9 10 10 11 13 14 13 14 13 13 13 14 15 13 14 16 15 16 16 16 16 18 18 17 17 17 17 16 16 16 16 16 16 16 16 16 17 16 16 16 16 16 16 16 17 17 18 16
9 9 9 10 9 12 15 13 12 12 12 13 14 15 14 15 16 15 16 17 16 16 17 18 17 17 17 17 17 16 16 17 17 17 16 18 17 17 17 17 17 16 16 16 16 16 17 17 15
9 8 9 10 10 11 12 14 11 12 12 14 15 15 16 15 14 15 17 17 17 16 16 17 17 17 17 17 16 16 17 17 17 17 16 16 16 17 17 17 15 16 17 18 18 17 17 17 15
8 9 10 10 11 13 13 15 13 13 15 15 16 15 14 14 13 15 17 16 15 15 16 15 16 16 16 16 16 16 16 16 16 16 16 16 16 16 16 16 16 16 16 16 16 16 16 16 15
9 10 13 13 13 13 12 15 12 15 14 15 15 14 13 12 14 16 16 15 16 15 15 15 16 16 16 15 16 15 15 15 16 16 18 15 15 15 16 16 16 15 15 15 15 14 14 15 15
9 10 12 13 13 13 14 13 11 15 15 16 15 12 12 12 14 16 18 16 15 16 16 15 15 15 15 15 15 15 15 15 15 15 16 15 15 16 16 16 16 15 15 14 15 15 14 14 14
10 11 10 13 13 14 12 14 16 15 15 15 14 12 11 12 12 15 17 16 15 15 15 15 15 15 14 14 15 14 16 14 14 15 15 15 15 15 15 16 15 15 15 14 14 14 13 14 13
10 9 12 13 14 14 12 12 11 13 13 14 12 11 11 12 15 17 17 16 15 15 15 16 15 15 16 15 15 15 14 14 15 15 15 15 15 16 15 15 15 14 14 14 13 13 13 12 12
11 11 12 13 13 15 14 12 12 12 13 13 12 11 11 11 12 16 16 15 14 14 14 14 14 14 15 15 14 14 14 14 14 14 14 15 15 14 14 14 14 14 14 14 14 14 13 12 12
12 12 12 14 14 12 15 12 14 14 13 13 13 11 10 10 11 14 15 15 14 14 13 13 13 13 13 14 14 14 13 14 14 13 14 14 14 14 14 14 14 13 13 13 12 12 12 11 11

GFSSGP_925_temp_117.txt.gz
Temp
16 19 20 22 22 23 24 26 29 29 30 32 32 31 31 32 31 25 26 28 28 25 22 20 20 20 21 20 21 21 21 20 20 20 19 19 19 19 19 19 19 19 19 19 19 18 18 18 18
18 19 20 22 21 23 25 27 27 29 29 31 30 31 30 30 31 27 27 27 27 25 22 21 20 21 21 21 20 21 20 20 20 20 19 19 19 19 19 19 19 19 19 18 18 18 19 18 17
18 19 21 21 21 22 25 28 28 29 29 29 28 30 30 30 32 29 25 25 26 25 22 21 20 20 20 21 20 20 20 20 20 20 20 19 20 20 19 19 19 19 19 19 18 18 18 17 17
19 20 20 19 21 24 24 26 28 28 28 28 28 28 31 31 32 29 24 25 26 23 22 21 20 19 20 21 21 20 20 20 20 20 19 19 20 20 19 19 19 19 18 18 17 17 17 18 18
18 20 19 20 20 23 25 26 26 27 27 27 28 27 29 31 27 26 24 24 26 22 21 21 20 19 20 20 20 20 20 20 20 19 19 19 20 19 19 19 19 19 18 18 17 17 18 18 19
18 19 18 19 21 23 24 25 25 26 27 27 27 28 29 30 27 24 24 24 24 22 21 20 20 19 19 20 20 20 20 20 19 19 19 19 19 19 19 19 19 18 18 18 18 17 19 19 19
17 18 18 19 20 22 23 25 24 24 25 26 28 26 28 30 27 23 24 24 23 22 21 20 19 19 19 20 20 20 20 19 19 19 19 19 18 19 19 19 18 18 17 18 18 18 19 19 18
18 17 17 18 19 19 22 23 24 23 23 27 28 26 26 28 25 25 23 22 23 21 20 20 20 20 20 19 19 19 19 19 19 19 19 18 18 18 19 18 18 18 17 18 18 19 18 18 18
17 15 15 16 17 19 21 21 23 24 23 24 26 26 27 25 23 22 22 21 21 21 21 20 20 21 21 20 19 19 19 19 19 19 19 18 18 18 18 18 18 18 18 18 18 18 18 18 18
15 15 16 18 19 19 20 20 21 21 22 22 23 23 24 24 23 22 21 21 20 20 21 20 21 22 22 20 18 19 18 18 18 19 18 19 19 19 18 18 18 17 17 17 17 18 18 18 18
15 14 17 18 18 19 18 18 20 20 19 20 22 23 22 22 22 19 21 21 20 21 21 19 21 22 23 21 19 18 18 18 18 18 19 21 20 19 18 19 17 17 17 17 17 18 18 20 20
14 16 16 17 17 17 16 17 17 18 19 21 21 22 23 22 23 20 17 18 20 19 20 19 22 22 23 21 19 18 18 18 18 19 20 21 21 19 18 18 18 18 18 18 18 19 20 20 20
15 15 16 16 16 16 16 15 16 17 19 20 21 20 20 21 20 20 17 15 14 19 18 19 20 22 23 22 20 18 18 18 19 19 21 21 21 21 18 18 18 19 20 20 20 20 20 20 20
15 15 15 16 15 15 15 15 16 16 18 19 20 20 20 20 18 17 19 17 15 16 18 18 17 21 23 22 21 20 19 19 21 20 20 19 20 21 18 18 18 20 20 20 20 20 20 20 20
14 13 14 15 15 14 15 13 14 16 18 18 19 19 20 20 19 19 19 17 16 14 17 18 18 21 22 21 22 22 21 20 20 20 18 18 19 20 20 20 20 20 20 20 20 20 20 20 20
12 12 11 15 16 16 15 11 16 17 17 17 18 19 19 20 19 20 20 17 16 15 17 18 16 20 20 21 21 21 20 20 20 20 19 18 20 20 20 20 20 19 19 19 19 19 19 20 19
12 10 12 14 16 16 15 12 16 17 18 17 18 19 19 19 19 18 19 17 15 14 16 17 17 19 19 20 20 20 20 20 19 19 19 19 20 19 19 19 19 19 19 19 19 19 19 19 19
11 10 12 12 15 14 12 13 15 17 18 18 18 19 19 19 18 19 18 16 15 15 14 16 17 18 18 18 17 18 19 19 19 19 18 19 19 19 19 19 19 19 18 18 18 19 19 19 19
11 11 10 12 14 14 14 13 13 17 17 17 18 18 19 19 18 18 17 15 14 15 15 16 17 18 18 16 16 17 18 19 19 19 19 18 19 19 19 19 19 18 18 19 18 18 18 18 18
11 11 11 13 14 13 14 14 16 17 16 16 16 17 17 18 18 19 17 15 13 15 16 14 17 17 17 17 17 18 18 19 19 19 19 19 19 19 18 19 19 18 19 18 18 18 18 18 18
11 10 10 11 12 12 12 14 15 17 17 17 16 17 18 18 18 19 18 16 14 14 15 16 16 17 17 17 17 18 19 19 18 18 19 18 18 18 18 18 18 18 18 18 18 17 18 18 19
9 12 9 9 9 11 15 14 15 16 16 16 16 17 17 18 18 18 17 16 14 14 15 15 16 16 17 17 17 17 17 18 18 18 17 17 18 17 17 18 17 17 17 17 17 17 18 17 16
9 9 9 9 10 10 13 11 14 17 14 14 15 16 17 18 18 17 17 17 15 15 15 15 15 16 17 17 17 17 17 18 17 17 17 16 17 16 16 16 16 16 16 16 16 16 16 16 16
9 9 9 9 10 12 14 12 12 11 12 15 15 16 16 15 16 16 17 17 16 15 16 16 15 16 17 17 18 17 17 18 17 17 17 16 16 15 15 16 16 16 16 17 16 15 15 15 15
10 10 13 13 12 14 12 12 11 11 12 14 13 13 13 14 15 16 17 17 16 15 15 15 15 16 15 16 16 16 16 17 17 17 17 16 15 15 15 16 16 17 17 17 17 16 15 15 15
9 11 12 13 14 14 16 13 11 12 15 14 13 12 13 13 13 16 17 16 16 15 15 15 14 14 15 14 15 15 15 15 15 15 17 15 15 15 16 16 17 16 16 16 15 15 15 15 15
11 12 11 11 12 14 13 12 12 14 14 12 11 12 12 12 13 14 17 16 16 15 14 14 14 14 14 14 15 15 15 16 15 15 15 15 15 15 15 15 15 15 15 15 15 15 15 14 15
10 11 13 13 14 14 13 12 11 11 12 11 11 11 11 11 13 13 15 16 16 16 15 15 15 15 15 14 15 14 15 15 15 15 15 14 15 15 15 15 15 15 15 15 15 14 14 14 14
11 12 13 14 14 13 14 12 10 12 12 12 11 11 11 10 11 12 13 16 15 15 15 15 15 15 14 14 14 14 14 14 14 15 15 14 14 14 14 14 15 14 14 14 14 13 13 13 13
12 13 13 13 15 15 15 11 14 14 13 12 11 11 10 10 11 13 13 15 15 14 14 14 14 15 15 14 14 14 13 13 13 13 14 15 15 15 16 14 14 14 14 13 13 13 13 12 12